Wetterdaten: Montag, 14.03.2016
Datum Zeit Temp. A. Feuchte A. Luftdruck Regen Wind Richtung Richtung Sonnenschein ET UV Solar Taupunkt Windchill Windben Empfang
14.03.2016 00:00 2,8 C 96 % 1029,5 hPa 0,0 l/m 8,0 km/h (2 Bft) O-NO 66 0 min 0,000 mm 0,0 UV-I 0 W/m 2,2 C 1,3 C 11,3 km/h (2 Bft) 100,00 %
14.03.2016 00:02 2,8 C 96 % 1029,5 hPa 0,0 l/m 9,4 km/h (2 Bft) O-NO 78 0 min 0,000 mm 0,0 UV-I 0 W/m 2,2 C 0,1 C 12,9 km/h (3 Bft) 97,62 %
14.03.2016 00:03 2,8 C 96 % 1029,5 hPa 0,0 l/m 8,1 km/h (2 Bft) O-NO 71 0 min 0,000 mm 0,0 UV-I 0 W/m 2,2 C 1,2 C 11,3 km/h (2 Bft) 95,65 %
14.03.2016 00:04 2,8 C 96 % 1029,5 hPa 0,0 l/m 9,1 km/h (2 Bft) O-NO 63 0 min 0,000 mm 0,0 UV-I 0 W/m 2,2 C 0,4 C 12,9 km/h (3 Bft) 100,00 %
14.03.2016 00:05 2,8 C 96 % 1029,5 hPa 0,0 l/m 7,6 km/h (2 Bft) NO 52 0 min 0,000 mm 0,0 UV-I 0 W/m 2,2 C 1,7 C 9,7 km/h (2 Bft) 96,15 %
14.03.2016 00:06 2,8 C 96 % 1029,5 hPa 0,0 l/m 6,9 km/h (2 Bft) NO 46 0 min 0,000 mm 0,0 UV-I 0 W/m 2,2 C 2,3 C 9,7 km/h (2 Bft) 96,67 %
14.03.2016 00:07 2,8 C 96 % 1029,5 hPa 0,2 l/m 8,8 km/h (2 Bft) O-NO 71 0 min 0,000 mm 0,0 UV-I 0 W/m 2,2 C 0,6 C 12,9 km/h (3 Bft) 100,00 %
14.03.2016 00:08 2,8 C 96 % 1029,5 hPa 0,0 l/m 9,3 km/h (2 Bft) O-NO 69 0 min 0,000 mm 0,0 UV-I 0 W/m 2,2 C 0,2 C 14,5 km/h (3 Bft) 96,30 %
14.03.2016 00:09 2,8 C 96 % 1029,5 hPa 0,0 l/m 7,6 km/h (2 Bft) NO 47 0 min 0,000 mm 0,0 UV-I 0 W/m 2,2 C 1,7 C 12,9 km/h (3 Bft) 100,00 %
14.03.2016 00:10 2,8 C 96 % 1029,5 hPa 0,0 l/m 8,0 km/h (2 Bft) O-NO 62 0 min 0,000 mm 0,0 UV-I 0 W/m 2,2 C 1,3 C 12,9 km/h (3 Bft) 95,83 %
14.03.2016 00:11 2,8 C 96 % 1029,5 hPa 0,0 l/m 9,6 km/h (2 Bft) O-NO 65 0 min 0,000 mm 0,0 UV-I 0 W/m 2,2 C -0,0 C 12,9 km/h (3 Bft) 100,00 %
14.03.2016 00:12 2,8 C 96 % 1029,6 hPa 0,0 l/m 7,6 km/h (2 Bft) O-NO 71 0 min 0,000 mm 0,0 UV-I 0 W/m 2,2 C 1,7 C 12,9 km/h (3 Bft) 95,83 %
14.03.2016 00:13 2,8 C 96 % 1029,5 hPa 0,0 l/m 9,8 km/h (2 Bft) O-NO 59 0 min 0,000 mm 0,0 UV-I 0 W/m 2,2 C -0,2 C 14,5 km/h (3 Bft) 95,65 %
14.03.2016 00:14 2,8 C 96 % 1029,5 hPa 0,0 l/m 7,4 km/h (2 Bft) O-NO 57 0 min 0,000 mm 0,0 UV-I 0 W/m 2,2 C 1,8 C 11,3 km/h (2 Bft) 100,00 %
14.03.2016 00:15 2,8 C 96 % 1029,6 hPa 0,0 l/m 7,6 km/h (2 Bft) NO 45 0 min 0,000 mm 0,0 UV-I 0 W/m 2,2 C 1,7 C 11,3 km/h (2 Bft) 95,65 %
14.03.2016 00:16 2,8 C 96 % 1029,6 hPa 0,0 l/m 8,6 km/h (2 Bft) O-NO 63 0 min 0,000 mm 0,0 UV-I 0 W/m 2,2 C 0,8 C 12,9 km/h (3 Bft) 100,00 %
14.03.2016 00:17 2,8 C 96 % 1029,6 hPa 0,0 l/m 13,2 km/h (3 Bft) O-NO 70 0 min 0,000 mm 0,0 UV-I 0 W/m 2,2 C -2,5 C 16,1 km/h (3 Bft) 96,15 %
14.03.2016 00:18 2,8 C 96 % 1029,6 hPa 0,0 l/m 11,0 km/h (2 Bft) O-NO 74 0 min 0,000 mm 0,0 UV-I 0 W/m 2,2 C -1,1 C 14,5 km/h (3 Bft) 100,00 %
14.03.2016 00:19 2,8 C 96 % 1029,6 hPa 0,0 l/m 11,6 km/h (2 Bft) O-NO 67 0 min 0,000 mm 0,0 UV-I 0 W/m 2,2 C -1,5 C 14,5 km/h (3 Bft) 100,00 %
14.03.2016 00:20 2,8 C 96 % 1029,6 hPa 0,0 l/m 8,1 km/h (2 Bft) O-NO 70 0 min 0,000 mm 0,0 UV-I 0 W/m 2,2 C 1,2 C 11,3 km/h (2 Bft) 100,00 %
14.03.2016 00:21 2,8 C 96 % 1029,6 hPa 0,0 l/m 9,0 km/h (2 Bft) O 81 0 min 0,000 mm 0,0 UV-I 0 W/m 2,2 C 0,4 C 12,9 km/h (3 Bft) 100,00 %
14.03.2016 00:22 2,8 C 96 % 1029,5 hPa 0,0 l/m 8,1 km/h (2 Bft) O 83 0 min 0,000 mm 0,0 UV-I 0 W/m 2,2 C 1,2 C 12,9 km/h (3 Bft) 100,00 %
14.03.2016 00:23 2,8 C 96 % 1029,5 hPa 0,0 l/m 8,0 km/h (2 Bft) O-NO 66 0 min 0,000 mm 0,0 UV-I 0 W/m 2,2 C 1,3 C 12,9 km/h (3 Bft) 100,00 %
14.03.2016 00:24 2,8 C 96 % 1029,6 hPa 0,0 l/m 9,0 km/h (2 Bft) O-NO 63 0 min 0,000 mm 0,0 UV-I 0 W/m 2,2 C 0,4 C 12,9 km/h (3 Bft) 96,15 %
14.03.2016 00:25 2,8 C 96 % 1029,5 hPa 0,0 l/m 8,3 km/h (2 Bft) O-NO 70 0 min 0,000 mm 0,0 UV-I 0 W/m 2,2 C 1,0 C 12,9 km/h (3 Bft) 100,00 %
14.03.2016 00:26 2,8 C 96 % 1029,5 hPa 0,0 l/m 7,0 km/h (2 Bft) O 79 0 min 0,000 mm 0,0 UV-I 0 W/m 2,2 C 2,2 C 11,3 km/h (2 Bft) 95,65 %
14.03.2016 00:27 2,8 C 95 % 1029,6 hPa 0,0 l/m 6,2 km/h (2 Bft) NO 45 0 min 0,000 mm 0,0 UV-I 0 W/m 2,1 C 2,8 C 8,0 km/h (2 Bft) 100,00 %
14.03.2016 00:28 2,8 C 95 % 1029,5 hPa 0,0 l/m 8,7 km/h (2 Bft) O-NO 69 0 min 0,000 mm 0,0 UV-I 0 W/m 2,1 C 0,7 C 11,3 km/h (2 Bft) 100,00 %
14.03.2016 00:29 2,8 C 95 % 1029,6 hPa 0,0 l/m 7,0 km/h (2 Bft) NO 46 0 min 0,000 mm 0,0 UV-I 0 W/m 2,1 C 2,2 C 8,0 km/h (2 Bft) 100,00 %
14.03.2016 00:30 2,8 C 95 % 1029,6 hPa 0,0 l/m 7,2 km/h (2 Bft) NO 55 0 min 0,000 mm 0,0 UV-I 0 W/m 2,1 C 2,0 C 9,7 km/h (2 Bft) 100,00 %
14.03.2016 00:31 2,8 C 95 % 1029,6 hPa 0,0 l/m 7,1 km/h (2 Bft) O-NO 67 0 min 0,000 mm 0,0 UV-I 0 W/m 2,1 C 2,1 C 11,3 km/h (2 Bft) 100,00 %
14.03.2016 00:32 2,8 C 95 % 1029,5 hPa 0,0 l/m 8,0 km/h (2 Bft) NO 53 0 min 0,000 mm 0,0 UV-I 0 W/m 2,1 C 1,3 C 9,7 km/h (2 Bft) 100,00 %
14.03.2016 00:33 2,8 C 95 % 1029,6 hPa 0,0 l/m 6,5 km/h (2 Bft) O-NO 59 0 min 0,000 mm 0,0 UV-I 0 W/m 2,1 C 2,7 C 11,3 km/h (2 Bft) 100,00 %
14.03.2016 00:34 2,8 C 95 % 1029,6 hPa 0,0 l/m 7,7 km/h (2 Bft) O-NO 57 0 min 0,000 mm 0,0 UV-I 0 W/m 2,1 C 1,6 C 12,9 km/h (3 Bft) 100,00 %
14.03.2016 00:35 2,8 C 95 % 1029,6 hPa 0,0 l/m 7,8 km/h (2 Bft) NO 44 0 min 0,000 mm 0,0 UV-I 0 W/m 2,1 C 1,5 C 11,3 km/h (2 Bft) 100,00 %
14.03.2016 00:36 2,8 C 95 % 1029,6 hPa 0,0 l/m 7,0 km/h (2 Bft) O-NO 62 0 min 0,000 mm 0,0 UV-I 0 W/m 2,1 C 2,2 C 8,0 km/h (2 Bft) 96,55 %
14.03.2016 00:37 2,8 C 95 % 1029,6 hPa 0,0 l/m 5,1 km/h (1 Bft) O-NO 59 0 min 0,000 mm 0,0 UV-I 0 W/m 2,1 C 2,8 C 8,0 km/h (2 Bft) 100,00 %
14.03.2016 00:38 2,8 C 95 % 1029,6 hPa 0,0 l/m 5,6 km/h (1 Bft) NO 53 0 min 0,000 mm 0,0 UV-I 0 W/m 2,1 C 2,8 C 8,0 km/h (2 Bft) 96,30 %
14.03.2016 00:39 2,7 C 95 % 1029,6 hPa 0,0 l/m 7,1 km/h (2 Bft) O-NO 61 0 min 0,000 mm 0,0 UV-I 0 W/m 2,0 C 2,0 C 9,7 km/h (2 Bft) 100,00 %
14.03.2016 00:40 2,8 C 95 % 1029,6 hPa 0,0 l/m 5,9 km/h (2 Bft) O-NO 59 0 min 0,000 mm 0,0 UV-I 0 W/m 2,1 C 2,8 C 8,0 km/h (2 Bft) 100,00 %
14.03.2016 00:41 2,8 C 95 % 1029,6 hPa 0,0 l/m 5,3 km/h (1 Bft) NO 53 0 min 0,000 mm 0,0 UV-I 0 W/m 2,1 C 2,8 C 8,0 km/h (2 Bft) 100,00 %
14.03.2016 00:42 2,8 C 95 % 1029,6 hPa 0,0 l/m 7,5 km/h (2 Bft) O-NO 59 0 min 0,000 mm 0,0 UV-I 0 W/m 2,1 C 1,8 C 9,7 km/h (2 Bft) 100,00 %
14.03.2016 00:43 2,8 C 95 % 1029,6 hPa 0,0 l/m 7,3 km/h (2 Bft) O-NO 62 0 min 0,000 mm 0,0 UV-I 0 W/m 2,1 C 1,9 C 9,7 km/h (2 Bft) 100,00 %
14.03.2016 00:44 2,7 C 95 % 1029,6 hPa 0,0 l/m 6,2 km/h (2 Bft) O-NO 59 0 min 0,000 mm 0,0 UV-I 0 W/m 2,0 C 2,7 C 8,0 km/h (2 Bft) 100,00 %
14.03.2016 00:45 2,8 C 95 % 1029,6 hPa 0,0 l/m 8,2 km/h (2 Bft) NO 51 0 min 0,000 mm 0,0 UV-I 0 W/m 2,1 C 1,1 C 12,9 km/h (3 Bft) 100,00 %
14.03.2016 00:46 2,8 C 96 % 1029,6 hPa 0,0 l/m 7,8 km/h (2 Bft) O-NO 57 0 min 0,000 mm 0,0 UV-I 0 W/m 2,2 C 1,5 C 9,7 km/h (2 Bft) 100,00 %
14.03.2016 00:47 2,8 C 96 % 1029,6 hPa 0,0 l/m 5,4 km/h (1 Bft) O-NO 60 0 min 0,000 mm 0,0 UV-I 0 W/m 2,2 C 2,8 C 8,0 km/h (2 Bft) 100,00 %
14.03.2016 00:48 2,8 C 96 % 1029,6 hPa 0,0 l/m 6,6 km/h (2 Bft) O-NO 59 0 min 0,000 mm 0,0 UV-I 0 W/m 2,2 C 2,6 C 9,7 km/h (2 Bft) 100,00 %
14.03.2016 00:49 2,8 C 96 % 1029,6 hPa 0,0 l/m 5,7 km/h (1 Bft) O-NO 59 0 min 0,000 mm 0,0 UV-I 0 W/m 2,2 C 2,8 C 6,4 km/h (2 Bft) 100,00 %
14.03.2016 00:50 2,7 C 96 % 1029,6 hPa 0,0 l/m 5,1 km/h (1 Bft) NO 55 0 min 0,000 mm 0,0 UV-I 0 W/m 2,1 C 2,7 C 6,4 km/h (2 Bft) 100,00 %
14.03.2016 00:51 2,8 C 96 % 1029,6 hPa 0,0 l/m 5,2 km/h (1 Bft) NO 45 0 min 0,000 mm 0,0 UV-I 0 W/m 2,2 C 2,8 C 6,4 km/h (2 Bft) 100,00 %
14.03.2016 00:52 2,8 C 96 % 1029,6 hPa 0,0 l/m 6,4 km/h (2 Bft) NO 55 0 min 0,000 mm 0,0 UV-I 0 W/m 2,2 C 2,8 C 9,7 km/h (2 Bft) 100,00 %
14.03.2016 00:53 2,7 C 96 % 1029,6 hPa 0,0 l/m 5,7 km/h (1 Bft) O-NO 58 0 min 0,000 mm 0,0 UV-I 0 W/m 2,1 C 2,7 C 8,0 km/h (2 Bft) 100,00 %
14.03.2016 00:54 2,7 C 96 % 1029,6 hPa 0,0 l/m 6,0 km/h (2 Bft) O-NO 57 0 min 0,000 mm 0,0 UV-I 0 W/m 2,1 C 2,7 C 9,7 km/h (2 Bft) 100,00 %
14.03.2016 00:55 2,7 C 96 % 1029,7 hPa 0,0 l/m 6,8 km/h (2 Bft) NO 55 0 min 0,000 mm 0,0 UV-I 0 W/m 2,1 C 2,3 C 8,0 km/h (2 Bft) 100,00 %
14.03.2016 00:56 2,7 C 96 % 1029,7 hPa 0,0 l/m 6,5 km/h (2 Bft) O-NO 57 0 min 0,000 mm 0,0 UV-I 0 W/m 2,1 C 2,6 C 8,0 km/h (2 Bft) 100,00 %
14.03.2016 00:57 2,7 C 96 % 1029,7 hPa 0,0 l/m 6,3 km/h (2 Bft) O-NO 60 0 min 0,000 mm 0,0 UV-I 0 W/m 2,1 C 2,7 C 9,7 km/h (2 Bft) 100,00 %
14.03.2016 00:58 2,7 C 96 % 1029,7 hPa 0,0 l/m 4,8 km/h (1 Bft) O-NO 59 0 min 0,000 mm 0,0 UV-I 0 W/m 2,1 C 2,7 C 6,4 km/h (2 Bft) 100,00 %
14.03.2016 00:59 2,7 C 96 % 1029,7 hPa 0,0 l/m 4,8 km/h (1 Bft) O-NO 59 0 min 0,000 mm 0,0 UV-I 0 W/m 2,1 C 2,7 C 8,0 km/h (2 Bft) 100,00 %
14.03.2016 01:00 2,7 C 96 % 1029,7 hPa 0,0 l/m 7,1 km/h (2 Bft) NO 55 0 min 0,000 mm 0,0 UV-I 0 W/m 2,1 C 2,0 C 8,0 km/h (2 Bft) 100,00 %
14.03.2016 01:01 2,7 C 96 % 1029,6 hPa 0,0 l/m 5,5 km/h (1 Bft) O-NO 67 0 min 0,000 mm 0,0 UV-I 0 W/m 2,1 C 2,7 C 8,0 km/h (2 Bft) 100,00 %
14.03.2016 01:02 2,7 C 96 % 1029,6 hPa 0,0 l/m 6,2 km/h (2 Bft) O-NO 63 0 min 0,000 mm 0,0 UV-I 0 W/m 2,1 C 2,7 C 8,0 km/h (2 Bft) 100,00 %
14.03.2016 01:03 2,7 C 96 % 1029,6 hPa 0,0 l/m 6,6 km/h (2 Bft) O-NO 61 0 min 0,000 mm 0,0 UV-I 0 W/m 2,1 C 2,5 C 8,0 km/h (2 Bft) 100,00 %
14.03.2016 01:04 2,7 C 96 % 1029,6 hPa 0,0 l/m 6,8 km/h (2 Bft) O-NO 66 0 min 0,000 mm 0,0 UV-I 0 W/m 2,1 C 2,3 C 9,7 km/h (2 Bft) 91,30 %
14.03.2016 01:05 2,7 C 96 % 1029,6 hPa 0,0 l/m 6,7 km/h (2 Bft) NO 56 0 min 0,000 mm 0,0 UV-I 0 W/m 2,1 C 2,4 C 8,0 km/h (2 Bft) 100,00 %
14.03.2016 01:06 2,7 C 96 % 1029,6 hPa 0,0 l/m 4,2 km/h (1 Bft) NO 54 0 min 0,000 mm 0,0 UV-I 0 W/m 2,1 C 2,7 C 4,8 km/h (1 Bft) 92,86 %
14.03.2016 01:07 2,7 C 96 % 1029,6 hPa 0,0 l/m 5,6 km/h (1 Bft) NO 49 0 min 0,000 mm 0,0 UV-I 0 W/m 2,1 C 2,7 C 8,0 km/h (2 Bft) 100,00 %
14.03.2016 01:08 2,7 C 96 % 1029,6 hPa 0,0 l/m 4,4 km/h (1 Bft) NO 49 0 min 0,000 mm 0,0 UV-I 0 W/m 2,1 C 2,7 C 8,0 km/h (2 Bft) 100,00 %
14.03.2016 01:09 2,7 C 96 % 1029,6 hPa 0,0 l/m 6,4 km/h (2 Bft) NO 44 0 min 0,000 mm 0,0 UV-I 0 W/m 2,1 C 2,7 C 8,0 km/h (2 Bft) 100,00 %
14.03.2016 01:10 2,7 C 96 % 1029,6 hPa 0,0 l/m 6,2 km/h (2 Bft) NO 49 0 min 0,000 mm 0,0 UV-I 0 W/m 2,1 C 2,7 C 8,0 km/h (2 Bft) 100,00 %
14.03.2016 01:11 2,7 C 96 % 1029,6 hPa 0,0 l/m 5,7 km/h (1 Bft) O-NO 76 0 min 0,000 mm 0,0 UV-I 0 W/m 2,1 C 2,7 C 8,0 km/h (2 Bft) 100,00 %
14.03.2016 01:12 2,7 C 96 % 1029,6 hPa 0,0 l/m 5,9 km/h (2 Bft) O-NO 61 0 min 0,000 mm 0,0 UV-I 0 W/m 2,1 C 2,7 C 8,0 km/h (2 Bft) 100,00 %
14.03.2016 01:13 2,7 C 96 % 1029,6 hPa 0,0 l/m 4,7 km/h (1 Bft) N-NO 31 0 min 0,000 mm 0,0 UV-I 0 W/m 2,1 C 2,7 C 6,4 km/h (2 Bft) 100,00 %
14.03.2016 01:14 2,7 C 96 % 1029,6 hPa 0,0 l/m 5,6 km/h (1 Bft) O-NO 62 0 min 0,000 mm 0,0 UV-I 0 W/m 2,1 C 2,7 C 8,0 km/h (2 Bft) 100,00 %
14.03.2016 01:15 2,7 C 96 % 1029,6 hPa 0,0 l/m 6,1 km/h (2 Bft) NO 51 0 min 0,000 mm 0,0 UV-I 0 W/m 2,1 C 2,7 C 8,0 km/h (2 Bft) 100,00 %
14.03.2016 01:16 2,7 C 96 % 1029,6 hPa 0,0 l/m 6,2 km/h (2 Bft) O-NO 59 0 min 0,000 mm 0,0 UV-I 0 W/m 2,1 C 2,7 C 8,0 km/h (2 Bft) 100,00 %
14.03.2016 01:17 2,7 C 96 % 1029,6 hPa 0,0 l/m 6,1 km/h (2 Bft) O 86 0 min 0,000 mm 0,0 UV-I 0 W/m 2,1 C 2,7 C 8,0 km/h (2 Bft) 100,00 %
14.03.2016 01:18 2,7 C 96 % 1029,6 hPa 0,0 l/m 8,0 km/h (2 Bft) NO 51 0 min 0,000 mm 0,0 UV-I 0 W/m 2,1 C 1,2 C 12,9 km/h (3 Bft) 100,00 %
14.03.2016 01:19 2,7 C 95 % 1029,6 hPa 0,0 l/m 6,7 km/h (2 Bft) NO 49 0 min 0,000 mm 0,0 UV-I 0 W/m 2,0 C 2,4 C 8,0 km/h (2 Bft) 100,00 %
14.03.2016 01:20 2,7 C 95 % 1029,7 hPa 0,0 l/m 8,3 km/h (2 Bft) NO 46 0 min 0,000 mm 0,0 UV-I 0 W/m 2,0 C 0,9 C 11,3 km/h (2 Bft) 96,15 %
14.03.2016 01:21 2,7 C 95 % 1029,7 hPa 0,0 l/m 6,7 km/h (2 Bft) NO 56 0 min 0,000 mm 0,0 UV-I 0 W/m 2,0 C 2,4 C 9,7 km/h (2 Bft) 100,00 %
14.03.2016 01:22 2,7 C 95 % 1029,7 hPa 0,0 l/m 6,4 km/h (2 Bft) NO 41 0 min 0,000 mm 0,0 UV-I 0 W/m 2,0 C 2,7 C 8,0 km/h (2 Bft) 100,00 %
14.03.2016 01:23 2,7 C 95 % 1029,7 hPa 0,0 l/m 8,3 km/h (2 Bft) NO 49 0 min 0,000 mm 0,0 UV-I 0 W/m 2,0 C 0,9 C 14,5 km/h (3 Bft) 91,30 %
14.03.2016 01:24 2,7 C 95 % 1029,7 hPa 0,0 l/m 7,7 km/h (2 Bft) NO 47 0 min 0,000 mm 0,0 UV-I 0 W/m 2,0 C 1,5 C 9,7 km/h (2 Bft) 100,00 %
14.03.2016 01:25 2,7 C 95 % 1029,7 hPa 0,0 l/m 5,9 km/h (2 Bft) O-NO 61 0 min 0,000 mm 0,0 UV-I 0 W/m 2,0 C 2,7 C 8,0 km/h (2 Bft) 100,00 %
14.03.2016 01:26 2,7 C 95 % 1029,7 hPa 0,0 l/m 5,2 km/h (1 Bft) O-NO 61 0 min 0,000 mm 0,0 UV-I 0 W/m 2,0 C 2,7 C 6,4 km/h (2 Bft) 91,67 %
14.03.2016 01:27 2,7 C 95 % 1029,7 hPa 0,0 l/m 6,7 km/h (2 Bft) O-NO 59 0 min 0,000 mm 0,0 UV-I 0 W/m 2,0 C 2,4 C 9,7 km/h (2 Bft) 100,00 %
14.03.2016 01:28 2,7 C 95 % 1029,7 hPa 0,0 l/m 6,4 km/h (2 Bft) NO 54 0 min 0,000 mm 0,0 UV-I 0 W/m 2,0 C 2,7 C 11,3 km/h (2 Bft) 100,00 %
14.03.2016 01:29 2,7 C 95 % 1029,7 hPa 0,0 l/m 6,5 km/h (2 Bft) NO 47 0 min 0,000 mm 0,0 UV-I 0 W/m 2,0 C 2,6 C 9,7 km/h (2 Bft) 100,00 %
14.03.2016 01:30 2,7 C 95 % 1029,7 hPa 0,0 l/m 5,6 km/h (1 Bft) O-NO 61 0 min 0,000 mm 0,0 UV-I 0 W/m 2,0 C 2,7 C 8,0 km/h (2 Bft) 100,00 %
14.03.2016 01:31 2,7 C 95 % 1029,8 hPa 0,0 l/m 5,4 km/h (1 Bft) NO 42 0 min 0,000 mm 0,0 UV-I 0 W/m 2,0 C 2,7 C 8,0 km/h (2 Bft) 100,00 %
14.03.2016 01:32 2,7 C 95 % 1029,8 hPa 0,0 l/m 7,4 km/h (2 Bft) O-NO 70 0 min 0,000 mm 0,0 UV-I 0 W/m 2,0 C 1,7 C 9,7 km/h (2 Bft) 100,00 %
14.03.2016 01:33 2,7 C 95 % 1029,7 hPa 0,0 l/m 6,6 km/h (2 Bft) O-NO 63 0 min 0,000 mm 0,0 UV-I 0 W/m 2,0 C 2,5 C 8,0 km/h (2 Bft) 100,00 %
14.03.2016 01:34 2,7 C 95 % 1029,7 hPa 0,0 l/m 5,4 km/h (1 Bft) NO 55 0 min 0,000 mm 0,0 UV-I 0 W/m 2,0 C 2,7 C 6,4 km/h (2 Bft) 100,00 %
14.03.2016 01:35 2,7 C 95 % 1029,7 hPa 0,0 l/m 9,1 km/h (2 Bft) O-NO 59 0 min 0,000 mm 0,0 UV-I 0 W/m 2,0 C 0,2 C 11,3 km/h (2 Bft) 100,00 %
14.03.2016 01:36 2,7 C 95 % 1029,7 hPa 0,0 l/m 7,7 km/h (2 Bft) NO 38 0 min 0,000 mm 0,0 UV-I 0 W/m 2,0 C 1,5 C 11,3 km/h (2 Bft) 100,00 %
14.03.2016 01:37 2,7 C 95 % 1029,7 hPa 0,0 l/m 8,3 km/h (2 Bft) NO 44 0 min 0,000 mm 0,0 UV-I 0 W/m 2,0 C 0,9 C 11,3 km/h (2 Bft) 100,00 %
14.03.2016 01:38 2,7 C 95 % 1029,7 hPa 0,0 l/m 7,0 km/h (2 Bft) N-NO 26 0 min 0,000 mm 0,0 UV-I 0 W/m 2,0 C 2,1 C 9,7 km/h (2 Bft) 100,00 %
14.03.2016 01:39 2,7 C 95 % 1029,7 hPa 0,0 l/m 8,2 km/h (2 Bft) N-NO 30 0 min 0,000 mm 0,0 UV-I 0 W/m 2,0 C 1,0 C 11,3 km/h (2 Bft) 100,00 %
14.03.2016 01:40 2,7 C 95 % 1029,7 hPa 0,0 l/m 5,4 km/h (1 Bft) O-NO 60 0 min 0,000 mm 0,0 UV-I 0 W/m 2,0 C 2,7 C 8,0 km/h (2 Bft) 100,00 %
14.03.2016 01:41 2,7 C 95 % 1029,7 hPa 0,0 l/m 5,8 km/h (2 Bft) N-NO 29 0 min 0,000 mm 0,0 UV-I 0 W/m 2,0 C 2,7 C 6,4 km/h (2 Bft) 95,83 %
14.03.2016 01:42 2,7 C 95 % 1029,6 hPa 0,0 l/m 6,6 km/h (2 Bft) N-NO 32 0 min 0,000 mm 0,0 UV-I 0 W/m 2,0 C 2,5 C 9,7 km/h (2 Bft) 100,00 %
14.03.2016 01:43 2,7 C 95 % 1029,6 hPa 0,0 l/m 8,0 km/h (2 Bft) O-NO 61 0 min 0,000 mm 0,0 UV-I 0 W/m 2,0 C 1,2 C 11,3 km/h (2 Bft) 92,31 %
14.03.2016 01:44 2,7 C 95 % 1029,6 hPa 0,0 l/m 8,9 km/h (2 Bft) NO 43 0 min 0,000 mm 0,0 UV-I 0 W/m 2,0 C 0,4 C 12,9 km/h (3 Bft) 100,00 %
14.03.2016 01:45 2,7 C 95 % 1029,6 hPa 0,0 l/m 8,6 km/h (2 Bft) NO 38 0 min 0,000 mm 0,0 UV-I 0 W/m 2,0 C 0,7 C 12,9 km/h (3 Bft) 96,67 %
14.03.2016 01:46 2,7 C 94 % 1029,6 hPa 0,0 l/m 7,6 km/h (2 Bft) N-NO 18 0 min 0,000 mm 0,0 UV-I 0 W/m 1,8 C 1,6 C 9,7 km/h (2 Bft) 96,55 %
14.03.2016 01:47 2,7 C 94 % 1029,6 hPa 0,0 l/m 9,9 km/h (2 Bft) NO 38 0 min 0,000 mm 0,0 UV-I 0 W/m 1,8 C -0,4 C 14,5 km/h (3 Bft) 100,00 %
14.03.2016 01:48 2,7 C 94 % 1029,6 hPa 0,0 l/m 8,4 km/h (2 Bft) NO 40 0 min 0,000 mm 0,0 UV-I 0 W/m 1,8 C 0,8 C 11,3 km/h (2 Bft) 96,15 %
14.03.2016 01:49 2,7 C 94 % 1029,6 hPa 0,0 l/m 7,9 km/h (2 Bft) NO 46 0 min 0,000 mm 0,0 UV-I 0 W/m 1,8 C 1,3 C 12,9 km/h (3 Bft) 96,30 %
14.03.2016 01:50 2,7 C 94 % 1029,6 hPa 0,0 l/m 6,9 km/h (2 Bft) NO 34 0 min 0,000 mm 0,0 UV-I 0 W/m 1,8 C 2,2 C 9,7 km/h (2 Bft) 95,65 %
14.03.2016 01:51 2,7 C 94 % 1029,6 hPa 0,0 l/m 6,3 km/h (2 Bft) O-NO 57 0 min 0,000 mm 0,0 UV-I 0 W/m 1,8 C 2,7 C 8,0 km/h (2 Bft) 100,00 %
14.03.2016 01:52 2,7 C 94 % 1029,6 hPa 0,0 l/m 8,2 km/h (2 Bft) O-NO 74 0 min 0,000 mm 0,0 UV-I 0 W/m 1,8 C 1,0 C 11,3 km/h (2 Bft) 95,65 %
14.03.2016 01:53 2,7 C 94 % 1029,6 hPa 0,0 l/m 10,7 km/h (2 Bft) NO 54 0 min 0,000 mm 0,0 UV-I 0 W/m 1,8 C -1,0 C 16,1 km/h (3 Bft) 100,00 %
14.03.2016 01:54 2,7 C 94 % 1029,6 hPa 0,0 l/m 8,6 km/h (2 Bft) N-NO 29 0 min 0,000 mm 0,0 UV-I 0 W/m 1,8 C 0,7 C 12,9 km/h (3 Bft) 96,15 %
14.03.2016 01:55 2,7 C 94 % 1029,6 hPa 0,0 l/m 10,8 km/h (2 Bft) NO 44 0 min 0,000 mm 0,0 UV-I 0 W/m 1,8 C -1,1 C 14,5 km/h (3 Bft) 100,00 %
14.03.2016 01:56 2,7 C 93 % 1029,6 hPa 0,0 l/m 9,2 km/h (2 Bft) NO 46 0 min 0,000 mm 0,0 UV-I 0 W/m 1,7 C 0,2 C 12,9 km/h (3 Bft) 92,31 %
14.03.2016 01:57 2,7 C 93 % 1029,6 hPa 0,0 l/m 8,8 km/h (2 Bft) N-NO 22 0 min 0,000 mm 0,0 UV-I 0 W/m 1,7 C 0,5 C 14,5 km/h (3 Bft) 95,83 %
14.03.2016 01:58 2,7 C 93 % 1029,6 hPa 0,0 l/m 13,1 km/h (3 Bft) NO 51 0 min 0,000 mm 0,0 UV-I 0 W/m 1,7 C -2,6 C 14,5 km/h (3 Bft) 98,72 %
14.03.2016 01:59 2,7 C 93 % 1029,6 hPa 0,0 l/m 9,2 km/h (2 Bft) N-NO 30 0 min 0,000 mm 0,0 UV-I 0 W/m 1,7 C 0,2 C 14,5 km/h (3 Bft) 97,87 %
14.03.2016 02:00 2,7 C 93 % 1029,6 hPa 0,0 l/m 11,4 km/h (2 Bft) N-NO 28 0 min 0,000 mm 0,0 UV-I 0 W/m 1,7 C -1,5 C 14,5 km/h (3 Bft) 100,00 %
14.03.2016 02:01 2,7 C 92 % 1029,6 hPa 0,0 l/m 10,3 km/h (2 Bft) O-NO 64 0 min 0,000 mm 0,0 UV-I 0 W/m 1,5 C -0,7 C 14,5 km/h (3 Bft) 96,15 %
14.03.2016 02:02 2,7 C 92 % 1029,6 hPa 0,0 l/m 11,1 km/h (2 Bft) NO 47 0 min 0,000 mm 0,0 UV-I 0 W/m 1,5 C -1,3 C 14,5 km/h (3 Bft) 100,00 %
14.03.2016 02:03 2,7 C 92 % 1029,6 hPa 0,0 l/m 9,0 km/h (2 Bft) O-NO 59 0 min 0,000 mm 0,0 UV-I 0 W/m 1,5 C 0,3 C 12,9 km/h (3 Bft) 92,31 %
14.03.2016 02:04 2,7 C 91 % 1029,6 hPa 0,0 l/m 7,7 km/h (2 Bft) N-NO 31 0 min 0,000 mm 0,0 UV-I 0 W/m 1,4 C 1,5 C 9,7 km/h (2 Bft) 100,00 %
14.03.2016 02:05 2,7 C 91 % 1029,6 hPa 0,0 l/m 11,2 km/h (2 Bft) O-NO 65 0 min 0,000 mm 0,0 UV-I 0 W/m 1,4 C -1,3 C 14,5 km/h (3 Bft) 96,15 %
14.03.2016 02:06 2,7 C 91 % 1029,6 hPa 0,0 l/m 8,3 km/h (2 Bft) NO 53 0 min 0,000 mm 0,0 UV-I 0 W/m 1,4 C 0,9 C 11,3 km/h (2 Bft) 100,00 %
14.03.2016 02:07 2,7 C 90 % 1029,6 hPa 0,0 l/m 8,9 km/h (2 Bft) O-NO 67 0 min 0,000 mm 0,0 UV-I 0 W/m 1,2 C 0,4 C 11,3 km/h (2 Bft) 100,00 %
14.03.2016 02:08 2,7 C 90 % 1029,6 hPa 0,0 l/m 9,0 km/h (2 Bft) NO 46 0 min 0,000 mm 0,0 UV-I 0 W/m 1,2 C 0,3 C 11,3 km/h (2 Bft) 95,83 %
14.03.2016 02:09 2,7 C 90 % 1029,6 hPa 0,0 l/m 8,7 km/h (2 Bft) O-NO 58 0 min 0,000 mm 0,0 UV-I 0 W/m 1,2 C 0,6 C 12,9 km/h (3 Bft) 100,00 %
14.03.2016 02:10 2,7 C 90 % 1029,6 hPa 0,0 l/m 6,7 km/h (2 Bft) O-NO 57 0 min 0,000 mm 0,0 UV-I 0 W/m 1,2 C 2,4 C 11,3 km/h (2 Bft) 93,33 %
14.03.2016 02:11 2,7 C 90 % 1029,6 hPa 0,0 l/m 8,3 km/h (2 Bft) NO 43 0 min 0,000 mm 0,0 UV-I 0 W/m 1,2 C 0,9 C 14,5 km/h (3 Bft) 97,56 %
14.03.2016 02:12 2,7 C 90 % 1029,5 hPa 0,0 l/m 15,0 km/h (3 Bft) O-NO 59 0 min 0,000 mm 0,0 UV-I 0 W/m 1,2 C -3,7 C 19,3 km/h (3 Bft) 91,67 %
14.03.2016 02:13 2,7 C 89 % 1029,6 hPa 0,0 l/m 12,1 km/h (2 Bft) N-NO 28 0 min 0,000 mm 0,0 UV-I 0 W/m 1,1 C -2,0 C 17,7 km/h (3 Bft) 93,75 %
14.03.2016 02:14 2,7 C 89 % 1029,6 hPa 0,0 l/m 11,0 km/h (2 Bft) NO 55 0 min 0,000 mm 0,0 UV-I 0 W/m 1,1 C -1,2 C 16,1 km/h (3 Bft) 100,00 %
14.03.2016 02:15 2,7 C 89 % 1029,6 hPa 0,0 l/m 10,1 km/h (2 Bft) NO 47 0 min 0,000 mm 0,0 UV-I 0 W/m 1,1 C -0,5 C 14,5 km/h (3 Bft) 100,00 %
14.03.2016 02:16 2,7 C 89 % 1029,5 hPa 0,0 l/m 7,9 km/h (2 Bft) O-NO 62 0 min 0,000 mm 0,0 UV-I 0 W/m 1,1 C 1,3 C 14,5 km/h (3 Bft) 100,00 %
14.03.2016 02:17 2,7 C 90 % 1029,5 hPa 0,0 l/m 8,1 km/h (2 Bft) O-NO 58 0 min 0,000 mm 0,0 UV-I 0 W/m 1,2 C 1,1 C 12,9 km/h (3 Bft) 96,15 %
14.03.2016 02:18 2,7 C 90 % 1029,5 hPa 0,0 l/m 9,0 km/h (2 Bft) O-NO 57 0 min 0,000 mm 0,0 UV-I 0 W/m 1,2 C 0,3 C 12,9 km/h (3 Bft) 100,00 %
14.03.2016 02:19 2,7 C 89 % 1029,5 hPa 0,0 l/m 15,6 km/h (3 Bft) NO 49 0 min 0,000 mm 0,0 UV-I 0 W/m 1,1 C -4,0 C 20,9 km/h (4 Bft) 87,50 %
14.03.2016 02:20 2,7 C 89 % 1029,5 hPa 0,0 l/m 14,2 km/h (3 Bft) N-NO 13 0 min 0,000 mm 0,0 UV-I 0 W/m 1,1 C -3,3 C 17,7 km/h (3 Bft) 100,00 %
14.03.2016 02:21 2,7 C 89 % 1029,5 hPa 0,0 l/m 12,1 km/h (2 Bft) O-NO 59 0 min 0,000 mm 0,0 UV-I 0 W/m 1,1 C -2,0 C 16,1 km/h (3 Bft) 93,33 %
14.03.2016 02:22 2,7 C 88 % 1029,5 hPa 0,0 l/m 11,1 km/h (2 Bft) O-NO 64 0 min 0,000 mm 0,0 UV-I 0 W/m 0,9 C -1,3 C 14,5 km/h (3 Bft) 100,00 %
14.03.2016 02:23 2,7 C 88 % 1029,5 hPa 0,0 l/m 10,6 km/h (2 Bft) NO 55 0 min 0,000 mm 0,0 UV-I 0 W/m 0,9 C -0,9 C 14,5 km/h (3 Bft) 100,00 %
14.03.2016 02:24 2,7 C 88 % 1029,5 hPa 0,0 l/m 9,8 km/h (2 Bft) N-NO 32 0 min 0,000 mm 0,0 UV-I 0 W/m 0,9 C -0,3 C 16,1 km/h (3 Bft) 96,55 %
14.03.2016 02:25 2,7 C 88 % 1029,5 hPa 0,0 l/m 7,0 km/h (2 Bft) O-NO 59 0 min 0,000 mm 0,0 UV-I 0 W/m 0,9 C 2,1 C 9,7 km/h (2 Bft) 100,00 %
14.03.2016 02:26 2,7 C 88 % 1029,5 hPa 0,0 l/m 13,3 km/h (3 Bft) NO 38 0 min 0,000 mm 0,0 UV-I 0 W/m 0,9 C -2,7 C 16,1 km/h (3 Bft) 96,15 %
14.03.2016 02:27 2,6 C 88 % 1029,5 hPa 0,0 l/m 9,7 km/h (2 Bft) NO 55 0 min 0,000 mm 0,0 UV-I 0 W/m 0,8 C -0,3 C 16,1 km/h (3 Bft) 100,00 %
14.03.2016 02:28 2,6 C 88 % 1029,5 hPa 0,0 l/m 10,5 km/h (2 Bft) O-NO 57 0 min 0,000 mm 0,0 UV-I 0 W/m 0,8 C -1,0 C 16,1 km/h (3 Bft) 100,00 %
14.03.2016 02:29 2,6 C 87 % 1029,6 hPa 0,0 l/m 11,9 km/h (2 Bft) NO 51 0 min 0,000 mm 0,0 UV-I 0 W/m 0,7 C -1,9 C 14,5 km/h (3 Bft) 100,00 %
14.03.2016 02:30 2,6 C 87 % 1029,5 hPa 0,0 l/m 10,5 km/h (2 Bft) NO 40 0 min 0,000 mm 0,0 UV-I 0 W/m 0,7 C -1,0 C 14,5 km/h (3 Bft) 96,55 %
14.03.2016 02:31 2,6 C 87 % 1029,5 hPa 0,0 l/m 9,4 km/h (2 Bft) O-NO 58 0 min 0,000 mm 0,0 UV-I 0 W/m 0,7 C -0,1 C 14,5 km/h (3 Bft) 92,59 %
14.03.2016 02:32 2,6 C 87 % 1029,5 hPa 0,0 l/m 8,9 km/h (2 Bft) NO 48 0 min 0,000 mm 0,0 UV-I 0 W/m 0,7 C 0,3 C 9,7 km/h (2 Bft) 100,00 %
14.03.2016 02:33 2,6 C 87 % 1029,5 hPa 0,0 l/m 8,0 km/h (2 Bft) NO 36 0 min 0,000 mm 0,0 UV-I 0 W/m 0,7 C 1,1 C 12,9 km/h (3 Bft) 100,00 %
14.03.2016 02:34 2,6 C 87 % 1029,4 hPa 0,0 l/m 10,8 km/h (2 Bft) NO 52 0 min 0,000 mm 0,0 UV-I 0 W/m 0,7 C -1,2 C 14,5 km/h (3 Bft) 100,00 %
14.03.2016 02:35 2,6 C 87 % 1029,5 hPa 0,0 l/m 9,4 km/h (2 Bft) O-NO 59 0 min 0,000 mm 0,0 UV-I 0 W/m 0,7 C -0,1 C 12,9 km/h (3 Bft) 100,00 %
14.03.2016 02:36 2,6 C 87 % 1029,4 hPa 0,0 l/m 10,2 km/h (2 Bft) NO 48 0 min 0,000 mm 0,0 UV-I 0 W/m 0,7 C -0,7 C 16,1 km/h (3 Bft) 100,00 %
14.03.2016 02:37 2,6 C 87 % 1029,5 hPa 0,0 l/m 11,3 km/h (2 Bft) NO 42 0 min 0,000 mm 0,0 UV-I 0 W/m 0,7 C -1,5 C 14,5 km/h (3 Bft) 100,00 %
14.03.2016 02:38 2,6 C 87 % 1029,5 hPa 0,0 l/m 10,1 km/h (2 Bft) NO 48 0 min 0,000 mm 0,0 UV-I 0 W/m 0,7 C -0,7 C 16,1 km/h (3 Bft) 100,00 %
14.03.2016 02:39 2,6 C 87 % 1029,5 hPa 0,0 l/m 11,8 km/h (2 Bft) O-NO 62 0 min 0,000 mm 0,0 UV-I 0 W/m 0,7 C -1,9 C 16,1 km/h (3 Bft) 100,00 %
14.03.2016 02:40 2,6 C 87 % 1029,4 hPa 0,0 l/m 9,4 km/h (2 Bft) NO 46 0 min 0,000 mm 0,0 UV-I 0 W/m 0,7 C -0,1 C 19,3 km/h (3 Bft) 100,00 %
14.03.2016 02:41 2,6 C 86 % 1029,4 hPa 0,0 l/m 17,3 km/h (3 Bft) O-NO 74 0 min 0,000 mm 0,0 UV-I 0 W/m 0,5 C -5,0 C 22,5 km/h (4 Bft) 100,00 %
14.03.2016 02:42 2,6 C 86 % 1029,4 hPa 0,0 l/m 12,5 km/h (3 Bft) NO 35 0 min 0,000 mm 0,0 UV-I 0 W/m 0,5 C -2,3 C 17,7 km/h (3 Bft) 100,00 %
14.03.2016 02:43 2,6 C 86 % 1029,4 hPa 0,0 l/m 13,4 km/h (3 Bft) O-NO 65 0 min 0,000 mm 0,0 UV-I 0 W/m 0,5 C -2,9 C 17,7 km/h (3 Bft) 100,00 %
14.03.2016 02:44 2,6 C 86 % 1029,4 hPa 0,0 l/m 12,8 km/h (3 Bft) NO 56 0 min 0,000 mm 0,0 UV-I 0 W/m 0,5 C -2,5 C 17,7 km/h (3 Bft) 91,67 %
14.03.2016 02:45 2,6 C 86 % 1029,4 hPa 0,0 l/m 11,3 km/h (2 Bft) O-NO 64 0 min 0,000 mm 0,0 UV-I 0 W/m 0,5 C -1,5 C 16,1 km/h (3 Bft) 92,86 %
14.03.2016 02:46 2,6 C 86 % 1029,4 hPa 0,0 l/m 9,5 km/h (2 Bft) O-NO 58 0 min 0,000 mm 0,0 UV-I 0 W/m 0,5 C -0,2 C 14,5 km/h (3 Bft) 100,00 %
14.03.2016 02:47 2,6 C 86 % 1029,4 hPa 0,0 l/m 10,1 km/h (2 Bft) O-NO 59 0 min 0,000 mm 0,0 UV-I 0 W/m 0,5 C -0,7 C 17,7 km/h (3 Bft) 96,15 %
14.03.2016 02:48 2,5 C 86 % 1029,4 hPa 0,0 l/m 14,9 km/h (3 Bft) NO 45 0 min 0,000 mm 0,0 UV-I 0 W/m 0,4 C -3,9 C 19,3 km/h (3 Bft) 98,47 %
14.03.2016 02:49 2,5 C 85 % 1029,4 hPa 0,0 l/m 14,2 km/h (3 Bft) O-NO 59 0 min 0,000 mm 0,0 UV-I 0 W/m 0,2 C -3,5 C 19,3 km/h (3 Bft) 100,00 %
14.03.2016 02:50 2,5 C 86 % 1029,4 hPa 0,0 l/m 14,0 km/h (3 Bft) O-NO 67 0 min 0,000 mm 0,0 UV-I 0 W/m 0,4 C -3,4 C 17,7 km/h (3 Bft) 96,30 %
14.03.2016 02:51 2,5 C 86 % 1029,3 hPa 0,0 l/m 12,0 km/h (2 Bft) NO 44 0 min 0,000 mm 0,0 UV-I 0 W/m 0,4 C -2,1 C 17,7 km/h (3 Bft) 100,00 %
14.03.2016 02:52 2,5 C 86 % 1029,3 hPa 0,0 l/m 12,4 km/h (3 Bft) O-NO 62 0 min 0,000 mm 0,0 UV-I 0 W/m 0,4 C -2,4 C 17,7 km/h (3 Bft) 100,00 %
14.03.2016 02:53 2,5 C 86 % 1029,3 hPa 0,0 l/m 12,0 km/h (2 Bft) O-NO 69 0 min 0,000 mm 0,0 UV-I 0 W/m 0,4 C -2,1 C 14,5 km/h (3 Bft) 100,00 %
14.03.2016 02:54 2,5 C 86 % 1029,3 hPa 0,0 l/m 11,8 km/h (2 Bft) N-NO 29 0 min 0,000 mm 0,0 UV-I 0 W/m 0,4 C -2,0 C 17,7 km/h (3 Bft) 100,00 %
14.03.2016 02:55 2,5 C 86 % 1029,3 hPa 0,0 l/m 20,9 km/h (4 Bft) NO 34 0 min 0,000 mm 0,0 UV-I 0 W/m 0,4 C -6,8 C 24,1 km/h (4 Bft) 100,00 %
14.03.2016 02:56 2,5 C 86 % 1029,3 hPa 0,0 l/m 15,3 km/h (3 Bft) O-NO 65 0 min 0,000 mm 0,0 UV-I 0 W/m 0,4 C -4,1 C 20,9 km/h (4 Bft) 100,00 %
14.03.2016 02:57 2,4 C 86 % 1029,2 hPa 0,0 l/m 16,2 km/h (3 Bft) NO 55 0 min 0,000 mm 0,0 UV-I 0 W/m 0,3 C -4,7 C 20,9 km/h (4 Bft) 100,00 %
14.03.2016 02:58 2,4 C 86 % 1029,2 hPa 0,0 l/m 14,4 km/h (3 Bft) N-NO 23 0 min 0,000 mm 0,0 UV-I 0 W/m 0,3 C -3,7 C 17,7 km/h (3 Bft) 100,00 %
14.03.2016 02:59 2,4 C 86 % 1029,2 hPa 0,0 l/m 18,6 km/h (3 Bft) O-NO 65 0 min 0,000 mm 0,0 UV-I 0 W/m 0,3 C -5,9 C 24,1 km/h (4 Bft) 100,00 %
14.03.2016 03:00 2,4 C 85 % 1029,2 hPa 0,0 l/m 16,4 km/h (3 Bft) NO 50 0 min 0,000 mm 0,0 UV-I 0 W/m 0,1 C -4,8 C 22,5 km/h (4 Bft) 96,15 %
14.03.2016 03:01 2,4 C 85 % 1029,2 hPa 0,0 l/m 14,2 km/h (3 Bft) NO 54 0 min 0,000 mm 0,0 UV-I 0 W/m 0,1 C -3,6 C 19,3 km/h (3 Bft) 92,59 %
14.03.2016 03:02 2,4 C 86 % 1029,2 hPa 0,0 l/m 13,9 km/h (3 Bft) NO 51 0 min 0,000 mm 0,0 UV-I 0 W/m 0,3 C -3,4 C 19,3 km/h (3 Bft) 100,00 %
14.03.2016 03:03 2,4 C 86 % 1029,2 hPa 0,0 l/m 16,9 km/h (3 Bft) NO 36 0 min 0,000 mm 0,0 UV-I 0 W/m 0,3 C -5,1 C 19,3 km/h (3 Bft) 96,30 %
14.03.2016 03:04 2,4 C 86 % 1029,2 hPa 0,0 l/m 11,6 km/h (2 Bft) O 82 0 min 0,000 mm 0,0 UV-I 0 W/m 0,3 C -2,0 C 16,1 km/h (3 Bft) 95,65 %
14.03.2016 03:05 2,4 C 86 % 1029,3 hPa 0,0 l/m 12,3 km/h (3 Bft) O-NO 69 0 min 0,000 mm 0,0 UV-I 0 W/m 0,3 C -2,4 C 17,7 km/h (3 Bft) 96,30 %
14.03.2016 03:06 2,4 C 86 % 1029,3 hPa 0,0 l/m 14,6 km/h (3 Bft) NO 56 0 min 0,000 mm 0,0 UV-I 0 W/m 0,3 C -3,8 C 20,9 km/h (4 Bft) 92,86 %
14.03.2016 03:07 2,4 C 86 % 1029,2 hPa 0,0 l/m 14,0 km/h (3 Bft) NO 53 0 min 0,000 mm 0,0 UV-I 0 W/m 0,3 C -3,5 C 20,9 km/h (4 Bft) 100,00 %
14.03.2016 03:08 2,4 C 86 % 1029,2 hPa 0,0 l/m 13,9 km/h (3 Bft) N-NO 32 0 min 0,000 mm 0,0 UV-I 0 W/m 0,3 C -3,4 C 17,7 km/h (3 Bft) 100,00 %
14.03.2016 03:09 2,4 C 85 % 1029,3 hPa 0,0 l/m 15,8 km/h (3 Bft) NO 46 0 min 0,000 mm 0,0 UV-I 0 W/m 0,1 C -4,5 C 20,9 km/h (4 Bft) 100,00 %
14.03.2016 03:10 2,4 C 85 % 1029,3 hPa 0,0 l/m 14,2 km/h (3 Bft) NO 46 0 min 0,000 mm 0,0 UV-I 0 W/m 0,1 C -3,6 C 19,3 km/h (3 Bft) 100,00 %
14.03.2016 03:11 2,4 C 85 % 1029,3 hPa 0,0 l/m 13,5 km/h (3 Bft) NO 42 0 min 0,000 mm 0,0 UV-I 0 W/m 0,1 C -3,2 C 16,1 km/h (3 Bft) 100,00 %
14.03.2016 03:12 2,4 C 86 % 1029,3 hPa 0,0 l/m 15,0 km/h (3 Bft) O-NO 67 0 min 0,000 mm 0,0 UV-I 0 W/m 0,3 C -4,1 C 19,3 km/h (3 Bft) 100,00 %
14.03.2016 03:13 2,4 C 86 % 1029,3 hPa 0,0 l/m 14,2 km/h (3 Bft) O-NO 65 0 min 0,000 mm 0,0 UV-I 0 W/m 0,3 C -3,6 C 19,3 km/h (3 Bft) 100,00 %
14.03.2016 03:14 2,4 C 86 % 1029,3 hPa 0,0 l/m 16,6 km/h (3 Bft) O-NO 57 0 min 0,000 mm 0,0 UV-I 0 W/m 0,3 C -4,9 C 20,9 km/h (4 Bft) 100,00 %
14.03.2016 03:15 2,4 C 86 % 1029,2 hPa 0,0 l/m 13,4 km/h (3 Bft) O-NO 57 0 min 0,000 mm 0,0 UV-I 0 W/m 0,3 C -3,1 C 17,7 km/h (3 Bft) 100,00 %
14.03.2016 03:16 2,4 C 86 % 1029,3 hPa 0,0 l/m 13,1 km/h (3 Bft) O-NO 57 0 min 0,000 mm 0,0 UV-I 0 W/m 0,3 C -3,0 C 17,7 km/h (3 Bft) 100,00 %
14.03.2016 03:17 2,4 C 86 % 1029,2 hPa 0,0 l/m 12,9 km/h (3 Bft) O-NO 67 0 min 0,000 mm 0,0 UV-I 0 W/m 0,3 C -2,8 C 17,7 km/h (3 Bft) 100,00 %
14.03.2016 03:18 2,4 C 86 % 1029,2 hPa 0,0 l/m 12,3 km/h (3 Bft) NO 48 0 min 0,000 mm 0,0 UV-I 0 W/m 0,3 C -2,4 C 16,1 km/h (3 Bft) 98,53 %
14.03.2016 03:19 2,3 C 86 % 1029,2 hPa 0,0 l/m 13,8 km/h (3 Bft) NO 55 0 min 0,000 mm 0,0 UV-I 0 W/m 0,2 C -3,5 C 19,3 km/h (3 Bft) 100,00 %
14.03.2016 03:20 2,4 C 86 % 1029,2 hPa 0,0 l/m 12,0 km/h (2 Bft) O-NO 59 0 min 0,000 mm 0,0 UV-I 0 W/m 0,3 C -2,2 C 17,7 km/h (3 Bft) 100,00 %
14.03.2016 03:21 2,3 C 86 % 1029,2 hPa 0,0 l/m 13,2 km/h (3 Bft) NO 51 0 min 0,000 mm 0,0 UV-I 0 W/m 0,2 C -3,1 C 16,1 km/h (3 Bft) 100,00 %
14.03.2016 03:22 2,3 C 87 % 1029,2 hPa 0,0 l/m 14,6 km/h (3 Bft) O-NO 58 0 min 0,000 mm 0,0 UV-I 0 W/m 0,4 C -4,0 C 17,7 km/h (3 Bft) 100,00 %
14.03.2016 03:23 2,3 C 87 % 1029,2 hPa 0,0 l/m 16,1 km/h (3 Bft) NO 42 0 min 0,000 mm 0,0 UV-I 0 W/m 0,4 C -4,8 C 20,9 km/h (4 Bft) 100,00 %
14.03.2016 03:24 2,3 C 87 % 1029,2 hPa 0,0 l/m 13,9 km/h (3 Bft) O-NO 63 0 min 0,000 mm 0,0 UV-I 0 W/m 0,4 C -3,6 C 16,1 km/h (3 Bft) 100,00 %
14.03.2016 03:25 2,3 C 87 % 1029,2 hPa 0,0 l/m 14,4 km/h (3 Bft) NO 53 0 min 0,000 mm 0,0 UV-I 0 W/m 0,4 C -3,9 C 19,3 km/h (3 Bft) 96,15 %
14.03.2016 03:26 2,3 C 86 % 1029,2 hPa 0,0 l/m 14,1 km/h (3 Bft) NO 47 0 min 0,000 mm 0,0 UV-I 0 W/m 0,2 C -3,7 C 19,3 km/h (3 Bft) 100,00 %
14.03.2016 03:27 2,3 C 86 % 1029,2 hPa 0,0 l/m 12,9 km/h (3 Bft) O-NO 60 0 min 0,000 mm 0,0 UV-I 0 W/m 0,2 C -2,9 C 17,7 km/h (3 Bft) 100,00 %
14.03.2016 03:28 2,3 C 86 % 1029,2 hPa 0,0 l/m 12,0 km/h (2 Bft) O-NO 66 0 min 0,000 mm 0,0 UV-I 0 W/m 0,2 C -2,4 C 17,7 km/h (3 Bft) 100,00 %
14.03.2016 03:29 2,3 C 86 % 1029,2 hPa 0,0 l/m 12,8 km/h (3 Bft) NO 49 0 min 0,000 mm 0,0 UV-I 0 W/m 0,2 C -2,9 C 16,1 km/h (3 Bft) 100,00 %
14.03.2016 03:30 2,3 C 86 % 1029,2 hPa 0,0 l/m 12,7 km/h (3 Bft) O-NO 63 0 min 0,000 mm 0,0 UV-I 0 W/m 0,2 C -2,8 C 17,7 km/h (3 Bft) 100,00 %
14.03.2016 03:31 2,3 C 86 % 1029,2 hPa 0,0 l/m 12,6 km/h (3 Bft) O-NO 61 0 min 0,000 mm 0,0 UV-I 0 W/m 0,2 C -2,7 C 17,7 km/h (3 Bft) 100,00 %
14.03.2016 03:32 2,3 C 86 % 1029,2 hPa 0,0 l/m 10,9 km/h (2 Bft) O-NO 67 0 min 0,000 mm 0,0 UV-I 0 W/m 0,2 C -1,6 C 14,5 km/h (3 Bft) 100,00 %
14.03.2016 03:33 2,3 C 87 % 1029,2 hPa 0,0 l/m 11,1 km/h (2 Bft) NO 55 0 min 0,000 mm 0,0 UV-I 0 W/m 0,4 C -1,7 C 16,1 km/h (3 Bft) 100,00 %
14.03.2016 03:34 2,3 C 87 % 1029,2 hPa 0,0 l/m 12,8 km/h (3 Bft) O-NO 63 0 min 0,000 mm 0,0 UV-I 0 W/m 0,4 C -2,9 C 14,5 km/h (3 Bft) 100,00 %
14.03.2016 03:35 2,3 C 87 % 1029,2 hPa 0,0 l/m 10,9 km/h (2 Bft) NO 40 0 min 0,000 mm 0,0 UV-I 0 W/m 0,4 C -1,6 C 16,1 km/h (3 Bft) 100,00 %
14.03.2016 03:36 2,3 C 87 % 1029,2 hPa 0,0 l/m 13,3 km/h (3 Bft) O-NO 70 0 min 0,000 mm 0,0 UV-I 0 W/m 0,4 C -3,2 C 16,1 km/h (3 Bft) 100,00 %
14.03.2016 03:37 2,3 C 87 % 1029,1 hPa 0,0 l/m 10,5 km/h (2 Bft) O-NO 63 0 min 0,000 mm 0,0 UV-I 0 W/m 0,4 C -1,3 C 14,5 km/h (3 Bft) 100,00 %
14.03.2016 03:38 2,3 C 87 % 1029,1 hPa 0,0 l/m 10,4 km/h (2 Bft) NO 46 0 min 0,000 mm 0,0 UV-I 0 W/m 0,4 C -1,2 C 14,5 km/h (3 Bft) 100,00 %
14.03.2016 03:39 2,3 C 87 % 1029,1 hPa 0,0 l/m 10,0 km/h (2 Bft) O-NO 65 0 min 0,000 mm 0,0 UV-I 0 W/m 0,4 C -0,9 C 14,5 km/h (3 Bft) 100,00 %
14.03.2016 03:40 2,2 C 87 % 1029,1 hPa 0,0 l/m 12,2 km/h (2 Bft) O-NO 73 0 min 0,000 mm 0,0 UV-I 0 W/m 0,3 C -2,6 C 16,1 km/h (3 Bft) 100,00 %
14.03.2016 03:41 2,2 C 87 % 1029,1 hPa 0,0 l/m 11,2 km/h (2 Bft) O 80 0 min 0,000 mm 0,0 UV-I 0 W/m 0,3 C -1,9 C 14,5 km/h (3 Bft) 100,00 %
14.03.2016 03:42 2,2 C 87 % 1029,1 hPa 0,0 l/m 9,5 km/h (2 Bft) NO 54 0 min 0,000 mm 0,0 UV-I 0 W/m 0,3 C -0,6 C 16,1 km/h (3 Bft) 100,00 %
14.03.2016 03:43 2,3 C 87 % 1029,1 hPa 0,0 l/m 7,9 km/h (2 Bft) O-NO 59 0 min 0,000 mm 0,0 UV-I 0 W/m 0,4 C 0,9 C 9,7 km/h (2 Bft) 100,00 %
14.03.2016 03:44 2,2 C 87 % 1029,1 hPa 0,0 l/m 8,7 km/h (2 Bft) NO 42 0 min 0,000 mm 0,0 UV-I 0 W/m 0,3 C 0,0 C 12,9 km/h (3 Bft) 100,00 %
14.03.2016 03:45 2,2 C 87 % 1029,1 hPa 0,0 l/m 10,9 km/h (2 Bft) NO 38 0 min 0,000 mm 0,0 UV-I 0 W/m 0,3 C -1,7 C 16,1 km/h (3 Bft) 97,67 %
14.03.2016 03:46 2,2 C 87 % 1029,1 hPa 0,0 l/m 10,7 km/h (2 Bft) NO 51 0 min 0,000 mm 0,0 UV-I 0 W/m 0,3 C -1,6 C 16,1 km/h (3 Bft) 90,91 %
14.03.2016 03:47 2,2 C 87 % 1029,1 hPa 0,0 l/m 10,0 km/h (2 Bft) NO 51 0 min 0,000 mm 0,0 UV-I 0 W/m 0,3 C -1,0 C 14,5 km/h (3 Bft) 100,00 %
14.03.2016 03:48 2,2 C 87 % 1029,1 hPa 0,0 l/m 11,8 km/h (2 Bft) O-NO 59 0 min 0,000 mm 0,0 UV-I 0 W/m 0,3 C -2,3 C 19,3 km/h (3 Bft) 97,56 %
14.03.2016 03:49 2,2 C 87 % 1029,1 hPa 0,0 l/m 11,9 km/h (2 Bft) NO 49 0 min 0,000 mm 0,0 UV-I 0 W/m 0,3 C -2,4 C 17,7 km/h (3 Bft) 93,33 %
14.03.2016 03:50 2,2 C 87 % 1029,1 hPa 0,0 l/m 15,5 km/h (3 Bft) O-NO 59 0 min 0,000 mm 0,0 UV-I 0 W/m 0,3 C -4,6 C 22,5 km/h (4 Bft) 96,55 %
14.03.2016 03:51 2,2 C 86 % 1029,1 hPa 0,0 l/m 12,5 km/h (3 Bft) NO 45 0 min 0,000 mm 0,0 UV-I 0 W/m 0,1 C -2,8 C 16,1 km/h (3 Bft) 100,00 %
14.03.2016 03:52 2,2 C 86 % 1029,1 hPa 0,0 l/m 13,6 km/h (3 Bft) NO 46 0 min 0,000 mm 0,0 UV-I 0 W/m 0,1 C -3,5 C 19,3 km/h (3 Bft) 95,65 %
14.03.2016 03:53 2,2 C 86 % 1029,1 hPa 0,0 l/m 10,9 km/h (2 Bft) NO 52 0 min 0,000 mm 0,0 UV-I 0 W/m 0,1 C -1,7 C 16,1 km/h (3 Bft) 96,30 %
14.03.2016 03:54 2,2 C 86 % 1029,1 hPa 0,0 l/m 12,2 km/h (2 Bft) NO 40 0 min 0,000 mm 0,0 UV-I 0 W/m 0,1 C -2,6 C 19,3 km/h (3 Bft) 95,65 %
14.03.2016 03:55 2,2 C 86 % 1029,1 hPa 0,0 l/m 13,0 km/h (3 Bft) O-NO 60 0 min 0,000 mm 0,0 UV-I 0 W/m 0,1 C -3,1 C 17,7 km/h (3 Bft) 100,00 %
14.03.2016 03:56 2,2 C 86 % 1029,1 hPa 0,0 l/m 14,8 km/h (3 Bft) NO 51 0 min 0,000 mm 0,0 UV-I 0 W/m 0,1 C -4,2 C 19,3 km/h (3 Bft) 94,12 %
14.03.2016 03:57 2,2 C 86 % 1029,0 hPa 0,0 l/m 12,1 km/h (2 Bft) O-NO 58 0 min 0,000 mm 0,0 UV-I 0 W/m 0,1 C -2,5 C 16,1 km/h (3 Bft) 96,30 %
14.03.2016 03:58 2,2 C 86 % 1029,0 hPa 0,0 l/m 14,3 km/h (3 Bft) O-NO 62 0 min 0,000 mm 0,0 UV-I 0 W/m 0,1 C -3,9 C 19,3 km/h (3 Bft) 100,00 %
14.03.2016 03:59 2,2 C 86 % 1029,0 hPa 0,0 l/m 15,5 km/h (3 Bft) NO 47 0 min 0,000 mm 0,0 UV-I 0 W/m 0,1 C -4,6 C 20,9 km/h (4 Bft) 96,55 %
14.03.2016 04:00 2,2 C 85 % 1029,1 hPa 0,0 l/m 17,3 km/h (3 Bft) NO 46 0 min 0,000 mm 0,0 UV-I 0 W/m -0,1 C -5,5 C 22,5 km/h (4 Bft) 96,15 %
14.03.2016 04:01 2,2 C 85 % 1029,1 hPa 0,0 l/m 15,3 km/h (3 Bft) NO 51 0 min 0,025 mm 0,0 UV-I 0 W/m -0,1 C -4,5 C 19,3 km/h (3 Bft) 100,00 %
14.03.2016 04:02 2,2 C 85 % 1029,0 hPa 0,0 l/m 18,0 km/h (3 Bft) NO 37 0 min 0,000 mm 0,0 UV-I 0 W/m -0,1 C -5,9 C 20,9 km/h (4 Bft) 100,00 %
14.03.2016 04:03 2,2 C 85 % 1029,1 hPa 0,0 l/m 16,3 km/h (3 Bft) NO 51 0 min 0,000 mm 0,0 UV-I 0 W/m -0,1 C -5,0 C 19,3 km/h (3 Bft) 93,10 %
14.03.2016 04:04 2,2 C 85 % 1029,1 hPa 0,0 l/m 14,1 km/h (3 Bft) O-NO 58 0 min 0,000 mm 0,0 UV-I 0 W/m -0,1 C -3,8 C 17,7 km/h (3 Bft) 100,00 %
14.03.2016 04:05 2,2 C 85 % 1029,1 hPa 0,0 l/m 14,6 km/h (3 Bft) NO 49 0 min 0,000 mm 0,0 UV-I 0 W/m -0,1 C -4,1 C 19,3 km/h (3 Bft) 92,31 %
14.03.2016 04:06 2,2 C 85 % 1029,0 hPa 0,0 l/m 16,9 km/h (3 Bft) NO 49 0 min 0,000 mm 0,0 UV-I 0 W/m -0,1 C -5,3 C 22,5 km/h (4 Bft) 100,00 %
14.03.2016 04:07 2,2 C 85 % 1029,0 hPa 0,0 l/m 19,4 km/h (3 Bft) NO 44 0 min 0,000 mm 0,0 UV-I 0 W/m -0,1 C -6,5 C 22,5 km/h (4 Bft) 95,65 %
14.03.2016 04:08 2,2 C 85 % 1029,0 hPa 0,0 l/m 14,6 km/h (3 Bft) O-NO 63 0 min 0,000 mm 0,0 UV-I 0 W/m -0,1 C -4,1 C 19,3 km/h (3 Bft) 95,83 %
14.03.2016 04:09 2,2 C 85 % 1029,0 hPa 0,0 l/m 14,9 km/h (3 Bft) O-NO 60 0 min 0,000 mm 0,0 UV-I 0 W/m -0,1 C -4,3 C 17,7 km/h (3 Bft) 100,00 %
14.03.2016 04:10 2,2 C 85 % 1029,0 hPa 0,0 l/m 14,6 km/h (3 Bft) O-NO 60 0 min 0,000 mm 0,0 UV-I 0 W/m -0,1 C -4,1 C 17,7 km/h (3 Bft) 92,59 %
14.03.2016 04:11 2,2 C 86 % 1029,1 hPa 0,0 l/m 13,6 km/h (3 Bft) O-NO 59 0 min 0,000 mm 0,0 UV-I 0 W/m 0,1 C -3,5 C 19,3 km/h (3 Bft) 100,00 %
14.03.2016 04:12 2,2 C 86 % 1029,1 hPa 0,0 l/m 15,3 km/h (3 Bft) O-NO 61 0 min 0,000 mm 0,0 UV-I 0 W/m 0,1 C -4,5 C 19,3 km/h (3 Bft) 96,67 %
14.03.2016 04:13 2,2 C 86 % 1029,0 hPa 0,0 l/m 14,8 km/h (3 Bft) NO 55 0 min 0,000 mm 0,0 UV-I 0 W/m 0,1 C -4,2 C 17,7 km/h (3 Bft) 100,00 %
14.03.2016 04:14 2,2 C 86 % 1029,0 hPa 0,0 l/m 15,6 km/h (3 Bft) O-NO 61 0 min 0,000 mm 0,0 UV-I 0 W/m 0,1 C -4,6 C 19,3 km/h (3 Bft) 96,15 %
14.03.2016 04:15 2,2 C 86 % 1029,0 hPa 0,0 l/m 14,6 km/h (3 Bft) NO 53 0 min 0,000 mm 0,0 UV-I 0 W/m 0,1 C -4,1 C 19,3 km/h (3 Bft) 96,55 %
14.03.2016 04:16 2,2 C 86 % 1029,0 hPa 0,0 l/m 18,0 km/h (3 Bft) O-NO 59 0 min 0,000 mm 0,0 UV-I 0 W/m 0,1 C -5,9 C 20,9 km/h (4 Bft) 100,00 %
14.03.2016 04:17 2,2 C 86 % 1029,0 hPa 0,0 l/m 15,6 km/h (3 Bft) NO 42 0 min 0,000 mm 0,0 UV-I 0 W/m 0,1 C -4,6 C 17,7 km/h (3 Bft) 93,33 %
14.03.2016 04:18 2,2 C 86 % 1029,0 hPa 0,0 l/m 14,1 km/h (3 Bft) O-NO 57 0 min 0,000 mm 0,0 UV-I 0 W/m 0,1 C -3,8 C 17,7 km/h (3 Bft) 100,00 %
14.03.2016 04:19 2,2 C 86 % 1029,0 hPa 0,0 l/m 17,3 km/h (3 Bft) NO 49 0 min 0,000 mm 0,0 UV-I 0 W/m 0,1 C -5,5 C 19,3 km/h (3 Bft) 95,24 %
14.03.2016 04:20 2,2 C 86 % 1029,0 hPa 0,0 l/m 17,6 km/h (3 Bft) O-NO 59 0 min 0,000 mm 0,0 UV-I 0 W/m 0,1 C -5,7 C 20,9 km/h (4 Bft) 100,00 %
14.03.2016 04:21 2,2 C 86 % 1029,0 hPa 0,0 l/m 19,8 km/h (3 Bft) NO 51 0 min 0,000 mm 0,0 UV-I 0 W/m 0,1 C -6,7 C 24,1 km/h (4 Bft) 95,83 %
14.03.2016 04:22 2,2 C 86 % 1029,0 hPa 0,0 l/m 18,5 km/h (3 Bft) O-NO 57 0 min 0,000 mm 0,0 UV-I 0 W/m 0,1 C -6,1 C 22,5 km/h (4 Bft) 100,00 %
14.03.2016 04:23 2,2 C 85 % 1029,0 hPa 0,0 l/m 16,7 km/h (3 Bft) NO 48 0 min 0,000 mm 0,0 UV-I 0 W/m -0,1 C -5,2 C 22,5 km/h (4 Bft) 100,00 %
14.03.2016 04:24 2,2 C 86 % 1029,0 hPa 0,0 l/m 18,9 km/h (3 Bft) NO 52 0 min 0,000 mm 0,0 UV-I 0 W/m 0,1 C -6,3 C 24,1 km/h (4 Bft) 100,00 %
14.03.2016 04:25 2,2 C 85 % 1029,0 hPa 0,0 l/m 18,4 km/h (3 Bft) O-NO 57 0 min 0,000 mm 0,0 UV-I 0 W/m -0,1 C -6,1 C 22,5 km/h (4 Bft) 100,00 %
14.03.2016 04:26 2,2 C 85 % 1029,0 hPa 0,0 l/m 16,8 km/h (3 Bft) NO 52 0 min 0,000 mm 0,0 UV-I 0 W/m -0,1 C -5,3 C 22,5 km/h (4 Bft) 96,15 %
14.03.2016 04:27 2,2 C 86 % 1029,0 hPa 0,0 l/m 19,0 km/h (3 Bft) O-NO 57 0 min 0,000 mm 0,0 UV-I 0 W/m 0,1 C -6,3 C 22,5 km/h (4 Bft) 100,00 %
14.03.2016 04:28 2,2 C 86 % 1029,0 hPa 0,0 l/m 17,0 km/h (3 Bft) NO 43 0 min 0,000 mm 0,0 UV-I 0 W/m 0,1 C -5,4 C 19,3 km/h (3 Bft) 100,00 %
14.03.2016 04:29 2,1 C 86 % 1029,0 hPa 0,0 l/m 15,1 km/h (3 Bft) NO 39 0 min 0,000 mm 0,0 UV-I 0 W/m 0,0 C -4,5 C 19,3 km/h (3 Bft) 100,00 %
14.03.2016 04:30 2,2 C 86 % 1029,0 hPa 0,0 l/m 17,1 km/h (3 Bft) O-NO 65 0 min 0,000 mm 0,0 UV-I 0 W/m 0,1 C -5,4 C 20,9 km/h (4 Bft) 100,00 %
14.03.2016 04:31 2,1 C 85 % 1029,0 hPa 0,0 l/m 18,7 km/h (3 Bft) NO 43 0 min 0,000 mm 0,0 UV-I 0 W/m -0,2 C -6,3 C 22,5 km/h (4 Bft) 100,00 %
14.03.2016 04:32 2,1 C 85 % 1029,0 hPa 0,0 l/m 14,8 km/h (3 Bft) O-NO 57 0 min 0,000 mm 0,0 UV-I 0 W/m -0,2 C -4,3 C 17,7 km/h (3 Bft) 100,00 %
14.03.2016 04:33 2,1 C 86 % 1029,0 hPa 0,0 l/m 14,6 km/h (3 Bft) O-NO 61 0 min 0,000 mm 0,0 UV-I 0 W/m 0,0 C -4,2 C 16,1 km/h (3 Bft) 100,00 %
14.03.2016 04:34 2,2 C 86 % 1029,0 hPa 0,0 l/m 14,2 km/h (3 Bft) O-NO 78 0 min 0,000 mm 0,0 UV-I 0 W/m 0,1 C -3,9 C 20,9 km/h (4 Bft) 100,00 %
14.03.2016 04:35 2,1 C 86 % 1029,0 hPa 0,0 l/m 14,9 km/h (3 Bft) NO 53 0 min 0,000 mm 0,0 UV-I 0 W/m 0,0 C -4,4 C 19,3 km/h (3 Bft) 100,00 %
14.03.2016 04:36 2,1 C 86 % 1029,0 hPa 0,0 l/m 13,4 km/h (3 Bft) NO 56 0 min 0,000 mm 0,0 UV-I 0 W/m 0,0 C -3,5 C 19,3 km/h (3 Bft) 100,00 %
14.03.2016 04:37 2,1 C 86 % 1029,0 hPa 0,0 l/m 12,1 km/h (2 Bft) O-NO 64 0 min 0,000 mm 0,0 UV-I 0 W/m 0,0 C -2,7 C 17,7 km/h (3 Bft) 100,00 %
14.03.2016 04:38 2,1 C 86 % 1029,0 hPa 0,0 l/m 16,8 km/h (3 Bft) O-NO 67 0 min 0,000 mm 0,0 UV-I 0 W/m 0,0 C -5,4 C 20,9 km/h (4 Bft) 100,00 %
14.03.2016 04:39 2,1 C 86 % 1029,0 hPa 0,0 l/m 12,3 km/h (3 Bft) NO 48 0 min 0,000 mm 0,0 UV-I 0 W/m 0,0 C -2,8 C 17,7 km/h (3 Bft) 100,00 %
14.03.2016 04:40 2,1 C 86 % 1029,0 hPa 0,0 l/m 14,7 km/h (3 Bft) NO 51 0 min 0,000 mm 0,0 UV-I 0 W/m 0,0 C -4,3 C 16,1 km/h (3 Bft) 95,65 %
14.03.2016 04:41 2,1 C 86 % 1029,0 hPa 0,0 l/m 13,0 km/h (3 Bft) NO 44 0 min 0,000 mm 0,0 UV-I 0 W/m 0,0 C -3,2 C 19,3 km/h (3 Bft) 100,00 %
14.03.2016 04:42 2,1 C 86 % 1029,0 hPa 0,0 l/m 11,3 km/h (2 Bft) O-NO 61 0 min 0,000 mm 0,0 UV-I 0 W/m 0,0 C -2,1 C 16,1 km/h (3 Bft) 100,00 %
14.03.2016 04:43 2,1 C 86 % 1029,1 hPa 0,0 l/m 9,9 km/h (2 Bft) O-NO 66 0 min 0,000 mm 0,0 UV-I 0 W/m 0,0 C -1,1 C 14,5 km/h (3 Bft) 96,88 %
14.03.2016 04:44 2,1 C 86 % 1029,1 hPa 0,0 l/m 9,0 km/h (2 Bft) NO 44 0 min 0,000 mm 0,0 UV-I 0 W/m 0,0 C -0,3 C 14,5 km/h (3 Bft) 100,00 %
14.03.2016 04:45 2,1 C 86 % 1029,1 hPa 0,0 l/m 10,3 km/h (2 Bft) O-NO 59 0 min 0,000 mm 0,0 UV-I 0 W/m 0,0 C -1,4 C 16,1 km/h (3 Bft) 100,00 %
14.03.2016 04:46 2,1 C 87 % 1029,1 hPa 0,0 l/m 9,5 km/h (2 Bft) NO 40 0 min 0,000 mm 0,0 UV-I 0 W/m 0,2 C -0,7 C 11,3 km/h (2 Bft) 100,00 %
14.03.2016 04:47 2,1 C 87 % 1029,1 hPa 0,0 l/m 10,6 km/h (2 Bft) O-NO 58 0 min 0,000 mm 0,0 UV-I 0 W/m 0,2 C -1,6 C 17,7 km/h (3 Bft) 100,00 %
14.03.2016 04:48 2,1 C 87 % 1029,2 hPa 0,0 l/m 9,5 km/h (2 Bft) O-NO 61 0 min 0,000 mm 0,0 UV-I 0 W/m 0,2 C -0,7 C 14,5 km/h (3 Bft) 100,00 %
14.03.2016 04:49 2,1 C 87 % 1029,1 hPa 0,0 l/m 8,7 km/h (2 Bft) O-NO 57 0 min 0,000 mm 0,0 UV-I 0 W/m 0,2 C -0,1 C 12,9 km/h (3 Bft) 100,00 %
14.03.2016 04:50 2,1 C 87 % 1029,2 hPa 0,0 l/m 11,0 km/h (2 Bft) O-NO 69 0 min 0,000 mm 0,0 UV-I 0 W/m 0,2 C -1,9 C 16,1 km/h (3 Bft) 100,00 %
14.03.2016 04:51 2,1 C 87 % 1029,2 hPa 0,0 l/m 10,1 km/h (2 Bft) NO 48 0 min 0,000 mm 0,0 UV-I 0 W/m 0,2 C -1,2 C 14,5 km/h (3 Bft) 100,00 %
14.03.2016 04:52 2,1 C 87 % 1029,3 hPa 0,0 l/m 10,1 km/h (2 Bft) O-NO 60 0 min 0,000 mm 0,0 UV-I 0 W/m 0,2 C -1,2 C 14,5 km/h (3 Bft) 100,00 %
14.03.2016 04:53 2,1 C 87 % 1029,3 hPa 0,0 l/m 6,6 km/h (2 Bft) NO 40 0 min 0,000 mm 0,0 UV-I 0 W/m 0,2 C 1,9 C 8,0 km/h (2 Bft) 100,00 %
14.03.2016 04:54 2,1 C 87 % 1029,2 hPa 0,0 l/m 7,2 km/h (2 Bft) O-NO 61 0 min 0,000 mm 0,0 UV-I 0 W/m 0,2 C 1,3 C 9,7 km/h (2 Bft) 100,00 %
14.03.2016 04:55 2,1 C 87 % 1029,3 hPa 0,0 l/m 7,1 km/h (2 Bft) NO 51 0 min 0,000 mm 0,0 UV-I 0 W/m 0,2 C 1,4 C 11,3 km/h (2 Bft) 100,00 %
14.03.2016 04:56 2,1 C 87 % 1029,2 hPa 0,0 l/m 7,7 km/h (2 Bft) NO 50 0 min 0,000 mm 0,0 UV-I 0 W/m 0,2 C 0,8 C 11,3 km/h (2 Bft) 100,00 %
14.03.2016 04:57 2,1 C 87 % 1029,2 hPa 0,0 l/m 11,6 km/h (2 Bft) NO 48 0 min 0,000 mm 0,0 UV-I 0 W/m 0,2 C -2,3 C 16,1 km/h (3 Bft) 93,33 %
14.03.2016 04:58 2,0 C 87 % 1029,3 hPa 0,0 l/m 12,2 km/h (2 Bft) NO 39 0 min 0,000 mm 0,0 UV-I 0 W/m 0,1 C -2,8 C 16,1 km/h (3 Bft) 100,00 %
14.03.2016 04:59 2,1 C 87 % 1029,3 hPa 0,0 l/m 8,5 km/h (2 Bft) O-NO 76 0 min 0,000 mm 0,0 UV-I 0 W/m 0,2 C 0,1 C 12,9 km/h (3 Bft) 100,00 %
14.03.2016 05:00 2,0 C 87 % 1029,3 hPa 0,0 l/m 9,8 km/h (2 Bft) O-NO 74 0 min 0,026 mm 0,0 UV-I 0 W/m 0,1 C -1,1 C 12,9 km/h (3 Bft) 100,00 %
14.03.2016 05:01 2,0 C 87 % 1029,3 hPa 0,0 l/m 4,7 km/h (1 Bft) O-NO 61 0 min 0,000 mm 0,0 UV-I 0 W/m 0,1 C 2,0 C 8,0 km/h (2 Bft) 100,00 %
14.03.2016 05:02 2,0 C 87 % 1029,3 hPa 0,0 l/m 5,6 km/h (1 Bft) O-NO 78 0 min 0,000 mm 0,0 UV-I 0 W/m 0,1 C 2,0 C 8,0 km/h (2 Bft) 100,00 %
14.03.2016 05:03 2,0 C 87 % 1029,3 hPa 0,0 l/m 8,6 km/h (2 Bft) O-NO 62 0 min 0,000 mm 0,0 UV-I 0 W/m 0,1 C -0,1 C 11,3 km/h (2 Bft) 100,00 %
14.03.2016 05:04 2,0 C 87 % 1029,3 hPa 0,0 l/m 6,1 km/h (2 Bft) NO 46 0 min 0,000 mm 0,0 UV-I 0 W/m 0,1 C 2,0 C 8,0 km/h (2 Bft) 100,00 %
14.03.2016 05:05 2,0 C 87 % 1029,3 hPa 0,0 l/m 8,8 km/h (2 Bft) O-NO 77 0 min 0,000 mm 0,0 UV-I 0 W/m 0,1 C -0,3 C 12,9 km/h (3 Bft) 100,00 %
14.03.2016 05:06 2,0 C 87 % 1029,3 hPa 0,0 l/m 6,6 km/h (2 Bft) O-NO 74 0 min 0,000 mm 0,0 UV-I 0 W/m 0,1 C 1,8 C 11,3 km/h (2 Bft) 100,00 %
14.03.2016 05:07 2,0 C 87 % 1029,3 hPa 0,0 l/m 3,8 km/h (1 Bft) O 83 0 min 0,000 mm 0,0 UV-I 0 W/m 0,1 C 2,0 C 4,8 km/h (1 Bft) 100,00 %
14.03.2016 05:08 2,0 C 87 % 1029,3 hPa 0,0 l/m 2,8 km/h (1 Bft) O-NO 73 0 min 0,000 mm 0,0 UV-I 0 W/m 0,1 C 2,0 C 4,8 km/h (1 Bft) 100,00 %
14.03.2016 05:09 2,0 C 87 % 1029,3 hPa 0,0 l/m 3,8 km/h (1 Bft) O-NO 71 0 min 0,000 mm 0,0 UV-I 0 W/m 0,1 C 2,0 C 4,8 km/h (1 Bft) 100,00 %
14.03.2016 05:10 2,0 C 87 % 1029,4 hPa 0,0 l/m 3,3 km/h (1 Bft) O-NO 71 0 min 0,000 mm 0,0 UV-I 0 W/m 0,1 C 2,0 C 4,8 km/h (1 Bft) 100,00 %
14.03.2016 05:11 1,9 C 87 % 1029,4 hPa 0,0 l/m 1,9 km/h (1 Bft) O-NO 69 0 min 0,000 mm 0,0 UV-I 0 W/m -0,0 C 1,9 C 3,2 km/h (1 Bft) 100,00 %
14.03.2016 05:12 2,0 C 87 % 1029,3 hPa 0,0 l/m 2,7 km/h (1 Bft) O-NO 69 0 min 0,000 mm 0,0 UV-I 0 W/m 0,1 C 2,0 C 3,2 km/h (1 Bft) 100,00 %
14.03.2016 05:13 1,9 C 87 % 1029,3 hPa 0,0 l/m 1,5 km/h (1 Bft) O-NO 69 0 min 0,000 mm 0,0 UV-I 0 W/m -0,0 C 1,9 C 3,2 km/h (1 Bft) 96,30 %
14.03.2016 05:14 2,0 C 87 % 1029,4 hPa 0,0 l/m 1,1 km/h (1 Bft) O-NO 69 0 min 0,000 mm 0,0 UV-I 0 W/m 0,1 C 2,0 C 1,6 km/h (1 Bft) 93,33 %
14.03.2016 05:15 1,9 C 87 % 1029,3 hPa 0,0 l/m 1,4 km/h (1 Bft) O-SO 117 0 min 0,000 mm 0,0 UV-I 0 W/m -0,0 C 1,9 C 3,2 km/h (1 Bft) 96,55 %
14.03.2016 05:16 1,9 C 87 % 1029,4 hPa 0,0 l/m 2,7 km/h (1 Bft) O-SO 117 0 min 0,000 mm 0,0 UV-I 0 W/m -0,0 C 1,9 C 3,2 km/h (1 Bft) 100,00 %
14.03.2016 05:17 1,9 C 87 % 1029,4 hPa 0,0 l/m 2,5 km/h (1 Bft) O-SO 117 0 min 0,000 mm 0,0 UV-I 0 W/m -0,0 C 1,9 C 4,8 km/h (1 Bft) 100,00 %
14.03.2016 05:18 1,9 C 87 % 1029,4 hPa 0,0 l/m 0,6 km/h (0 Bft) O-SO 103 0 min 0,000 mm 0,0 UV-I 0 W/m -0,0 C 1,9 C 3,2 km/h (1 Bft) 100,00 %
14.03.2016 05:19 1,9 C 87 % 1029,4 hPa 0,0 l/m 2,5 km/h (1 Bft) O-NO 69 0 min 0,000 mm 0,0 UV-I 0 W/m -0,0 C 1,9 C 4,8 km/h (1 Bft) 100,00 %
14.03.2016 05:20 1,9 C 87 % 1029,4 hPa 0,0 l/m 1,4 km/h (1 Bft) O-NO 69 0 min 0,000 mm 0,0 UV-I 0 W/m -0,0 C 1,9 C 3,2 km/h (1 Bft) 95,83 %
14.03.2016 05:21 1,9 C 87 % 1029,5 hPa 0,0 l/m 3,3 km/h (1 Bft) O-NO 63 0 min 0,000 mm 0,0 UV-I 0 W/m -0,0 C 1,9 C 6,4 km/h (2 Bft) 95,65 %
14.03.2016 05:22 1,9 C 87 % 1029,5 hPa 0,0 l/m 4,1 km/h (1 Bft) O-NO 74 0 min 0,000 mm 0,0 UV-I 0 W/m -0,0 C 1,9 C 6,4 km/h (2 Bft) 100,00 %
14.03.2016 05:23 1,9 C 87 % 1029,5 hPa 0,0 l/m 2,3 km/h (1 Bft) O-NO 74 0 min 0,000 mm 0,0 UV-I 0 W/m -0,0 C 1,9 C 3,2 km/h (1 Bft) 96,15 %
14.03.2016 05:24 1,9 C 88 % 1029,4 hPa 0,0 l/m 1,5 km/h (1 Bft) O-NO 74 0 min 0,000 mm 0,0 UV-I 0 W/m 0,1 C 1,9 C 3,2 km/h (1 Bft) 100,00 %
14.03.2016 05:25 1,9 C 88 % 1029,4 hPa 0,0 l/m 0,3 km/h (0 Bft) O-NO 74 0 min 0,000 mm 0,0 UV-I 0 W/m 0,1 C 1,9 C 1,6 km/h (1 Bft) 100,00 %
14.03.2016 05:26 1,9 C 88 % 1029,5 hPa 0,0 l/m 3,0 km/h (1 Bft) O-NO 74 0 min 0,000 mm 0,0 UV-I 0 W/m 0,1 C 1,9 C 4,8 km/h (1 Bft) 100,00 %
14.03.2016 05:27 1,9 C 88 % 1029,5 hPa 0,0 l/m 3,2 km/h (1 Bft) O-NO 74 0 min 0,000 mm 0,0 UV-I 0 W/m 0,1 C 1,9 C 3,2 km/h (1 Bft) 100,00 %
14.03.2016 05:28 1,9 C 88 % 1029,5 hPa 0,0 l/m 3,4 km/h (1 Bft) O-NO 69 0 min 0,000 mm 0,0 UV-I 0 W/m 0,1 C 1,9 C 4,8 km/h (1 Bft) 100,00 %
14.03.2016 05:29 1,9 C 88 % 1029,5 hPa 0,0 l/m 5,3 km/h (1 Bft) O 85 0 min 0,000 mm 0,0 UV-I 0 W/m 0,1 C 1,9 C 6,4 km/h (2 Bft) 100,00 %
14.03.2016 05:30 1,9 C 88 % 1029,5 hPa 0,0 l/m 5,0 km/h (1 Bft) O-NO 74 0 min 0,000 mm 0,0 UV-I 0 W/m 0,1 C 1,9 C 6,4 km/h (2 Bft) 100,00 %
14.03.2016 05:31 1,9 C 88 % 1029,5 hPa 0,0 l/m 3,7 km/h (1 Bft) O-NO 59 0 min 0,000 mm 0,0 UV-I 0 W/m 0,1 C 1,9 C 6,4 km/h (2 Bft) 100,00 %
14.03.2016 05:32 1,9 C 88 % 1029,5 hPa 0,0 l/m 6,0 km/h (2 Bft) O-NO 63 0 min 0,000 mm 0,0 UV-I 0 W/m 0,1 C 1,9 C 6,4 km/h (2 Bft) 100,00 %
14.03.2016 05:33 1,9 C 88 % 1029,5 hPa 0,0 l/m 4,8 km/h (1 Bft) O 84 0 min 0,000 mm 0,0 UV-I 0 W/m 0,1 C 1,9 C 6,4 km/h (2 Bft) 100,00 %
14.03.2016 05:34 1,9 C 88 % 1029,6 hPa 0,0 l/m 4,4 km/h (1 Bft) O-NO 67 0 min 0,000 mm 0,0 UV-I 0 W/m 0,1 C 1,9 C 6,4 km/h (2 Bft) 100,00 %
14.03.2016 05:35 1,9 C 88 % 1029,6 hPa 0,0 l/m 5,1 km/h (1 Bft) NO 55 0 min 0,000 mm 0,0 UV-I 0 W/m 0,1 C 1,9 C 6,4 km/h (2 Bft) 100,00 %
14.03.2016 05:36 1,9 C 88 % 1029,6 hPa 0,0 l/m 8,3 km/h (2 Bft) O-NO 59 0 min 0,000 mm 0,0 UV-I 0 W/m 0,1 C 0,1 C 12,9 km/h (3 Bft) 100,00 %
14.03.2016 05:37 1,9 C 89 % 1029,6 hPa 0,0 l/m 8,0 km/h (2 Bft) O-NO 57 0 min 0,000 mm 0,0 UV-I 0 W/m 0,3 C 0,3 C 11,3 km/h (2 Bft) 100,00 %
14.03.2016 05:38 1,9 C 89 % 1029,6 hPa 0,0 l/m 7,6 km/h (2 Bft) O-NO 61 0 min 0,000 mm 0,0 UV-I 0 W/m 0,3 C 0,7 C 9,7 km/h (2 Bft) 100,00 %
14.03.2016 05:39 1,9 C 89 % 1029,6 hPa 0,0 l/m 7,4 km/h (2 Bft) O-NO 61 0 min 0,000 mm 0,0 UV-I 0 W/m 0,3 C 0,9 C 9,7 km/h (2 Bft) 100,00 %
14.03.2016 05:40 1,9 C 89 % 1029,6 hPa 0,0 l/m 9,7 km/h (2 Bft) O-NO 57 0 min 0,000 mm 0,0 UV-I 0 W/m 0,3 C -1,1 C 14,5 km/h (3 Bft) 100,00 %
14.03.2016 05:41 1,9 C 89 % 1029,6 hPa 0,0 l/m 7,2 km/h (2 Bft) O-NO 59 0 min 0,000 mm 0,0 UV-I 0 W/m 0,3 C 1,1 C 9,7 km/h (2 Bft) 100,00 %
14.03.2016 05:42 1,9 C 89 % 1029,6 hPa 0,0 l/m 7,4 km/h (2 Bft) O-NO 78 0 min 0,000 mm 0,0 UV-I 0 W/m 0,3 C 0,9 C 11,3 km/h (2 Bft) 100,00 %
14.03.2016 05:43 1,9 C 89 % 1029,7 hPa 0,0 l/m 10,1 km/h (2 Bft) NO 40 0 min 0,000 mm 0,0 UV-I 0 W/m 0,3 C -1,4 C 14,5 km/h (3 Bft) 100,00 %
14.03.2016 05:44 1,9 C 89 % 1029,7 hPa 0,0 l/m 8,6 km/h (2 Bft) O-NO 59 0 min 0,000 mm 0,0 UV-I 0 W/m 0,3 C -0,2 C 11,3 km/h (2 Bft) 100,00 %
14.03.2016 05:45 1,9 C 89 % 1029,6 hPa 0,0 l/m 8,3 km/h (2 Bft) NO 50 0 min 0,000 mm 0,0 UV-I 0 W/m 0,3 C 0,1 C 11,3 km/h (2 Bft) 100,00 %
14.03.2016 05:46 1,9 C 89 % 1029,7 hPa 0,0 l/m 7,1 km/h (2 Bft) O-NO 57 0 min 0,000 mm 0,0 UV-I 0 W/m 0,3 C 1,2 C 9,7 km/h (2 Bft) 100,00 %
14.03.2016 05:47 1,9 C 90 % 1029,7 hPa 0,0 l/m 7,4 km/h (2 Bft) O-NO 62 0 min 0,000 mm 0,0 UV-I 0 W/m 0,4 C 0,9 C 9,7 km/h (2 Bft) 100,00 %
14.03.2016 05:48 1,9 C 90 % 1029,7 hPa 0,0 l/m 8,0 km/h (2 Bft) NO 54 0 min 0,000 mm 0,0 UV-I 0 W/m 0,4 C 0,3 C 9,7 km/h (2 Bft) 100,00 %
14.03.2016 05:49 1,9 C 90 % 1029,7 hPa 0,0 l/m 8,2 km/h (2 Bft) O-NO 72 0 min 0,000 mm 0,0 UV-I 0 W/m 0,4 C 0,2 C 12,9 km/h (3 Bft) 100,00 %
14.03.2016 05:50 1,9 C 90 % 1029,7 hPa 0,0 l/m 8,4 km/h (2 Bft) O-NO 58 0 min 0,000 mm 0,0 UV-I 0 W/m 0,4 C -0,0 C 11,3 km/h (2 Bft) 100,00 %
14.03.2016 05:51 1,9 C 90 % 1029,7 hPa 0,0 l/m 8,2 km/h (2 Bft) O-NO 73 0 min 0,000 mm 0,0 UV-I 0 W/m 0,4 C 0,2 C 12,9 km/h (3 Bft) 92,59 %
14.03.2016 05:52 1,9 C 90 % 1029,7 hPa 0,0 l/m 7,8 km/h (2 Bft) NO 45 0 min 0,000 mm 0,0 UV-I 0 W/m 0,4 C 0,5 C 11,3 km/h (2 Bft) 91,30 %
14.03.2016 05:53 1,9 C 90 % 1029,7 hPa 0,0 l/m 8,3 km/h (2 Bft) NO 41 0 min 0,000 mm 0,0 UV-I 0 W/m 0,4 C 0,1 C 12,9 km/h (3 Bft) 100,00 %
14.03.2016 05:54 1,9 C 90 % 1029,7 hPa 0,0 l/m 10,0 km/h (2 Bft) O-NO 59 0 min 0,000 mm 0,0 UV-I 0 W/m 0,4 C -1,4 C 14,5 km/h (3 Bft) 96,15 %
14.03.2016 05:55 1,9 C 90 % 1029,7 hPa 0,0 l/m 9,8 km/h (2 Bft) NO 54 0 min 0,000 mm 0,0 UV-I 0 W/m 0,4 C -1,2 C 14,5 km/h (3 Bft) 91,67 %
14.03.2016 05:56 1,9 C 90 % 1029,8 hPa 0,0 l/m 9,6 km/h (2 Bft) O 86 0 min 0,000 mm 0,0 UV-I 0 W/m 0,4 C -1,0 C 12,9 km/h (3 Bft) 96,15 %
14.03.2016 05:57 1,9 C 90 % 1029,8 hPa 0,0 l/m 10,4 km/h (2 Bft) O-NO 57 0 min 0,000 mm 0,0 UV-I 0 W/m 0,4 C -1,7 C 17,7 km/h (3 Bft) 96,30 %
14.03.2016 05:58 1,9 C 90 % 1029,8 hPa 0,0 l/m 11,7 km/h (2 Bft) O-NO 69 0 min 0,000 mm 0,0 UV-I 0 W/m 0,4 C -2,6 C 16,1 km/h (3 Bft) 96,15 %
14.03.2016 05:59 1,9 C 90 % 1029,8 hPa 0,0 l/m 10,2 km/h (2 Bft) NO 43 0 min 0,000 mm 0,0 UV-I 0 W/m 0,4 C -1,5 C 16,1 km/h (3 Bft) 100,00 %
14.03.2016 06:00 1,9 C 90 % 1029,8 hPa 0,0 l/m 13,6 km/h (3 Bft) O 91 0 min 0,000 mm 0,0 UV-I 0 W/m 0,4 C -3,9 C 19,3 km/h (3 Bft) 93,10 %
14.03.2016 06:01 1,9 C 88 % 1029,8 hPa 0,0 l/m 15,0 km/h (3 Bft) NO 53 0 min 0,000 mm 0,0 UV-I 0 W/m 0,1 C -4,7 C 22,5 km/h (4 Bft) 100,00 %
14.03.2016 06:02 1,9 C 88 % 1029,8 hPa 0,0 l/m 8,3 km/h (2 Bft) NO 55 0 min 0,000 mm 0,0 UV-I 0 W/m 0,1 C 0,1 C 11,3 km/h (2 Bft) 96,30 %
14.03.2016 06:03 1,8 C 87 % 1029,9 hPa 0,0 l/m 10,5 km/h (2 Bft) O-NO 59 0 min 0,000 mm 0,0 UV-I 0 W/m -0,1 C -1,8 C 14,5 km/h (3 Bft) 95,00 %
14.03.2016 06:04 1,9 C 87 % 1029,9 hPa 0,0 l/m 11,7 km/h (2 Bft) O-NO 69 0 min 0,000 mm 0,0 UV-I 0 W/m -0,0 C -2,6 C 14,5 km/h (3 Bft) 100,00 %
14.03.2016 06:05 1,9 C 87 % 1029,9 hPa 0,0 l/m 11,3 km/h (2 Bft) NO 52 0 min 0,000 mm 0,0 UV-I 0 W/m -0,0 C -2,3 C 17,7 km/h (3 Bft) 95,65 %
14.03.2016 06:06 1,9 C 88 % 1029,9 hPa 0,0 l/m 12,3 km/h (3 Bft) NO 53 0 min 0,000 mm 0,0 UV-I 0 W/m 0,1 C -3,0 C 16,1 km/h (3 Bft) 100,00 %
14.03.2016 06:07 1,9 C 88 % 1029,9 hPa 0,0 l/m 13,8 km/h (3 Bft) NO 51 0 min 0,000 mm 0,0 UV-I 0 W/m 0,1 C -4,0 C 17,7 km/h (3 Bft) 91,30 %
14.03.2016 06:08 1,9 C 88 % 1029,9 hPa 0,0 l/m 14,8 km/h (3 Bft) NO 51 0 min 0,000 mm 0,0 UV-I 0 W/m 0,1 C -4,6 C 17,7 km/h (3 Bft) 96,30 %
14.03.2016 06:09 1,9 C 87 % 1029,9 hPa 0,0 l/m 15,1 km/h (3 Bft) NO 49 0 min 0,000 mm 0,0 UV-I 0 W/m -0,0 C -4,7 C 19,3 km/h (3 Bft) 100,00 %
14.03.2016 06:10 1,8 C 86 % 1029,9 hPa 0,0 l/m 17,8 km/h (3 Bft) NO 42 0 min 0,000 mm 0,0 UV-I 0 W/m -0,3 C -6,3 C 22,5 km/h (4 Bft) 96,55 %
14.03.2016 06:11 1,9 C 85 % 1029,9 hPa 0,0 l/m 16,0 km/h (3 Bft) O-NO 65 0 min 0,000 mm 0,0 UV-I 0 W/m -0,3 C -5,2 C 19,3 km/h (3 Bft) 100,00 %
14.03.2016 06:12 1,8 C 85 % 1030,0 hPa 0,0 l/m 9,6 km/h (2 Bft) NO 44 0 min 0,000 mm 0,0 UV-I 0 W/m -0,4 C -1,1 C 12,9 km/h (3 Bft) 93,33 %
14.03.2016 06:13 1,9 C 85 % 1030,0 hPa 0,0 l/m 8,1 km/h (2 Bft) NO 45 0 min 0,000 mm 0,0 UV-I 0 W/m -0,3 C 0,3 C 14,5 km/h (3 Bft) 100,00 %
14.03.2016 06:14 1,8 C 85 % 1030,0 hPa 0,0 l/m 11,2 km/h (2 Bft) NO 54 0 min 0,000 mm 0,0 UV-I 0 W/m -0,4 C -2,4 C 16,1 km/h (3 Bft) 96,67 %
14.03.2016 06:15 1,8 C 85 % 1030,0 hPa 0,0 l/m 14,3 km/h (3 Bft) NO 42 0 min 0,000 mm 0,0 UV-I 0 W/m -0,4 C -4,4 C 20,9 km/h (4 Bft) 100,00 %
14.03.2016 06:16 1,8 C 84 % 1030,0 hPa 0,0 l/m 10,5 km/h (2 Bft) NO 56 0 min 0,000 mm 0,0 UV-I 0 W/m -0,6 C -1,8 C 14,5 km/h (3 Bft) 96,15 %
14.03.2016 06:17 1,8 C 84 % 1030,0 hPa 0,0 l/m 12,7 km/h (3 Bft) O-NO 70 0 min 0,000 mm 0,0 UV-I 0 W/m -0,6 C -3,4 C 19,3 km/h (3 Bft) 96,30 %
14.03.2016 06:18 1,8 C 83 % 1030,0 hPa 0,0 l/m 12,5 km/h (3 Bft) NO 44 0 min 0,000 mm 0,0 UV-I 0 W/m -0,8 C -3,3 C 17,7 km/h (3 Bft) 100,00 %
14.03.2016 06:19 1,8 C 83 % 1030,0 hPa 0,0 l/m 11,1 km/h (2 Bft) O-NO 74 0 min 0,000 mm 0,0 UV-I 0 W/m -0,8 C -2,3 C 16,1 km/h (3 Bft) 95,83 %
14.03.2016 06:20 1,8 C 83 % 1030,0 hPa 0,0 l/m 13,7 km/h (3 Bft) O 80 0 min 0,000 mm 0,0 UV-I 0 W/m -0,8 C -4,0 C 16,1 km/h (3 Bft) 100,00 %
14.03.2016 06:21 1,8 C 83 % 1030,0 hPa 0,0 l/m 11,8 km/h (2 Bft) O-NO 63 0 min 0,000 mm 0,0 UV-I 0 W/m -0,8 C -2,8 C 17,7 km/h (3 Bft) 95,83 %
14.03.2016 06:22 1,8 C 82 % 1030,0 hPa 0,0 l/m 12,2 km/h (2 Bft) NO 53 0 min 0,000 mm 0,0 UV-I 0 W/m -0,9 C -3,1 C 17,7 km/h (3 Bft) 100,00 %
14.03.2016 06:23 1,8 C 82 % 1030,0 hPa 0,0 l/m 15,2 km/h (3 Bft) O-NO 64 0 min 0,000 mm 0,0 UV-I 0 W/m -0,9 C -4,9 C 22,5 km/h (4 Bft) 91,67 %
14.03.2016 06:24 1,8 C 82 % 1030,1 hPa 0,0 l/m 13,6 km/h (3 Bft) O-NO 59 0 min 0,000 mm 0,0 UV-I 0 W/m -0,9 C -4,0 C 19,3 km/h (3 Bft) 98,50 %
14.03.2016 06:25 1,8 C 82 % 1030,1 hPa 0,0 l/m 13,0 km/h (3 Bft) O-NO 66 0 min 0,000 mm 0,0 UV-I 0 W/m -0,9 C -3,6 C 17,7 km/h (3 Bft) 100,00 %
14.03.2016 06:26 1,8 C 82 % 1030,0 hPa 0,0 l/m 13,8 km/h (3 Bft) NO 53 0 min 0,000 mm 0,0 UV-I 0 W/m -0,9 C -4,1 C 17,7 km/h (3 Bft) 100,00 %
14.03.2016 06:27 1,8 C 81 % 1030,0 hPa 0,0 l/m 15,3 km/h (3 Bft) NO 46 0 min 0,000 mm 0,0 UV-I 0 W/m -1,1 C -5,0 C 19,3 km/h (3 Bft) 100,00 %
14.03.2016 06:28 1,8 C 81 % 1030,1 hPa 0,0 l/m 15,6 km/h (3 Bft) NO 42 0 min 0,000 mm 0,0 UV-I 0 W/m -1,1 C -5,1 C 19,3 km/h (3 Bft) 100,00 %
14.03.2016 06:29 1,8 C 81 % 1030,0 hPa 0,0 l/m 14,9 km/h (3 Bft) NO 46 0 min 0,000 mm 0,0 UV-I 2 W/m -1,1 C -4,7 C 17,7 km/h (3 Bft) 100,00 %
14.03.2016 06:30 1,8 C 81 % 1030,0 hPa 0,0 l/m 11,2 km/h (2 Bft) NO 40 0 min 0,000 mm 0,0 UV-I 5 W/m -1,1 C -2,4 C 14,5 km/h (3 Bft) 100,00 %
14.03.2016 06:31 1,8 C 81 % 1030,0 hPa 0,0 l/m 15,5 km/h (3 Bft) NO 34 0 min 0,000 mm 0,0 UV-I 5 W/m -1,1 C -5,1 C 19,3 km/h (3 Bft) 100,00 %
14.03.2016 06:32 1,7 C 81 % 1030,0 hPa 0,0 l/m 16,5 km/h (3 Bft) NO 42 0 min 0,000 mm 0,0 UV-I 5 W/m -1,2 C -5,7 C 22,5 km/h (4 Bft) 92,86 %
14.03.2016 06:33 1,7 C 81 % 1030,0 hPa 0,0 l/m 17,1 km/h (3 Bft) NO 53 0 min 0,000 mm 0,0 UV-I 5 W/m -1,2 C -6,1 C 22,5 km/h (4 Bft) 100,00 %
14.03.2016 06:34 1,7 C 81 % 1030,0 hPa 0,0 l/m 16,8 km/h (3 Bft) O-NO 63 0 min 0,000 mm 0,0 UV-I 5 W/m -1,2 C -5,9 C 20,9 km/h (4 Bft) 100,00 %
14.03.2016 06:35 1,7 C 81 % 1030,0 hPa 0,0 l/m 15,9 km/h (3 Bft) O-NO 65 0 min 0,000 mm 0,0 UV-I 7 W/m -1,2 C -5,4 C 17,7 km/h (3 Bft) 95,83 %
14.03.2016 06:36 1,7 C 81 % 1030,0 hPa 0,0 l/m 14,3 km/h (3 Bft) O-NO 59 0 min 0,000 mm 0,0 UV-I 7 W/m -1,2 C -4,5 C 19,3 km/h (3 Bft) 100,00 %
14.03.2016 06:37 1,7 C 80 % 1030,0 hPa 0,0 l/m 19,2 km/h (3 Bft) NO 37 0 min 0,000 mm 0,0 UV-I 7 W/m -1,4 C -7,1 C 22,5 km/h (4 Bft) 95,65 %
14.03.2016 06:38 1,7 C 80 % 1030,0 hPa 0,0 l/m 15,3 km/h (3 Bft) NO 48 0 min 0,000 mm 0,0 UV-I 7 W/m -1,4 C -5,1 C 20,9 km/h (4 Bft) 100,00 %
14.03.2016 06:39 1,7 C 80 % 1030,1 hPa 0,0 l/m 17,0 km/h (3 Bft) NO 52 0 min 0,000 mm 0,0 UV-I 7 W/m -1,4 C -6,0 C 20,9 km/h (4 Bft) 100,00 %
14.03.2016 06:40 1,7 C 80 % 1030,0 hPa 0,0 l/m 15,3 km/h (3 Bft) O-NO 65 0 min 0,000 mm 0,0 UV-I 9 W/m -1,4 C -5,1 C 19,3 km/h (3 Bft) 100,00 %
14.03.2016 06:41 1,7 C 80 % 1030,1 hPa 0,0 l/m 11,7 km/h (2 Bft) N-NO 33 0 min 0,000 mm 0,0 UV-I 9 W/m -1,4 C -2,8 C 20,9 km/h (4 Bft) 100,00 %
14.03.2016 06:42 1,7 C 81 % 1030,1 hPa 0,0 l/m 16,3 km/h (3 Bft) NO 49 0 min 0,000 mm 0,0 UV-I 10 W/m -1,2 C -5,6 C 22,5 km/h (4 Bft) 100,00 %
14.03.2016 06:43 1,7 C 81 % 1030,1 hPa 0,0 l/m 11,1 km/h (2 Bft) O-NO 61 0 min 0,000 mm 0,0 UV-I 11 W/m -1,2 C -2,4 C 16,1 km/h (3 Bft) 96,15 %
14.03.2016 06:44 1,7 C 81 % 1030,1 hPa 0,0 l/m 13,6 km/h (3 Bft) O-NO 70 0 min 0,000 mm 0,0 UV-I 11 W/m -1,2 C -4,1 C 19,3 km/h (3 Bft) 100,00 %
14.03.2016 06:45 1,7 C 80 % 1030,0 hPa 0,0 l/m 15,2 km/h (3 Bft) NO 46 0 min 0,000 mm 0,0 UV-I 12 W/m -1,4 C -5,0 C 19,3 km/h (3 Bft) 100,00 %
14.03.2016 06:46 1,7 C 80 % 1030,1 hPa 0,0 l/m 13,6 km/h (3 Bft) NO 55 0 min 0,000 mm 0,0 UV-I 12 W/m -1,4 C -4,1 C 19,3 km/h (3 Bft) 100,00 %
14.03.2016 06:47 1,7 C 81 % 1030,1 hPa 0,0 l/m 14,6 km/h (3 Bft) NO 53 0 min 0,000 mm 0,0 UV-I 15 W/m -1,2 C -4,7 C 19,3 km/h (3 Bft) 100,00 %
14.03.2016 06:48 1,7 C 80 % 1030,1 hPa 0,0 l/m 12,0 km/h (2 Bft) O-NO 63 0 min 0,000 mm 0,0 UV-I 16 W/m -1,4 C -3,0 C 14,5 km/h (3 Bft) 100,00 %
14.03.2016 06:49 1,7 C 81 % 1030,1 hPa 0,0 l/m 12,2 km/h (2 Bft) O 81 0 min 0,000 mm 0,0 UV-I 16 W/m -1,2 C -3,2 C 16,1 km/h (3 Bft) 100,00 %
14.03.2016 06:50 1,7 C 81 % 1030,1 hPa 0,0 l/m 14,9 km/h (3 Bft) O-NO 65 0 min 0,000 mm 0,0 UV-I 16 W/m -1,2 C -4,9 C 20,9 km/h (4 Bft) 100,00 %
14.03.2016 06:51 1,7 C 80 % 1030,1 hPa 0,0 l/m 12,1 km/h (2 Bft) N 10 0 min 0,000 mm 0,0 UV-I 16 W/m -1,4 C -3,1 C 17,7 km/h (3 Bft) 100,00 %
14.03.2016 06:52 1,7 C 80 % 1030,1 hPa 0,0 l/m 13,5 km/h (3 Bft) O-NO 62 0 min 0,000 mm 0,0 UV-I 18 W/m -1,4 C -4,0 C 19,3 km/h (3 Bft) 100,00 %
14.03.2016 06:53 1,7 C 81 % 1030,1 hPa 0,0 l/m 19,9 km/h (4 Bft) O-NO 59 0 min 0,000 mm 0,0 UV-I 18 W/m -1,2 C -7,4 C 24,1 km/h (4 Bft) 100,00 %
14.03.2016 06:54 1,7 C 80 % 1030,1 hPa 0,0 l/m 13,0 km/h (3 Bft) NO 44 0 min 0,000 mm 0,0 UV-I 19 W/m -1,4 C -3,7 C 17,7 km/h (3 Bft) 98,66 %
14.03.2016 06:55 1,7 C 81 % 1030,1 hPa 0,0 l/m 17,8 km/h (3 Bft) NO 39 0 min 0,000 mm 0,0 UV-I 19 W/m -1,2 C -6,4 C 24,1 km/h (4 Bft) 97,56 %
14.03.2016 06:56 1,7 C 81 % 1030,2 hPa 0,0 l/m 15,5 km/h (3 Bft) NO 51 0 min 0,000 mm 0,0 UV-I 21 W/m -1,2 C -5,2 C 19,3 km/h (3 Bft) 100,00 %
14.03.2016 06:57 1,7 C 81 % 1030,2 hPa 0,0 l/m 10,9 km/h (2 Bft) O-NO 63 0 min 0,000 mm 0,0 UV-I 21 W/m -1,2 C -2,3 C 16,1 km/h (3 Bft) 100,00 %
14.03.2016 06:58 1,7 C 81 % 1030,2 hPa 0,0 l/m 16,3 km/h (3 Bft) NO 39 0 min 0,000 mm 0,0 UV-I 22 W/m -1,2 C -5,6 C 24,1 km/h (4 Bft) 100,00 %
14.03.2016 06:59 1,7 C 81 % 1030,2 hPa 0,0 l/m 18,6 km/h (3 Bft) NO 46 0 min 0,000 mm 0,0 UV-I 24 W/m -1,2 C -6,8 C 24,1 km/h (4 Bft) 100,00 %
14.03.2016 07:00 1,7 C 81 % 1030,2 hPa 0,0 l/m 18,0 km/h (3 Bft) O-NO 58 0 min 0,025 mm 0,0 UV-I 26 W/m -1,2 C -6,5 C 22,5 km/h (4 Bft) 100,00 %
14.03.2016 07:01 1,7 C 81 % 1030,2 hPa 0,0 l/m 15,5 km/h (3 Bft) N-NO 25 0 min 0,000 mm 0,0 UV-I 26 W/m -1,2 C -5,2 C 17,7 km/h (3 Bft) 100,00 %
14.03.2016 07:02 1,7 C 82 % 1030,2 hPa 0,0 l/m 14,9 km/h (3 Bft) N-NO 30 0 min 0,000 mm 0,0 UV-I 28 W/m -1,0 C -4,9 C 19,3 km/h (3 Bft) 92,31 %
14.03.2016 07:03 1,7 C 82 % 1030,2 hPa 0,0 l/m 18,1 km/h (3 Bft) NO 43 0 min 0,000 mm 0,0 UV-I 28 W/m -1,0 C -6,6 C 22,5 km/h (4 Bft) 100,00 %
14.03.2016 07:04 1,7 C 82 % 1030,3 hPa 0,0 l/m 17,6 km/h (3 Bft) NO 45 0 min 0,000 mm 0,0 UV-I 28 W/m -1,0 C -6,3 C 22,5 km/h (4 Bft) 100,00 %
14.03.2016 07:05 1,7 C 82 % 1030,2 hPa 0,0 l/m 14,5 km/h (3 Bft) NO 48 0 min 0,000 mm 0,0 UV-I 28 W/m -1,0 C -4,6 C 19,3 km/h (3 Bft) 100,00 %
14.03.2016 07:06 1,7 C 81 % 1030,3 hPa 0,0 l/m 12,8 km/h (3 Bft) NO 51 0 min 0,000 mm 0,0 UV-I 28 W/m -1,2 C -3,6 C 17,7 km/h (3 Bft) 100,00 %
14.03.2016 07:07 1,7 C 81 % 1030,3 hPa 0,0 l/m 14,6 km/h (3 Bft) NO 35 0 min 0,000 mm 0,0 UV-I 30 W/m -1,2 C -4,7 C 20,9 km/h (4 Bft) 100,00 %
14.03.2016 07:08 1,7 C 81 % 1030,3 hPa 0,0 l/m 9,9 km/h (2 Bft) NO 55 0 min 0,000 mm 0,0 UV-I 30 W/m -1,2 C -1,5 C 14,5 km/h (3 Bft) 100,00 %
14.03.2016 07:09 1,7 C 81 % 1030,3 hPa 0,0 l/m 10,1 km/h (2 Bft) NO 45 0 min 0,000 mm 0,0 UV-I 30 W/m -1,2 C -1,7 C 16,1 km/h (3 Bft) 100,00 %
14.03.2016 07:10 1,7 C 81 % 1030,3 hPa 0,0 l/m 12,1 km/h (2 Bft) NO 40 0 min 0,000 mm 0,0 UV-I 32 W/m -1,2 C -3,1 C 17,7 km/h (3 Bft) 100,00 %
14.03.2016 07:11 1,7 C 81 % 1030,3 hPa 0,0 l/m 9,5 km/h (2 Bft) NO 43 0 min 0,000 mm 0,0 UV-I 32 W/m -1,2 C -1,2 C 12,9 km/h (3 Bft) 100,00 %
14.03.2016 07:12 1,7 C 81 % 1030,3 hPa 0,0 l/m 10,2 km/h (2 Bft) N-NO 22 0 min 0,000 mm 0,0 UV-I 33 W/m -1,2 C -1,7 C 16,1 km/h (3 Bft) 100,00 %
14.03.2016 07:13 1,7 C 81 % 1030,4 hPa 0,0 l/m 16,2 km/h (3 Bft) NO 53 0 min 0,000 mm 0,0 UV-I 34 W/m -1,2 C -5,6 C 22,5 km/h (4 Bft) 100,00 %
14.03.2016 07:14 1,7 C 81 % 1030,3 hPa 0,0 l/m 13,4 km/h (3 Bft) NO 51 0 min 0,000 mm 0,0 UV-I 37 W/m -1,2 C -4,0 C 17,7 km/h (3 Bft) 100,00 %
14.03.2016 07:15 1,7 C 81 % 1030,4 hPa 0,0 l/m 13,8 km/h (3 Bft) NO 41 0 min 0,000 mm 0,0 UV-I 37 W/m -1,2 C -4,2 C 17,7 km/h (3 Bft) 100,00 %
14.03.2016 07:16 1,7 C 81 % 1030,4 hPa 0,0 l/m 12,3 km/h (3 Bft) N-NO 27 0 min 0,000 mm 0,0 UV-I 39 W/m -1,2 C -3,2 C 19,3 km/h (3 Bft) 100,00 %
14.03.2016 07:17 1,7 C 81 % 1030,4 hPa 0,0 l/m 14,7 km/h (3 Bft) NO 43 0 min 0,000 mm 0,0 UV-I 40 W/m -1,2 C -4,7 C 24,1 km/h (4 Bft) 100,00 %
14.03.2016 07:20 1,7 C 82 % 1030,4 hPa 0,0 l/m 14,6 km/h (3 Bft) O-NO 59 0 min 0,000 mm 0,0 UV-I 40 W/m -1,0 C -4,7 C 17,7 km/h (3 Bft) 100,00 %
14.03.2016 07:21 1,7 C 82 % 1030,4 hPa 0,0 l/m 13,1 km/h (3 Bft) NO 42 0 min 0,000 mm 0,0 UV-I 40 W/m -1,0 C -3,8 C 20,9 km/h (4 Bft) 100,00 %
14.03.2016 07:22 1,7 C 82 % 1030,5 hPa 0,0 l/m 17,8 km/h (3 Bft) NO 48 0 min 0,000 mm 0,0 UV-I 40 W/m -1,0 C -6,4 C 19,3 km/h (3 Bft) 100,00 %
14.03.2016 07:23 1,7 C 81 % 1030,4 hPa 0,0 l/m 13,8 km/h (3 Bft) N-NO 30 0 min 0,000 mm 0,0 UV-I 39 W/m -1,2 C -4,2 C 17,7 km/h (3 Bft) 96,88 %
14.03.2016 07:24 1,7 C 81 % 1030,5 hPa 0,0 l/m 11,0 km/h (2 Bft) NO 36 0 min 0,000 mm 0,0 UV-I 39 W/m -1,2 C -2,3 C 17,7 km/h (3 Bft) 100,00 %
14.03.2016 07:25 1,7 C 82 % 1030,5 hPa 0,0 l/m 14,4 km/h (3 Bft) N-NO 15 0 min 0,000 mm 0,0 UV-I 38 W/m -1,0 C -4,6 C 19,3 km/h (3 Bft) 100,00 %
14.03.2016 07:26 1,7 C 82 % 1030,6 hPa 0,0 l/m 12,5 km/h (3 Bft) O-NO 63 0 min 0,000 mm 0,0 UV-I 39 W/m -1,0 C -3,4 C 16,1 km/h (3 Bft) 100,00 %
14.03.2016 07:27 1,8 C 82 % 1030,5 hPa 0,0 l/m 8,7 km/h (2 Bft) NO 35 0 min 0,000 mm 0,0 UV-I 39 W/m -0,9 C -0,4 C 12,9 km/h (3 Bft) 100,00 %
14.03.2016 07:28 1,7 C 81 % 1030,5 hPa 0,0 l/m 11,7 km/h (2 Bft) O-NO 60 0 min 0,000 mm 0,0 UV-I 39 W/m -1,2 C -2,8 C 17,7 km/h (3 Bft) 100,00 %
14.03.2016 07:29 1,7 C 81 % 1030,6 hPa 0,0 l/m 11,2 km/h (2 Bft) NO 41 0 min 0,000 mm 0,0 UV-I 39 W/m -1,2 C -2,5 C 19,3 km/h (3 Bft) 100,00 %
14.03.2016 07:30 1,7 C 81 % 1030,6 hPa 0,0 l/m 17,5 km/h (3 Bft) NO 38 0 min 0,000 mm 0,0 UV-I 39 W/m -1,2 C -6,3 C 20,9 km/h (4 Bft) 100,00 %
14.03.2016 07:31 1,8 C 81 % 1030,6 hPa 0,0 l/m 12,3 km/h (3 Bft) NO 50 0 min 0,000 mm 0,0 UV-I 39 W/m -1,1 C -3,1 C 17,7 km/h (3 Bft) 96,15 %
14.03.2016 07:32 1,8 C 81 % 1030,6 hPa 0,0 l/m 10,6 km/h (2 Bft) NO 56 0 min 0,000 mm 0,0 UV-I 39 W/m -1,1 C -1,9 C 14,5 km/h (3 Bft) 100,00 %
14.03.2016 07:33 1,8 C 81 % 1030,6 hPa 0,0 l/m 8,2 km/h (2 Bft) NO 40 0 min 0,000 mm 0,0 UV-I 41 W/m -1,1 C 0,1 C 11,3 km/h (2 Bft) 100,00 %
14.03.2016 07:34 1,7 C 81 % 1030,6 hPa 0,0 l/m 10,8 km/h (2 Bft) NO 47 0 min 0,000 mm 0,0 UV-I 42 W/m -1,2 C -2,2 C 14,5 km/h (3 Bft) 100,00 %
14.03.2016 07:35 1,8 C 81 % 1030,6 hPa 0,0 l/m 9,7 km/h (2 Bft) NO 36 0 min 0,000 mm 0,0 UV-I 43 W/m -1,1 C -1,2 C 12,9 km/h (3 Bft) 100,00 %
14.03.2016 07:36 1,8 C 81 % 1030,6 hPa 0,0 l/m 11,4 km/h (2 Bft) N-NO 26 0 min 0,000 mm 0,0 UV-I 44 W/m -1,1 C -2,5 C 14,5 km/h (3 Bft) 100,00 %
14.03.2016 07:37 1,8 C 81 % 1030,6 hPa 0,0 l/m 13,0 km/h (3 Bft) O-NO 73 0 min 0,000 mm 0,0 UV-I 44 W/m -1,1 C -3,6 C 16,1 km/h (3 Bft) 100,00 %
14.03.2016 07:38 1,8 C 82 % 1030,6 hPa 0,0 l/m 13,4 km/h (3 Bft) NO 40 0 min 0,000 mm 0,0 UV-I 46 W/m -0,9 C -3,8 C 19,3 km/h (3 Bft) 100,00 %
14.03.2016 07:39 1,8 C 82 % 1030,6 hPa 0,0 l/m 11,7 km/h (2 Bft) NO 44 0 min 0,000 mm 0,0 UV-I 46 W/m -0,9 C -2,7 C 16,1 km/h (3 Bft) 100,00 %
14.03.2016 07:40 1,8 C 82 % 1030,7 hPa 0,0 l/m 12,0 km/h (2 Bft) O-NO 65 0 min 0,000 mm 0,0 UV-I 47 W/m -0,9 C -2,9 C 16,1 km/h (3 Bft) 100,00 %
14.03.2016 07:41 1,8 C 82 % 1030,6 hPa 0,0 l/m 10,0 km/h (2 Bft) N-NO 22 0 min 0,000 mm 0,0 UV-I 47 W/m -0,9 C -1,5 C 12,9 km/h (3 Bft) 100,00 %
14.03.2016 07:42 1,8 C 82 % 1030,7 hPa 0,0 l/m 10,8 km/h (2 Bft) N-NO 30 0 min 0,000 mm 0,0 UV-I 47 W/m -0,9 C -2,1 C 16,1 km/h (3 Bft) 100,00 %
14.03.2016 07:43 1,8 C 81 % 1030,7 hPa 0,0 l/m 8,1 km/h (2 Bft) NO 39 0 min 0,000 mm 0,0 UV-I 46 W/m -1,1 C 0,2 C 12,9 km/h (3 Bft) 100,00 %
14.03.2016 07:44 1,8 C 82 % 1030,7 hPa 0,0 l/m 12,6 km/h (3 Bft) NO 36 0 min 0,000 mm 0,0 UV-I 46 W/m -0,9 C -3,3 C 16,1 km/h (3 Bft) 96,67 %
14.03.2016 07:45 1,8 C 82 % 1030,8 hPa 0,0 l/m 10,4 km/h (2 Bft) NO 44 0 min 0,000 mm 0,0 UV-I 46 W/m -0,9 C -1,8 C 12,9 km/h (3 Bft) 100,00 %
14.03.2016 07:46 1,8 C 82 % 1030,8 hPa 0,0 l/m 11,0 km/h (2 Bft) NO 44 0 min 0,000 mm 0,0 UV-I 46 W/m -0,9 C -2,2 C 16,1 km/h (3 Bft) 100,00 %
14.03.2016 07:47 1,8 C 82 % 1030,8 hPa 0,0 l/m 9,7 km/h (2 Bft) NO 42 0 min 0,000 mm 0,0 UV-I 45 W/m -0,9 C -1,2 C 14,5 km/h (3 Bft) 96,30 %
14.03.2016 07:48 1,8 C 82 % 1030,8 hPa 0,0 l/m 12,8 km/h (3 Bft) NO 39 0 min 0,000 mm 0,0 UV-I 44 W/m -0,9 C -3,5 C 16,1 km/h (3 Bft) 100,00 %
14.03.2016 07:49 1,8 C 83 % 1030,9 hPa 0,0 l/m 10,3 km/h (2 Bft) NO 36 0 min 0,000 mm 0,0 UV-I 42 W/m -0,8 C -1,7 C 17,7 km/h (3 Bft) 91,67 %
14.03.2016 07:50 1,8 C 82 % 1030,9 hPa 0,0 l/m 10,3 km/h (2 Bft) NO 38 0 min 0,000 mm 0,0 UV-I 44 W/m -0,9 C -1,7 C 14,5 km/h (3 Bft) 100,00 %
14.03.2016 07:51 1,8 C 82 % 1030,9 hPa 0,0 l/m 9,7 km/h (2 Bft) N-NO 33 0 min 0,000 mm 0,0 UV-I 44 W/m -0,9 C -1,2 C 12,9 km/h (3 Bft) 100,00 %
14.03.2016 07:52 1,8 C 82 % 1030,9 hPa 0,0 l/m 10,3 km/h (2 Bft) NO 34 0 min 0,000 mm 0,0 UV-I 44 W/m -0,9 C -1,7 C 14,5 km/h (3 Bft) 100,00 %
14.03.2016 07:53 1,8 C 83 % 1030,9 hPa 0,0 l/m 9,4 km/h (2 Bft) NO 38 0 min 0,000 mm 0,0 UV-I 43 W/m -0,8 C -1,0 C 16,1 km/h (3 Bft) 96,55 %
14.03.2016 07:54 1,8 C 83 % 1030,9 hPa 0,0 l/m 11,4 km/h (2 Bft) NO 43 0 min 0,000 mm 0,0 UV-I 42 W/m -0,8 C -2,5 C 17,7 km/h (3 Bft) 93,10 %
14.03.2016 07:55 1,8 C 82 % 1031,0 hPa 0,0 l/m 9,2 km/h (2 Bft) N-NO 28 0 min 0,000 mm 0,0 UV-I 42 W/m -0,9 C -0,8 C 12,9 km/h (3 Bft) 100,00 %
14.03.2016 07:56 1,8 C 82 % 1030,9 hPa 0,0 l/m 6,9 km/h (2 Bft) O-NO 57 0 min 0,000 mm 0,0 UV-I 40 W/m -0,9 C 1,3 C 9,7 km/h (2 Bft) 96,55 %
14.03.2016 07:57 1,8 C 82 % 1030,9 hPa 0,0 l/m 10,5 km/h (2 Bft) NO 51 0 min 0,000 mm 0,0 UV-I 40 W/m -0,9 C -1,8 C 14,5 km/h (3 Bft) 100,00 %
14.03.2016 07:58 1,8 C 82 % 1030,9 hPa 0,0 l/m 8,3 km/h (2 Bft) NO 47 0 min 0,000 mm 0,0 UV-I 41 W/m -0,9 C -0,0 C 11,3 km/h (2 Bft) 96,30 %
14.03.2016 07:59 1,8 C 82 % 1030,9 hPa 0,0 l/m 9,3 km/h (2 Bft) O-NO 64 0 min 0,000 mm 0,0 UV-I 42 W/m -0,9 C -0,9 C 16,1 km/h (3 Bft) 96,15 %
14.03.2016 08:00 1,8 C 82 % 1030,9 hPa 0,0 l/m 9,5 km/h (2 Bft) NO 55 0 min 0,000 mm 0,0 UV-I 42 W/m -0,9 C -1,1 C 17,7 km/h (3 Bft) 93,33 %
14.03.2016 08:01 1,8 C 82 % 1030,9 hPa 0,0 l/m 12,6 km/h (3 Bft) NO 52 0 min 0,026 mm 0,0 UV-I 42 W/m -0,9 C -3,3 C 16,1 km/h (3 Bft) 97,14 %
14.03.2016 08:02 1,8 C 82 % 1030,9 hPa 0,0 l/m 9,6 km/h (2 Bft) N-NO 25 0 min 0,000 mm 0,0 UV-I 43 W/m -0,9 C -1,1 C 14,5 km/h (3 Bft) 100,00 %
14.03.2016 08:03 1,8 C 82 % 1030,9 hPa 0,0 l/m 11,0 km/h (2 Bft) NO 44 0 min 0,000 mm 0,0 UV-I 45 W/m -0,9 C -2,2 C 16,1 km/h (3 Bft) 96,15 %
14.03.2016 08:04 1,8 C 82 % 1030,8 hPa 0,0 l/m 12,0 km/h (2 Bft) NO 48 0 min 0,000 mm 0,0 UV-I 46 W/m -0,9 C -2,9 C 16,1 km/h (3 Bft) 100,00 %
14.03.2016 08:05 1,8 C 82 % 1030,8 hPa 0,0 l/m 9,7 km/h (2 Bft) O-NO 63 0 min 0,000 mm 0,0 UV-I 46 W/m -0,9 C -1,2 C 14,5 km/h (3 Bft) 95,65 %
14.03.2016 08:06 1,8 C 82 % 1030,8 hPa 0,0 l/m 10,2 km/h (2 Bft) O-NO 69 0 min 0,000 mm 0,0 UV-I 46 W/m -0,9 C -1,6 C 14,5 km/h (3 Bft) 100,00 %
14.03.2016 08:07 1,8 C 82 % 1030,9 hPa 0,0 l/m 7,2 km/h (2 Bft) NO 49 0 min 0,000 mm 0,0 UV-I 47 W/m -0,9 C 1,0 C 11,3 km/h (2 Bft) 96,15 %
14.03.2016 08:08 1,8 C 82 % 1030,9 hPa 0,0 l/m 9,3 km/h (2 Bft) NO 52 0 min 0,000 mm 0,0 UV-I 48 W/m -0,9 C -0,9 C 12,9 km/h (3 Bft) 100,00 %
14.03.2016 08:09 1,8 C 82 % 1031,0 hPa 0,0 l/m 11,6 km/h (2 Bft) O-NO 63 0 min 0,000 mm 0,0 UV-I 49 W/m -0,9 C -2,7 C 16,1 km/h (3 Bft) 88,24 %
14.03.2016 08:10 1,8 C 82 % 1030,9 hPa 0,0 l/m 10,8 km/h (2 Bft) O-NO 64 0 min 0,000 mm 0,0 UV-I 50 W/m -0,9 C -2,1 C 14,5 km/h (3 Bft) 96,30 %
14.03.2016 08:11 1,8 C 82 % 1030,9 hPa 0,0 l/m 8,6 km/h (2 Bft) N-NO 33 0 min 0,000 mm 0,0 UV-I 51 W/m -0,9 C -0,3 C 11,3 km/h (2 Bft) 100,00 %
14.03.2016 08:12 1,8 C 82 % 1030,9 hPa 0,0 l/m 9,0 km/h (2 Bft) NO 38 0 min 0,000 mm 0,0 UV-I 53 W/m -0,9 C -0,6 C 14,5 km/h (3 Bft) 100,00 %
14.03.2016 08:13 1,8 C 82 % 1030,9 hPa 0,0 l/m 7,6 km/h (2 Bft) NO 51 0 min 0,000 mm 0,0 UV-I 54 W/m -0,9 C 0,6 C 11,3 km/h (2 Bft) 96,43 %
14.03.2016 08:14 1,8 C 82 % 1030,9 hPa 0,0 l/m 8,8 km/h (2 Bft) NO 38 0 min 0,000 mm 0,0 UV-I 54 W/m -0,9 C -0,5 C 14,5 km/h (3 Bft) 96,30 %
14.03.2016 08:15 1,8 C 82 % 1030,9 hPa 0,0 l/m 7,6 km/h (2 Bft) NO 55 0 min 0,000 mm 0,0 UV-I 56 W/m -0,9 C 0,6 C 9,7 km/h (2 Bft) 100,00 %
14.03.2016 08:16 1,8 C 83 % 1030,9 hPa 0,0 l/m 13,1 km/h (3 Bft) NO 54 0 min 0,000 mm 0,0 UV-I 55 W/m -0,8 C -3,7 C 17,7 km/h (3 Bft) 96,15 %
14.03.2016 08:17 1,8 C 82 % 1030,9 hPa 0,0 l/m 14,6 km/h (3 Bft) O-NO 61 0 min 0,000 mm 0,0 UV-I 54 W/m -0,9 C -4,6 C 19,3 km/h (3 Bft) 100,00 %
14.03.2016 08:18 1,8 C 82 % 1030,9 hPa 0,0 l/m 8,9 km/h (2 Bft) O-NO 72 0 min 0,000 mm 0,0 UV-I 54 W/m -0,9 C -0,6 C 9,7 km/h (2 Bft) 91,30 %
14.03.2016 08:19 1,8 C 83 % 1030,9 hPa 0,0 l/m 8,9 km/h (2 Bft) NO 53 0 min 0,000 mm 0,0 UV-I 54 W/m -0,8 C -0,6 C 12,9 km/h (3 Bft) 100,00 %
14.03.2016 08:20 1,8 C 83 % 1030,9 hPa 0,0 l/m 9,9 km/h (2 Bft) O 80 0 min 0,000 mm 0,0 UV-I 55 W/m -0,8 C -1,4 C 16,1 km/h (3 Bft) 95,65 %
14.03.2016 08:21 1,8 C 83 % 1030,8 hPa 0,0 l/m 12,9 km/h (3 Bft) NO 49 0 min 0,000 mm 0,0 UV-I 56 W/m -0,8 C -3,5 C 19,3 km/h (3 Bft) 95,83 %
14.03.2016 08:22 1,8 C 82 % 1030,8 hPa 0,0 l/m 10,3 km/h (2 Bft) O-NO 60 0 min 0,000 mm 0,0 UV-I 56 W/m -0,9 C -1,7 C 14,5 km/h (3 Bft) 100,00 %
14.03.2016 08:23 1,8 C 83 % 1030,9 hPa 0,0 l/m 10,0 km/h (2 Bft) NO 56 0 min 0,000 mm 0,0 UV-I 56 W/m -0,8 C -1,5 C 16,1 km/h (3 Bft) 95,83 %
14.03.2016 08:24 1,8 C 83 % 1030,9 hPa 0,0 l/m 12,1 km/h (2 Bft) O-NO 59 0 min 0,000 mm 0,0 UV-I 58 W/m -0,8 C -3,0 C 17,7 km/h (3 Bft) 100,00 %
14.03.2016 08:25 1,8 C 83 % 1030,9 hPa 0,0 l/m 8,9 km/h (2 Bft) O 85 0 min 0,000 mm 0,0 UV-I 58 W/m -0,8 C -0,6 C 14,5 km/h (3 Bft) 92,59 %
14.03.2016 08:26 1,8 C 82 % 1030,9 hPa 0,0 l/m 9,1 km/h (2 Bft) O-NO 75 0 min 0,000 mm 0,0 UV-I 59 W/m -0,9 C -0,7 C 11,3 km/h (2 Bft) 100,00 %
14.03.2016 08:27 1,8 C 83 % 1030,9 hPa 0,0 l/m 11,1 km/h (2 Bft) O-NO 59 0 min 0,000 mm 0,0 UV-I 60 W/m -0,8 C -2,3 C 16,1 km/h (3 Bft) 96,67 %
14.03.2016 08:28 1,8 C 83 % 1030,9 hPa 0,0 l/m 10,5 km/h (2 Bft) O-NO 62 0 min 0,000 mm 0,0 UV-I 60 W/m -0,8 C -1,8 C 14,5 km/h (3 Bft) 96,55 %
14.03.2016 08:29 1,8 C 83 % 1030,9 hPa 0,0 l/m 9,5 km/h (2 Bft) O-NO 57 0 min 0,000 mm 0,0 UV-I 60 W/m -0,8 C -1,1 C 16,1 km/h (3 Bft) 100,00 %
14.03.2016 08:30 1,8 C 83 % 1031,0 hPa 0,0 l/m 15,9 km/h (3 Bft) NO 49 0 min 0,000 mm 0,0 UV-I 60 W/m -0,8 C -5,3 C 22,5 km/h (4 Bft) 100,00 %
14.03.2016 08:31 1,8 C 83 % 1030,9 hPa 0,0 l/m 14,8 km/h (3 Bft) O-NO 61 0 min 0,000 mm 0,0 UV-I 60 W/m -0,8 C -4,7 C 19,3 km/h (3 Bft) 100,00 %
14.03.2016 08:32 1,8 C 83 % 1031,0 hPa 0,0 l/m 13,2 km/h (3 Bft) NO 50 0 min 0,000 mm 0,0 UV-I 62 W/m -0,8 C -3,7 C 17,7 km/h (3 Bft) 100,00 %
14.03.2016 08:33 1,8 C 83 % 1030,9 hPa 0,0 l/m 13,2 km/h (3 Bft) O-NO 73 0 min 0,000 mm 0,0 UV-I 62 W/m -0,8 C -3,7 C 16,1 km/h (3 Bft) 100,00 %
14.03.2016 08:34 1,8 C 83 % 1030,9 hPa 0,0 l/m 12,6 km/h (3 Bft) O-NO 61 0 min 0,000 mm 0,0 UV-I 64 W/m -0,8 C -3,3 C 17,7 km/h (3 Bft) 100,00 %
14.03.2016 08:35 1,8 C 83 % 1030,9 hPa 0,0 l/m 14,1 km/h (3 Bft) O-NO 58 0 min 0,000 mm 0,0 UV-I 65 W/m -0,8 C -4,3 C 17,7 km/h (3 Bft) 100,00 %
14.03.2016 08:36 1,8 C 83 % 1030,9 hPa 0,0 l/m 13,4 km/h (3 Bft) NO 47 0 min 0,000 mm 0,0 UV-I 67 W/m -0,8 C -3,8 C 17,7 km/h (3 Bft) 100,00 %
14.03.2016 08:37 1,8 C 83 % 1030,9 hPa 0,0 l/m 13,2 km/h (3 Bft) O-NO 60 0 min 0,000 mm 0,0 UV-I 67 W/m -0,8 C -3,7 C 19,3 km/h (3 Bft) 95,65 %
14.03.2016 08:38 1,9 C 83 % 1030,9 hPa 0,0 l/m 11,1 km/h (2 Bft) NO 47 0 min 0,000 mm 0,0 UV-I 66 W/m -0,7 C -2,2 C 14,5 km/h (3 Bft) 95,83 %
14.03.2016 08:39 1,9 C 83 % 1030,9 hPa 0,0 l/m 15,4 km/h (3 Bft) O-NO 74 0 min 0,000 mm 0,0 UV-I 66 W/m -0,7 C -4,9 C 20,9 km/h (4 Bft) 96,15 %
14.03.2016 08:40 1,8 C 83 % 1030,9 hPa 0,0 l/m 15,0 km/h (3 Bft) O-NO 65 0 min 0,000 mm 0,0 UV-I 67 W/m -0,8 C -4,8 C 19,3 km/h (3 Bft) 100,00 %
14.03.2016 08:41 1,8 C 83 % 1031,0 hPa 0,0 l/m 14,3 km/h (3 Bft) O-NO 67 0 min 0,000 mm 0,0 UV-I 67 W/m -0,8 C -4,4 C 17,7 km/h (3 Bft) 100,00 %
14.03.2016 08:42 1,9 C 82 % 1030,9 hPa 0,0 l/m 15,3 km/h (3 Bft) NO 51 0 min 0,000 mm 0,0 UV-I 69 W/m -0,8 C -4,8 C 19,3 km/h (3 Bft) 100,00 %
14.03.2016 08:43 1,9 C 82 % 1030,9 hPa 0,0 l/m 14,5 km/h (3 Bft) O-NO 69 0 min 0,000 mm 0,0 UV-I 70 W/m -0,8 C -4,4 C 19,3 km/h (3 Bft) 100,00 %
14.03.2016 08:44 1,9 C 83 % 1030,9 hPa 0,0 l/m 14,1 km/h (3 Bft) NO 51 0 min 0,000 mm 0,0 UV-I 71 W/m -0,7 C -4,2 C 16,1 km/h (3 Bft) 100,00 %
14.03.2016 08:45 1,9 C 82 % 1030,9 hPa 0,0 l/m 12,1 km/h (2 Bft) NO 51 0 min 0,000 mm 0,0 UV-I 72 W/m -0,8 C -2,9 C 16,1 km/h (3 Bft) 100,00 %
14.03.2016 08:46 1,9 C 83 % 1031,0 hPa 0,0 l/m 12,0 km/h (2 Bft) NO 35 0 min 0,000 mm 0,0 UV-I 73 W/m -0,7 C -2,8 C 14,5 km/h (3 Bft) 100,00 %
14.03.2016 08:47 1,9 C 83 % 1030,9 hPa 0,0 l/m 11,6 km/h (2 Bft) O-NO 62 0 min 0,000 mm 0,0 UV-I 76 W/m -0,7 C -2,5 C 16,1 km/h (3 Bft) 100,00 %
14.03.2016 08:48 1,9 C 83 % 1030,9 hPa 0,0 l/m 14,1 km/h (3 Bft) O-NO 70 0 min 0,000 mm 0,0 UV-I 77 W/m -0,7 C -4,2 C 19,3 km/h (3 Bft) 100,00 %
14.03.2016 08:49 1,9 C 83 % 1030,9 hPa 0,0 l/m 12,0 km/h (2 Bft) O-NO 78 0 min 0,000 mm 0,0 UV-I 80 W/m -0,7 C -2,8 C 16,1 km/h (3 Bft) 100,00 %
14.03.2016 08:50 1,9 C 82 % 1030,9 hPa 0,0 l/m 13,0 km/h (3 Bft) O-NO 78 0 min 0,000 mm 0,0 UV-I 82 W/m -0,8 C -3,5 C 16,1 km/h (3 Bft) 100,00 %
14.03.2016 08:51 1,9 C 82 % 1031,0 hPa 0,0 l/m 9,3 km/h (2 Bft) O-NO 57 0 min 0,000 mm 0,0 UV-I 84 W/m -0,8 C -0,8 C 12,9 km/h (3 Bft) 100,00 %
14.03.2016 08:52 1,9 C 82 % 1031,0 hPa 0,0 l/m 15,0 km/h (3 Bft) O-NO 66 0 min 0,000 mm 0,0 UV-I 84 W/m -0,8 C -4,7 C 20,9 km/h (4 Bft) 100,00 %
14.03.2016 08:53 1,9 C 82 % 1030,9 hPa 0,0 l/m 15,2 km/h (3 Bft) O-NO 65 0 min 0,000 mm 0,0 UV-I 86 W/m -0,8 C -4,8 C 19,3 km/h (3 Bft) 100,00 %
14.03.2016 08:54 1,9 C 82 % 1030,9 hPa 0,0 l/m 16,2 km/h (3 Bft) O 99 0 min 0,000 mm 0,0 UV-I 88 W/m -0,8 C -5,3 C 20,9 km/h (4 Bft) 100,00 %
14.03.2016 08:55 1,9 C 82 % 1030,9 hPa 0,0 l/m 13,8 km/h (3 Bft) O-NO 63 0 min 0,000 mm 0,0 UV-I 90 W/m -0,8 C -4,0 C 19,3 km/h (3 Bft) 100,00 %
14.03.2016 08:56 1,9 C 82 % 1030,9 hPa 0,0 l/m 13,6 km/h (3 Bft) O-NO 65 0 min 0,000 mm 0,0 UV-I 92 W/m -0,8 C -3,9 C 17,7 km/h (3 Bft) 100,00 %
14.03.2016 08:57 1,9 C 82 % 1030,9 hPa 0,0 l/m 15,0 km/h (3 Bft) O-NO 60 0 min 0,000 mm 0,0 UV-I 94 W/m -0,8 C -4,7 C 20,9 km/h (4 Bft) 100,00 %
14.03.2016 08:58 1,9 C 81 % 1030,9 hPa 0,0 l/m 16,5 km/h (3 Bft) NO 50 0 min 0,000 mm 0,0 UV-I 96 W/m -1,0 C -5,5 C 20,9 km/h (4 Bft) 100,00 %
14.03.2016 08:59 1,9 C 82 % 1030,9 hPa 0,0 l/m 17,0 km/h (3 Bft) NO 43 0 min 0,000 mm 0,0 UV-I 98 W/m -0,8 C -5,8 C 19,3 km/h (3 Bft) 96,30 %
14.03.2016 09:00 2,0 C 81 % 1030,9 hPa 0,0 l/m 13,6 km/h (3 Bft) NO 53 0 min 0,050 mm 0,0 UV-I 98 W/m -0,9 C -3,7 C 17,7 km/h (3 Bft) 96,15 %
14.03.2016 09:01 1,9 C 81 % 1030,9 hPa 0,0 l/m 16,8 km/h (3 Bft) O 82 0 min 0,000 mm 0,0 UV-I 98 W/m -1,0 C -5,7 C 19,3 km/h (3 Bft) 100,00 %
14.03.2016 09:02 2,0 C 81 % 1030,9 hPa 0,0 l/m 15,7 km/h (3 Bft) O-NO 62 0 min 0,000 mm 0,0 UV-I 97 W/m -0,9 C -4,9 C 24,1 km/h (4 Bft) 100,00 %
14.03.2016 09:03 2,0 C 82 % 1030,9 hPa 0,0 l/m 11,9 km/h (2 Bft) O-NO 69 0 min 0,000 mm 0,0 UV-I 97 W/m -0,7 C -2,6 C 16,1 km/h (3 Bft) 100,00 %
14.03.2016 09:04 2,0 C 82 % 1030,9 hPa 0,0 l/m 12,2 km/h (2 Bft) NO 53 0 min 0,000 mm 0,0 UV-I 98 W/m -0,7 C -2,8 C 16,1 km/h (3 Bft) 100,00 %
14.03.2016 09:05 2,0 C 82 % 1031,0 hPa 0,0 l/m 13,4 km/h (3 Bft) O 84 0 min 0,000 mm 0,0 UV-I 98 W/m -0,7 C -3,6 C 16,1 km/h (3 Bft) 100,00 %
14.03.2016 09:06 2,0 C 82 % 1031,0 hPa 0,0 l/m 15,7 km/h (3 Bft) O-NO 75 0 min 0,000 mm 0,0 UV-I 98 W/m -0,7 C -4,9 C 17,7 km/h (3 Bft) 100,00 %
14.03.2016 09:07 2,0 C 82 % 1031,0 hPa 0,0 l/m 13,0 km/h (3 Bft) O-NO 63 0 min 0,000 mm 0,0 UV-I 98 W/m -0,7 C -3,4 C 16,1 km/h (3 Bft) 95,83 %
14.03.2016 09:08 2,0 C 82 % 1031,0 hPa 0,0 l/m 11,5 km/h (2 Bft) NO 46 0 min 0,000 mm 0,0 UV-I 98 W/m -0,7 C -2,4 C 16,1 km/h (3 Bft) 96,15 %
14.03.2016 09:09 2,1 C 82 % 1031,0 hPa 0,0 l/m 10,8 km/h (2 Bft) O-NO 62 0 min 0,000 mm 0,0 UV-I 98 W/m -0,6 C -1,7 C 16,1 km/h (3 Bft) 100,00 %
14.03.2016 09:10 2,1 C 82 % 1031,0 hPa 0,0 l/m 15,4 km/h (3 Bft) O-NO 65 0 min 0,000 mm 0,0 UV-I 98 W/m -0,6 C -4,7 C 20,9 km/h (4 Bft) 100,00 %
14.03.2016 09:11 2,1 C 82 % 1031,0 hPa 0,0 l/m 10,5 km/h (2 Bft) NO 44 0 min 0,000 mm 0,0 UV-I 98 W/m -0,6 C -1,5 C 14,5 km/h (3 Bft) 100,00 %
14.03.2016 09:12 2,1 C 82 % 1031,0 hPa 0,0 l/m 10,5 km/h (2 Bft) O-NO 67 0 min 0,000 mm 0,0 UV-I 98 W/m -0,6 C -1,5 C 16,1 km/h (3 Bft) 100,00 %
14.03.2016 09:13 2,1 C 83 % 1031,0 hPa 0,0 l/m 13,0 km/h (3 Bft) O-NO 70 0 min 0,000 mm 0,0 UV-I 101 W/m -0,5 C -3,2 C 17,7 km/h (3 Bft) 100,00 %
14.03.2016 09:14 2,1 C 82 % 1031,0 hPa 0,0 l/m 13,6 km/h (3 Bft) O-NO 71 0 min 0,000 mm 0,0 UV-I 103 W/m -0,6 C -3,6 C 17,7 km/h (3 Bft) 100,00 %
14.03.2016 09:15 2,1 C 82 % 1031,0 hPa 0,0 l/m 9,3 km/h (2 Bft) O-NO 64 0 min 0,000 mm 0,0 UV-I 104 W/m -0,6 C -0,6 C 14,5 km/h (3 Bft) 100,00 %
14.03.2016 09:16 2,1 C 82 % 1031,0 hPa 0,0 l/m 8,9 km/h (2 Bft) O-NO 59 0 min 0,000 mm 0,0 UV-I 104 W/m -0,6 C -0,2 C 14,5 km/h (3 Bft) 100,00 %
14.03.2016 09:17 2,1 C 82 % 1030,9 hPa 0,0 l/m 14,5 km/h (3 Bft) O-NO 69 0 min 0,000 mm 0,0 UV-I 104 W/m -0,6 C -4,2 C 19,3 km/h (3 Bft) 100,00 %
14.03.2016 09:18 2,1 C 80 % 1030,9 hPa 0,0 l/m 14,0 km/h (3 Bft) NO 40 0 min 0,000 mm 0,0 UV-I 105 W/m -1,0 C -3,9 C 17,7 km/h (3 Bft) 100,00 %
14.03.2016 09:19 2,1 C 80 % 1030,9 hPa 0,0 l/m 15,4 km/h (3 Bft) O 83 0 min 0,000 mm 0,0 UV-I 105 W/m -1,0 C -4,7 C 20,9 km/h (4 Bft) 95,65 %
14.03.2016 09:20 2,1 C 81 % 1030,9 hPa 0,0 l/m 14,4 km/h (3 Bft) O-NO 65 0 min 0,000 mm 0,0 UV-I 105 W/m -0,8 C -4,1 C 20,9 km/h (4 Bft) 100,00 %
14.03.2016 09:21 2,1 C 81 % 1030,9 hPa 0,0 l/m 13,1 km/h (3 Bft) NO 44 0 min 0,000 mm 0,0 UV-I 104 W/m -0,8 C -3,3 C 16,1 km/h (3 Bft) 100,00 %
14.03.2016 09:22 2,1 C 81 % 1030,9 hPa 0,0 l/m 10,4 km/h (2 Bft) O-NO 70 0 min 0,000 mm 0,0 UV-I 105 W/m -0,8 C -1,4 C 16,1 km/h (3 Bft) 100,00 %
14.03.2016 09:23 2,2 C 81 % 1030,9 hPa 0,0 l/m 10,0 km/h (2 Bft) NO 48 0 min 0,000 mm 0,0 UV-I 105 W/m -0,7 C -1,0 C 14,5 km/h (3 Bft) 100,00 %
14.03.2016 09:24 2,1 C 81 % 1031,0 hPa 0,0 l/m 9,3 km/h (2 Bft) O-NO 69 0 min 0,000 mm 0,0 UV-I 105 W/m -0,8 C -0,6 C 14,5 km/h (3 Bft) 100,00 %
14.03.2016 09:25 2,2 C 81 % 1031,0 hPa 0,0 l/m 10,6 km/h (2 Bft) O 80 0 min 0,000 mm 0,0 UV-I 104 W/m -0,7 C -1,5 C 16,1 km/h (3 Bft) 100,00 %
14.03.2016 09:26 2,2 C 81 % 1031,0 hPa 0,0 l/m 9,6 km/h (2 Bft) O 85 0 min 0,000 mm 0,0 UV-I 104 W/m -0,7 C -0,7 C 12,9 km/h (3 Bft) 100,00 %
14.03.2016 09:27 2,2 C 81 % 1031,0 hPa 0,0 l/m 15,6 km/h (3 Bft) O-NO 67 0 min 0,000 mm 0,0 UV-I 104 W/m -0,7 C -4,6 C 20,9 km/h (4 Bft) 100,00 %
14.03.2016 09:28 2,2 C 80 % 1031,0 hPa 0,0 l/m 11,3 km/h (2 Bft) O-NO 57 0 min 0,000 mm 0,0 UV-I 105 W/m -0,9 C -2,0 C 16,1 km/h (3 Bft) 100,00 %
14.03.2016 09:29 2,2 C 81 % 1031,0 hPa 0,0 l/m 14,8 km/h (3 Bft) NO 55 0 min 0,000 mm 0,0 UV-I 107 W/m -0,7 C -4,2 C 17,7 km/h (3 Bft) 100,00 %
14.03.2016 09:30 2,2 C 81 % 1030,9 hPa 0,0 l/m 13,7 km/h (3 Bft) O 86 0 min 0,000 mm 0,0 UV-I 109 W/m -0,7 C -3,6 C 17,7 km/h (3 Bft) 100,00 %
14.03.2016 09:31 2,2 C 81 % 1031,0 hPa 0,0 l/m 13,0 km/h (3 Bft) O-NO 67 0 min 0,000 mm 0,1 UV-I 110 W/m -0,7 C -3,1 C 16,1 km/h (3 Bft) 100,00 %
14.03.2016 09:32 2,2 C 80 % 1031,0 hPa 0,0 l/m 15,3 km/h (3 Bft) O 81 0 min 0,000 mm 0,5 UV-I 112 W/m -0,9 C -4,5 C 19,3 km/h (3 Bft) 100,00 %
14.03.2016 09:33 2,2 C 79 % 1031,0 hPa 0,0 l/m 13,1 km/h (3 Bft) O 88 0 min 0,000 mm 0,5 UV-I 114 W/m -1,1 C -3,2 C 17,7 km/h (3 Bft) 100,00 %
14.03.2016 09:34 2,2 C 79 % 1031,0 hPa 0,0 l/m 11,9 km/h (2 Bft) O-NO 61 0 min 0,000 mm 0,5 UV-I 114 W/m -1,1 C -2,4 C 19,3 km/h (3 Bft) 100,00 %
14.03.2016 09:35 2,2 C 80 % 1030,9 hPa 0,0 l/m 13,6 km/h (3 Bft) O-NO 71 0 min 0,000 mm 0,5 UV-I 114 W/m -0,9 C -3,5 C 17,7 km/h (3 Bft) 100,00 %
14.03.2016 09:36 2,2 C 80 % 1030,9 hPa 0,0 l/m 12,1 km/h (2 Bft) O-NO 63 0 min 0,000 mm 0,5 UV-I 115 W/m -0,9 C -2,5 C 17,7 km/h (3 Bft) 100,00 %
14.03.2016 09:37 2,2 C 80 % 1030,9 hPa 0,0 l/m 10,7 km/h (2 Bft) O-NO 78 0 min 0,000 mm 0,5 UV-I 117 W/m -0,9 C -1,6 C 17,7 km/h (3 Bft) 100,00 %
14.03.2016 09:38 2,2 C 79 % 1031,0 hPa 0,0 l/m 16,2 km/h (3 Bft) NO 39 0 min 0,000 mm 0,5 UV-I 118 W/m -1,1 C -5,0 C 19,3 km/h (3 Bft) 100,00 %
14.03.2016 09:39 2,2 C 79 % 1030,9 hPa 0,0 l/m 11,2 km/h (2 Bft) O-NO 74 0 min 0,000 mm 0,5 UV-I 120 W/m -1,1 C -1,9 C 14,5 km/h (3 Bft) 100,00 %
14.03.2016 09:40 2,2 C 79 % 1030,9 hPa 0,0 l/m 12,6 km/h (3 Bft) NO 40 0 min 0,000 mm 0,5 UV-I 123 W/m -1,1 C -2,9 C 16,1 km/h (3 Bft) 96,15 %
14.03.2016 09:41 2,2 C 79 % 1030,9 hPa 0,0 l/m 18,3 km/h (3 Bft) O-NO 66 0 min 0,000 mm 0,5 UV-I 125 W/m -1,1 C -6,0 C 20,9 km/h (4 Bft) 100,00 %
14.03.2016 09:42 2,2 C 79 % 1030,8 hPa 0,0 l/m 12,9 km/h (3 Bft) O-NO 71 0 min 0,000 mm 0,5 UV-I 127 W/m -1,1 C -3,1 C 16,1 km/h (3 Bft) 100,00 %
14.03.2016 09:43 2,2 C 79 % 1030,9 hPa 0,0 l/m 14,8 km/h (3 Bft) O-NO 74 0 min 0,000 mm 0,5 UV-I 127 W/m -1,1 C -4,2 C 20,9 km/h (4 Bft) 100,00 %
14.03.2016 09:44 2,2 C 79 % 1030,8 hPa 0,0 l/m 12,3 km/h (3 Bft) O 79 0 min 0,000 mm 0,5 UV-I 127 W/m -1,1 C -2,7 C 16,1 km/h (3 Bft) 100,00 %
14.03.2016 09:45 2,2 C 79 % 1030,8 hPa 0,0 l/m 14,0 km/h (3 Bft) O-NO 63 0 min 0,000 mm 0,6 UV-I 128 W/m -1,1 C -3,7 C 19,3 km/h (3 Bft) 100,00 %
14.03.2016 09:46 2,2 C 79 % 1030,9 hPa 0,0 l/m 16,5 km/h (3 Bft) O-NO 58 0 min 0,000 mm 0,6 UV-I 128 W/m -1,1 C -5,1 C 19,3 km/h (3 Bft) 100,00 %
14.03.2016 09:47 2,2 C 79 % 1030,9 hPa 0,0 l/m 15,4 km/h (3 Bft) NO 52 0 min 0,000 mm 0,6 UV-I 132 W/m -1,1 C -4,5 C 22,5 km/h (4 Bft) 100,00 %
14.03.2016 09:48 2,3 C 79 % 1030,8 hPa 0,0 l/m 14,3 km/h (3 Bft) O 84 0 min 0,000 mm 0,6 UV-I 136 W/m -1,0 C -3,8 C 19,3 km/h (3 Bft) 100,00 %
14.03.2016 09:49 2,3 C 80 % 1030,9 hPa 0,0 l/m 15,6 km/h (3 Bft) O-NO 74 0 min 0,000 mm 0,6 UV-I 140 W/m -0,8 C -4,5 C 19,3 km/h (3 Bft) 100,00 %
14.03.2016 09:50 2,3 C 79 % 1030,8 hPa 0,0 l/m 14,6 km/h (3 Bft) O-NO 78 0 min 0,000 mm 0,6 UV-I 143 W/m -1,0 C -4,0 C 19,3 km/h (3 Bft) 100,00 %
14.03.2016 09:51 2,3 C 79 % 1030,8 hPa 0,0 l/m 15,0 km/h (3 Bft) NO 56 0 min 0,000 mm 0,6 UV-I 145 W/m -1,0 C -4,2 C 17,7 km/h (3 Bft) 100,00 %
14.03.2016 09:52 2,3 C 79 % 1030,8 hPa 0,0 l/m 12,2 km/h (2 Bft) NO 51 0 min 0,000 mm 0,6 UV-I 148 W/m -1,0 C -2,5 C 16,1 km/h (3 Bft) 100,00 %
14.03.2016 09:53 2,3 C 79 % 1030,8 hPa 0,0 l/m 15,0 km/h (3 Bft) O 85 0 min 0,000 mm 0,7 UV-I 149 W/m -1,0 C -4,2 C 19,3 km/h (3 Bft) 100,00 %
14.03.2016 09:54 2,3 C 79 % 1030,8 hPa 0,0 l/m 13,5 km/h (3 Bft) O 92 0 min 0,000 mm 0,7 UV-I 152 W/m -1,0 C -3,3 C 16,1 km/h (3 Bft) 100,00 %
14.03.2016 09:55 2,3 C 79 % 1030,8 hPa 0,0 l/m 13,2 km/h (3 Bft) O 86 0 min 0,000 mm 0,7 UV-I 154 W/m -1,0 C -3,1 C 19,3 km/h (3 Bft) 100,00 %
14.03.2016 09:56 2,3 C 78 % 1030,7 hPa 0,0 l/m 11,1 km/h (2 Bft) O 93 0 min 0,000 mm 0,7 UV-I 158 W/m -1,1 C -1,7 C 16,1 km/h (3 Bft) 91,67 %
14.03.2016 09:57 2,3 C 79 % 1030,7 hPa 0,0 l/m 6,4 km/h (2 Bft) O 86 0 min 0,000 mm 0,7 UV-I 162 W/m -1,0 C 2,3 C 9,7 km/h (2 Bft) 100,00 %
14.03.2016 09:58 2,3 C 79 % 1030,7 hPa 0,0 l/m 8,7 km/h (2 Bft) O-NO 65 0 min 0,000 mm 0,7 UV-I 165 W/m -1,0 C 0,1 C 14,5 km/h (3 Bft) 96,15 %
14.03.2016 09:59 2,3 C 79 % 1030,7 hPa 0,0 l/m 11,1 km/h (2 Bft) O 90 0 min 0,000 mm 0,7 UV-I 166 W/m -1,0 C -1,7 C 14,5 km/h (3 Bft) 100,00 %
14.03.2016 10:00 2,4 C 79 % 1030,7 hPa 0,0 l/m 10,3 km/h (2 Bft) NO 55 0 min 0,000 mm 0,7 UV-I 168 W/m -0,9 C -1,0 C 14,5 km/h (3 Bft) 96,67 %
14.03.2016 10:01 2,4 C 79 % 1030,7 hPa 0,0 l/m 10,6 km/h (2 Bft) O-NO 67 0 min 0,051 mm 0,8 UV-I 169 W/m -0,9 C -1,3 C 16,1 km/h (3 Bft) 96,15 %
14.03.2016 10:02 2,4 C 78 % 1030,7 hPa 0,0 l/m 9,7 km/h (2 Bft) NO 51 0 min 0,000 mm 0,8 UV-I 170 W/m -1,0 C -0,6 C 14,5 km/h (3 Bft) 95,83 %
14.03.2016 10:03 2,4 C 79 % 1030,8 hPa 0,0 l/m 16,3 km/h (3 Bft) O-NO 57 0 min 0,000 mm 0,8 UV-I 172 W/m -0,9 C -4,8 C 19,3 km/h (3 Bft) 100,00 %
14.03.2016 10:04 2,4 C 79 % 1030,7 hPa 0,0 l/m 11,2 km/h (2 Bft) O-NO 58 0 min 0,000 mm 0,8 UV-I 176 W/m -0,9 C -1,7 C 17,7 km/h (3 Bft) 96,30 %
14.03.2016 10:05 2,4 C 79 % 1030,7 hPa 0,0 l/m 11,0 km/h (2 Bft) O 95 0 min 0,000 mm 0,8 UV-I 178 W/m -0,9 C -1,5 C 14,5 km/h (3 Bft) 92,31 %
14.03.2016 10:06 2,4 C 80 % 1030,7 hPa 0,0 l/m 17,3 km/h (3 Bft) O-NO 65 0 min 0,000 mm 0,8 UV-I 181 W/m -0,7 C -5,3 C 20,9 km/h (4 Bft) 100,00 %
14.03.2016 10:07 2,4 C 78 % 1030,7 hPa 0,0 l/m 13,5 km/h (3 Bft) O 100 0 min 0,000 mm 0,8 UV-I 184 W/m -1,0 C -3,2 C 17,7 km/h (3 Bft) 95,65 %
14.03.2016 10:08 2,5 C 78 % 1030,7 hPa 0,0 l/m 16,8 km/h (3 Bft) O-NO 70 0 min 0,000 mm 0,9 UV-I 187 W/m -0,9 C -4,9 C 20,9 km/h (4 Bft) 100,00 %
14.03.2016 10:09 2,5 C 77 % 1030,7 hPa 0,0 l/m 15,0 km/h (3 Bft) O-NO 61 0 min 0,000 mm 0,9 UV-I 191 W/m -1,1 C -4,0 C 19,3 km/h (3 Bft) 94,12 %
14.03.2016 10:10 2,4 C 77 % 1030,6 hPa 0,0 l/m 14,7 km/h (3 Bft) O-NO 71 0 min 0,000 mm 0,9 UV-I 196 W/m -1,2 C -3,9 C 17,7 km/h (3 Bft) 96,67 %
14.03.2016 10:11 2,4 C 77 % 1030,7 hPa 0,0 l/m 13,0 km/h (3 Bft) NO 55 0 min 0,000 mm 0,9 UV-I 200 W/m -1,2 C -2,9 C 17,7 km/h (3 Bft) 92,86 %
14.03.2016 10:12 2,5 C 77 % 1030,7 hPa 0,0 l/m 8,1 km/h (2 Bft) O 84 0 min 0,000 mm 0,9 UV-I 202 W/m -1,1 C 0,9 C 14,5 km/h (3 Bft) 96,30 %
14.03.2016 10:13 2,5 C 77 % 1030,7 hPa 0,0 l/m 13,0 km/h (3 Bft) O-NO 58 0 min 0,000 mm 0,9 UV-I 206 W/m -1,1 C -2,8 C 16,1 km/h (3 Bft) 100,00 %
14.03.2016 10:14 2,5 C 78 % 1030,7 hPa 0,0 l/m 10,2 km/h (2 Bft) O 84 0 min 0,000 mm 0,9 UV-I 207 W/m -0,9 C -0,8 C 14,5 km/h (3 Bft) 91,67 %
14.03.2016 10:15 2,6 C 78 % 1030,7 hPa 0,0 l/m 7,4 km/h (2 Bft) O-NO 73 0 min 0,000 mm 0,9 UV-I 206 W/m -0,8 C 1,6 C 11,3 km/h (2 Bft) 100,00 %
14.03.2016 10:16 2,6 C 77 % 1030,7 hPa 0,0 l/m 14,0 km/h (3 Bft) O-NO 59 0 min 0,000 mm 0,9 UV-I 201 W/m -1,0 C -3,3 C 19,3 km/h (3 Bft) 96,55 %
14.03.2016 10:17 2,6 C 76 % 1030,7 hPa 0,0 l/m 13,1 km/h (3 Bft) O-NO 66 0 min 0,000 mm 0,9 UV-I 194 W/m -1,2 C -2,7 C 16,1 km/h (3 Bft) 100,00 %
14.03.2016 10:18 2,6 C 77 % 1030,7 hPa 0,0 l/m 11,3 km/h (2 Bft) O-NO 76 0 min 0,000 mm 0,9 UV-I 189 W/m -1,0 C -1,5 C 17,7 km/h (3 Bft) 95,65 %
14.03.2016 10:19 2,6 C 77 % 1030,7 hPa 0,0 l/m 14,3 km/h (3 Bft) NO 55 0 min 0,000 mm 0,9 UV-I 187 W/m -1,0 C -3,4 C 19,3 km/h (3 Bft) 100,00 %
14.03.2016 10:20 2,7 C 76 % 1030,7 hPa 0,0 l/m 14,6 km/h (3 Bft) O-NO 59 0 min 0,000 mm 0,9 UV-I 189 W/m -1,1 C -3,5 C 19,3 km/h (3 Bft) 96,15 %
14.03.2016 10:21 2,7 C 76 % 1030,7 hPa 0,0 l/m 14,0 km/h (3 Bft) O 82 0 min 0,000 mm 0,9 UV-I 190 W/m -1,1 C -3,1 C 19,3 km/h (3 Bft) 100,00 %
14.03.2016 10:22 2,7 C 76 % 1030,6 hPa 0,0 l/m 13,2 km/h (3 Bft) NO 54 0 min 0,000 mm 0,9 UV-I 188 W/m -1,1 C -2,7 C 19,3 km/h (3 Bft) 97,56 %
14.03.2016 10:23 2,7 C 76 % 1030,6 hPa 0,0 l/m 19,2 km/h (3 Bft) NO 55 0 min 0,000 mm 0,9 UV-I 188 W/m -1,1 C -5,8 C 22,5 km/h (4 Bft) 91,67 %
14.03.2016 10:24 2,7 C 74 % 1030,6 hPa 0,0 l/m 16,6 km/h (3 Bft) O-NO 57 0 min 0,000 mm 0,9 UV-I 191 W/m -1,5 C -4,6 C 22,5 km/h (4 Bft) 100,00 %
14.03.2016 10:25 2,7 C 74 % 1030,6 hPa 0,0 l/m 16,3 km/h (3 Bft) NO 53 0 min 0,000 mm 0,9 UV-I 197 W/m -1,5 C -4,4 C 20,9 km/h (4 Bft) 95,12 %
14.03.2016 10:26 2,6 C 75 % 1030,6 hPa 0,0 l/m 17,5 km/h (3 Bft) NO 41 0 min 0,000 mm 0,9 UV-I 207 W/m -1,4 C -5,1 C 20,9 km/h (4 Bft) 100,00 %
14.03.2016 10:27 2,6 C 75 % 1030,6 hPa 0,0 l/m 12,2 km/h (2 Bft) NO 50 0 min 0,000 mm 1,0 UV-I 219 W/m -1,4 C -2,1 C 17,7 km/h (3 Bft) 100,00 %
14.03.2016 10:28 2,7 C 77 % 1030,6 hPa 0,0 l/m 16,2 km/h (3 Bft) O-NO 63 0 min 0,000 mm 1,0 UV-I 219 W/m -0,9 C -4,4 C 19,3 km/h (3 Bft) 96,88 %
14.03.2016 10:29 2,7 C 75 % 1030,6 hPa 0,0 l/m 14,9 km/h (3 Bft) O-NO 67 0 min 0,000 mm 1,0 UV-I 210 W/m -1,3 C -3,7 C 20,9 km/h (4 Bft) 100,00 %
14.03.2016 10:30 2,7 C 76 % 1030,6 hPa 0,0 l/m 12,4 km/h (3 Bft) NO 41 0 min 0,000 mm 1,0 UV-I 207 W/m -1,1 C -2,2 C 16,1 km/h (3 Bft) 96,15 %
14.03.2016 10:31 2,7 C 75 % 1030,5 hPa 0,0 l/m 12,2 km/h (2 Bft) O-NO 61 0 min 0,000 mm 1,0 UV-I 205 W/m -1,3 C -2,0 C 19,3 km/h (3 Bft) 100,00 %
14.03.2016 10:32 2,7 C 76 % 1030,6 hPa 0,0 l/m 17,6 km/h (3 Bft) NO 53 0 min 0,000 mm 1,0 UV-I 207 W/m -1,1 C -5,1 C 22,5 km/h (4 Bft) 100,00 %
14.03.2016 10:33 2,7 C 75 % 1030,6 hPa 0,0 l/m 18,7 km/h (3 Bft) O-NO 71 0 min 0,000 mm 1,0 UV-I 213 W/m -1,3 C -5,6 C 22,5 km/h (4 Bft) 100,00 %
14.03.2016 10:34 2,7 C 74 % 1030,6 hPa 0,0 l/m 16,7 km/h (3 Bft) O-NO 68 0 min 0,000 mm 1,0 UV-I 214 W/m -1,5 C -4,6 C 19,3 km/h (3 Bft) 93,10 %
14.03.2016 10:35 2,7 C 73 % 1030,6 hPa 0,0 l/m 14,3 km/h (3 Bft) O-NO 58 0 min 0,000 mm 1,0 UV-I 214 W/m -1,6 C -3,3 C 19,3 km/h (3 Bft) 100,00 %
14.03.2016 10:36 2,7 C 73 % 1030,5 hPa 0,0 l/m 17,2 km/h (3 Bft) O 88 0 min 0,000 mm 1,0 UV-I 213 W/m -1,6 C -4,9 C 22,5 km/h (4 Bft) 100,00 %
14.03.2016 10:37 2,7 C 74 % 1030,5 hPa 0,0 l/m 18,7 km/h (3 Bft) O-NO 71 0 min 0,000 mm 1,0 UV-I 210 W/m -1,5 C -5,6 C 22,5 km/h (4 Bft) 100,00 %
14.03.2016 10:38 2,7 C 73 % 1030,5 hPa 0,0 l/m 16,6 km/h (3 Bft) O-NO 71 0 min 0,000 mm 1,0 UV-I 207 W/m -1,6 C -4,6 C 19,3 km/h (3 Bft) 100,00 %
14.03.2016 10:39 2,7 C 74 % 1030,5 hPa 0,0 l/m 13,9 km/h (3 Bft) O-NO 73 0 min 0,000 mm 1,0 UV-I 199 W/m -1,5 C -3,1 C 19,3 km/h (3 Bft) 100,00 %
14.03.2016 10:40 2,7 C 74 % 1030,5 hPa 0,0 l/m 14,3 km/h (3 Bft) NO 56 0 min 0,000 mm 0,9 UV-I 187 W/m -1,5 C -3,3 C 20,9 km/h (4 Bft) 100,00 %
14.03.2016 10:41 2,7 C 75 % 1030,6 hPa 0,0 l/m 12,9 km/h (3 Bft) NO 36 0 min 0,000 mm 0,9 UV-I 179 W/m -1,3 C -2,5 C 20,9 km/h (4 Bft) 93,33 %
14.03.2016 10:42 2,7 C 75 % 1030,5 hPa 0,0 l/m 14,8 km/h (3 Bft) NO 34 0 min 0,000 mm 0,9 UV-I 173 W/m -1,3 C -3,6 C 22,5 km/h (4 Bft) 100,00 %
14.03.2016 10:43 2,7 C 74 % 1030,5 hPa 0,0 l/m 11,3 km/h (2 Bft) NO 42 0 min 0,000 mm 0,8 UV-I 171 W/m -1,5 C -1,4 C 20,9 km/h (4 Bft) 95,65 %
14.03.2016 10:44 2,7 C 73 % 1030,5 hPa 0,0 l/m 15,6 km/h (3 Bft) NO 55 0 min 0,000 mm 0,9 UV-I 176 W/m -1,6 C -4,0 C 20,9 km/h (4 Bft) 100,00 %
14.03.2016 10:45 2,7 C 73 % 1030,5 hPa 0,0 l/m 13,2 km/h (3 Bft) N-NO 32 0 min 0,000 mm 0,9 UV-I 185 W/m -1,6 C -2,7 C 19,3 km/h (3 Bft) 100,00 %
14.03.2016 10:46 2,7 C 74 % 1030,5 hPa 0,0 l/m 18,5 km/h (3 Bft) NO 55 0 min 0,000 mm 0,9 UV-I 181 W/m -1,5 C -5,5 C 24,1 km/h (4 Bft) 100,00 %
14.03.2016 10:47 2,7 C 73 % 1030,5 hPa 0,0 l/m 17,0 km/h (3 Bft) O-NO 60 0 min 0,000 mm 0,9 UV-I 169 W/m -1,6 C -4,8 C 19,3 km/h (3 Bft) 100,00 %
14.03.2016 10:48 2,7 C 73 % 1030,5 hPa 0,0 l/m 17,4 km/h (3 Bft) O-NO 58 0 min 0,000 mm 0,8 UV-I 152 W/m -1,6 C -5,0 C 20,9 km/h (4 Bft) 100,00 %
14.03.2016 10:49 2,7 C 73 % 1030,5 hPa 0,0 l/m 15,8 km/h (3 Bft) O 80 0 min 0,000 mm 0,7 UV-I 141 W/m -1,6 C -4,1 C 20,9 km/h (4 Bft) 100,00 %
14.03.2016 10:50 2,7 C 74 % 1030,5 hPa 0,0 l/m 14,6 km/h (3 Bft) NO 49 0 min 0,000 mm 0,7 UV-I 135 W/m -1,5 C -3,5 C 19,3 km/h (3 Bft) 100,00 %
14.03.2016 10:51 2,6 C 74 % 1030,5 hPa 0,0 l/m 15,2 km/h (3 Bft) O-NO 70 0 min 0,000 mm 0,7 UV-I 140 W/m -1,6 C -3,9 C 19,3 km/h (3 Bft) 100,00 %
14.03.2016 10:52 2,6 C 75 % 1030,5 hPa 0,0 l/m 15,2 km/h (3 Bft) O-NO 63 0 min 0,000 mm 0,7 UV-I 149 W/m -1,4 C -3,9 C 19,3 km/h (3 Bft) 100,00 %
14.03.2016 10:53 2,6 C 75 % 1030,5 hPa 0,0 l/m 9,9 km/h (2 Bft) NO 46 0 min 0,000 mm 0,8 UV-I 160 W/m -1,4 C -0,5 C 14,5 km/h (3 Bft) 100,00 %
14.03.2016 10:54 2,7 C 76 % 1030,5 hPa 0,0 l/m 12,8 km/h (3 Bft) O-NO 59 0 min 0,000 mm 0,8 UV-I 169 W/m -1,1 C -2,4 C 19,3 km/h (3 Bft) 95,83 %
14.03.2016 10:55 2,7 C 73 % 1030,5 hPa 0,0 l/m 19,1 km/h (3 Bft) O-NO 67 0 min 0,000 mm 0,9 UV-I 177 W/m -1,6 C -5,7 C 24,1 km/h (4 Bft) 100,00 %
14.03.2016 10:56 2,7 C 73 % 1030,5 hPa 0,0 l/m 21,2 km/h (4 Bft) NO 53 0 min 0,000 mm 0,9 UV-I 176 W/m -1,6 C -6,6 C 25,7 km/h (4 Bft) 100,00 %
14.03.2016 10:57 2,7 C 72 % 1030,5 hPa 0,0 l/m 16,0 km/h (3 Bft) NO 51 0 min 0,000 mm 0,9 UV-I 168 W/m -1,8 C -4,2 C 22,5 km/h (4 Bft) 100,00 %
14.03.2016 10:58 2,7 C 73 % 1030,5 hPa 0,0 l/m 14,2 km/h (3 Bft) NO 37 0 min 0,000 mm 0,8 UV-I 160 W/m -1,6 C -3,3 C 16,1 km/h (3 Bft) 100,00 %
14.03.2016 10:59 2,7 C 73 % 1030,5 hPa 0,0 l/m 15,9 km/h (3 Bft) N-NO 31 0 min 0,000 mm 0,8 UV-I 153 W/m -1,6 C -4,2 C 24,1 km/h (4 Bft) 100,00 %
14.03.2016 11:00 2,7 C 73 % 1030,5 hPa 0,0 l/m 20,5 km/h (4 Bft) O-NO 71 0 min 0,102 mm 0,8 UV-I 149 W/m -1,6 C -6,4 C 25,7 km/h (4 Bft) 100,00 %
14.03.2016 11:01 2,7 C 72 % 1030,5 hPa 0,0 l/m 19,2 km/h (3 Bft) O-NO 65 0 min 0,000 mm 0,8 UV-I 148 W/m -1,8 C -5,8 C 24,1 km/h (4 Bft) 100,00 %
14.03.2016 11:02 2,6 C 73 % 1030,5 hPa 0,0 l/m 15,1 km/h (3 Bft) O-NO 63 0 min 0,000 mm 0,8 UV-I 149 W/m -1,7 C -3,9 C 20,9 km/h (4 Bft) 95,65 %
14.03.2016 11:03 2,6 C 73 % 1030,5 hPa 0,0 l/m 15,0 km/h (3 Bft) O-NO 62 0 min 0,000 mm 0,8 UV-I 156 W/m -1,7 C -3,8 C 19,3 km/h (3 Bft) 100,00 %
14.03.2016 11:04 2,6 C 73 % 1030,5 hPa 0,0 l/m 16,8 km/h (3 Bft) O-NO 57 0 min 0,000 mm 0,8 UV-I 165 W/m -1,7 C -4,8 C 20,9 km/h (4 Bft) 100,00 %
14.03.2016 11:05 2,7 C 74 % 1030,5 hPa 0,0 l/m 17,9 km/h (3 Bft) O-NO 69 0 min 0,000 mm 0,9 UV-I 175 W/m -1,5 C -5,2 C 20,9 km/h (4 Bft) 100,00 %
14.03.2016 11:06 2,7 C 72 % 1030,4 hPa 0,0 l/m 19,0 km/h (3 Bft) O-NO 61 0 min 0,000 mm 0,9 UV-I 183 W/m -1,8 C -5,7 C 24,1 km/h (4 Bft) 100,00 %
14.03.2016 11:07 2,7 C 73 % 1030,5 hPa 0,0 l/m 15,0 km/h (3 Bft) NO 41 0 min 0,000 mm 1,0 UV-I 189 W/m -1,6 C -3,7 C 20,9 km/h (4 Bft) 100,00 %
14.03.2016 11:08 2,7 C 72 % 1030,4 hPa 0,0 l/m 15,8 km/h (3 Bft) O 80 0 min 0,000 mm 1,0 UV-I 190 W/m -1,8 C -4,1 C 24,1 km/h (4 Bft) 100,00 %
14.03.2016 11:09 2,7 C 73 % 1030,4 hPa 0,0 l/m 13,7 km/h (3 Bft) NO 46 0 min 0,000 mm 0,9 UV-I 183 W/m -1,6 C -3,0 C 17,7 km/h (3 Bft) 100,00 %
14.03.2016 11:10 2,7 C 72 % 1030,4 hPa 0,0 l/m 10,5 km/h (2 Bft) NO 50 0 min 0,000 mm 0,9 UV-I 177 W/m -1,8 C -0,8 C 14,5 km/h (3 Bft) 100,00 %
14.03.2016 11:11 2,7 C 74 % 1030,4 hPa 0,0 l/m 14,4 km/h (3 Bft) O-NO 64 0 min 0,000 mm 0,9 UV-I 177 W/m -1,5 C -3,4 C 19,3 km/h (3 Bft) 100,00 %
14.03.2016 11:12 2,7 C 74 % 1030,4 hPa 0,0 l/m 13,3 km/h (3 Bft) O-NO 63 0 min 0,000 mm 0,9 UV-I 179 W/m -1,5 C -2,7 C 16,1 km/h (3 Bft) 100,00 %
14.03.2016 11:13 2,7 C 74 % 1030,4 hPa 0,0 l/m 13,6 km/h (3 Bft) O-NO 62 0 min 0,000 mm 0,9 UV-I 184 W/m -1,5 C -2,9 C 17,7 km/h (3 Bft) 95,83 %
14.03.2016 11:14 2,8 C 74 % 1030,4 hPa 0,0 l/m 14,2 km/h (3 Bft) O 93 0 min 0,000 mm 1,0 UV-I 192 W/m -1,4 C -3,1 C 17,7 km/h (3 Bft) 100,00 %
14.03.2016 11:15 2,8 C 74 % 1030,4 hPa 0,0 l/m 12,0 km/h (2 Bft) O-NO 61 0 min 0,000 mm 1,0 UV-I 202 W/m -1,4 C -1,8 C 19,3 km/h (3 Bft) 98,74 %
14.03.2016 11:16 2,8 C 75 % 1030,4 hPa 0,0 l/m 15,1 km/h (3 Bft) O-NO 64 0 min 0,000 mm 1,1 UV-I 209 W/m -1,2 C -3,6 C 19,3 km/h (3 Bft) 100,00 %
14.03.2016 11:17 2,8 C 73 % 1030,4 hPa 0,0 l/m 13,8 km/h (3 Bft) O 82 0 min 0,000 mm 1,1 UV-I 206 W/m -1,5 C -2,9 C 16,1 km/h (3 Bft) 100,00 %
14.03.2016 11:18 2,8 C 74 % 1030,4 hPa 0,0 l/m 12,5 km/h (3 Bft) O-NO 69 0 min 0,000 mm 1,0 UV-I 201 W/m -1,4 C -2,1 C 16,1 km/h (3 Bft) 100,00 %
14.03.2016 11:19 2,8 C 74 % 1030,4 hPa 0,0 l/m 13,5 km/h (3 Bft) O-SO 105 0 min 0,000 mm 1,0 UV-I 197 W/m -1,4 C -2,7 C 17,7 km/h (3 Bft) 100,00 %
14.03.2016 11:20 2,8 C 73 % 1030,4 hPa 0,0 l/m 11,7 km/h (2 Bft) O-SO 107 0 min 0,000 mm 1,0 UV-I 195 W/m -1,5 C -1,6 C 17,7 km/h (3 Bft) 100,00 %
14.03.2016 11:21 2,9 C 73 % 1030,4 hPa 0,0 l/m 10,8 km/h (2 Bft) O-NO 69 0 min 0,000 mm 1,0 UV-I 195 W/m -1,5 C -0,8 C 14,5 km/h (3 Bft) 100,00 %
14.03.2016 11:22 2,9 C 73 % 1030,4 hPa 0,0 l/m 15,2 km/h (3 Bft) O-NO 65 0 min 0,000 mm 1,0 UV-I 195 W/m -1,5 C -3,6 C 20,9 km/h (4 Bft) 100,00 %
14.03.2016 11:23 2,9 C 73 % 1030,4 hPa 0,0 l/m 12,4 km/h (3 Bft) O 84 0 min 0,000 mm 1,0 UV-I 195 W/m -1,5 C -1,9 C 14,5 km/h (3 Bft) 100,00 %
14.03.2016 11:24 2,9 C 72 % 1030,3 hPa 0,0 l/m 12,3 km/h (3 Bft) O-SO 117 0 min 0,000 mm 1,0 UV-I 195 W/m -1,6 C -1,9 C 16,1 km/h (3 Bft) 100,00 %
14.03.2016 11:25 2,9 C 72 % 1030,3 hPa 0,0 l/m 15,4 km/h (3 Bft) O 94 0 min 0,000 mm 1,0 UV-I 195 W/m -1,6 C -3,7 C 19,3 km/h (3 Bft) 100,00 %
14.03.2016 11:26 2,9 C 72 % 1030,3 hPa 0,0 l/m 14,4 km/h (3 Bft) O-SO 117 0 min 0,000 mm 1,0 UV-I 193 W/m -1,6 C -3,1 C 17,7 km/h (3 Bft) 100,00 %
14.03.2016 11:29 2,9 C 72 % 1030,4 hPa 0,0 l/m 13,8 km/h (3 Bft) O-NO 70 0 min 0,000 mm 0,9 UV-I 184 W/m -1,6 C -2,8 C 19,3 km/h (3 Bft) 100,00 %
14.03.2016 11:30 2,9 C 72 % 1030,4 hPa 0,0 l/m 15,9 km/h (3 Bft) O-NO 78 0 min 0,000 mm 0,9 UV-I 183 W/m -1,6 C -4,0 C 19,3 km/h (3 Bft) 100,00 %
14.03.2016 11:31 2,9 C 72 % 1030,4 hPa 0,0 l/m 15,9 km/h (3 Bft) O-NO 71 0 min 0,000 mm 0,9 UV-I 183 W/m -1,6 C -4,0 C 22,5 km/h (4 Bft) 100,00 %
14.03.2016 11:32 2,9 C 71 % 1030,4 hPa 0,0 l/m 13,8 km/h (3 Bft) O-NO 69 0 min 0,000 mm 0,9 UV-I 183 W/m -1,8 C -2,8 C 19,3 km/h (3 Bft) 95,83 %
14.03.2016 11:33 2,9 C 72 % 1030,3 hPa 0,0 l/m 15,5 km/h (3 Bft) O-NO 74 0 min 0,000 mm 0,9 UV-I 186 W/m -1,6 C -3,7 C 22,5 km/h (4 Bft) 100,00 %
14.03.2016 11:34 2,9 C 72 % 1030,3 hPa 0,0 l/m 19,2 km/h (3 Bft) O-NO 67 0 min 0,000 mm 1,0 UV-I 192 W/m -1,6 C -5,5 C 27,4 km/h (4 Bft) 100,00 %
14.03.2016 11:35 2,9 C 72 % 1030,3 hPa 0,0 l/m 16,8 km/h (3 Bft) O-NO 72 0 min 0,000 mm 1,0 UV-I 197 W/m -1,6 C -4,4 C 20,9 km/h (4 Bft) 100,00 %
14.03.2016 11:36 2,9 C 72 % 1030,4 hPa 0,0 l/m 15,3 km/h (3 Bft) O 93 0 min 0,000 mm 1,0 UV-I 201 W/m -1,6 C -3,6 C 19,3 km/h (3 Bft) 100,00 %
14.03.2016 11:37 2,9 C 72 % 1030,4 hPa 0,0 l/m 16,5 km/h (3 Bft) NO 53 0 min 0,000 mm 1,0 UV-I 202 W/m -1,6 C -4,3 C 20,9 km/h (4 Bft) 100,00 %
14.03.2016 11:38 2,9 C 71 % 1030,3 hPa 0,0 l/m 13,3 km/h (3 Bft) O-NO 62 0 min 0,000 mm 1,0 UV-I 200 W/m -1,8 C -2,5 C 17,7 km/h (3 Bft) 100,00 %
14.03.2016 11:39 2,9 C 71 % 1030,3 hPa 0,0 l/m 13,3 km/h (3 Bft) O-NO 74 0 min 0,000 mm 1,0 UV-I 199 W/m -1,8 C -2,5 C 16,1 km/h (3 Bft) 100,00 %
14.03.2016 11:40 2,9 C 72 % 1030,3 hPa 0,0 l/m 15,0 km/h (3 Bft) O-NO 61 0 min 0,000 mm 1,0 UV-I 202 W/m -1,6 C -3,5 C 19,3 km/h (3 Bft) 92,86 %
14.03.2016 11:41 2,9 C 72 % 1030,2 hPa 0,0 l/m 11,7 km/h (2 Bft) O-SO 103 0 min 0,000 mm 1,0 UV-I 209 W/m -1,6 C -1,5 C 19,3 km/h (3 Bft) 100,00 %
14.03.2016 11:42 2,9 C 72 % 1030,2 hPa 0,0 l/m 13,5 km/h (3 Bft) NO 54 0 min 0,000 mm 1,1 UV-I 218 W/m -1,6 C -2,6 C 19,3 km/h (3 Bft) 100,00 %
14.03.2016 11:43 2,9 C 72 % 1030,3 hPa 0,0 l/m 17,1 km/h (3 Bft) O 87 0 min 0,000 mm 1,1 UV-I 226 W/m -1,6 C -4,6 C 22,5 km/h (4 Bft) 100,00 %
14.03.2016 11:44 2,9 C 72 % 1030,3 hPa 0,0 l/m 16,2 km/h (3 Bft) O-NO 59 0 min 0,000 mm 1,2 UV-I 230 W/m -1,6 C -4,1 C 20,9 km/h (4 Bft) 100,00 %
14.03.2016 11:45 2,9 C 72 % 1030,3 hPa 0,0 l/m 18,1 km/h (3 Bft) O-NO 73 0 min 0,000 mm 1,2 UV-I 232 W/m -1,6 C -5,0 C 20,9 km/h (4 Bft) 100,00 %
14.03.2016 11:46 2,9 C 71 % 1030,3 hPa 0,0 l/m 13,0 km/h (3 Bft) O-NO 63 0 min 0,000 mm 1,2 UV-I 233 W/m -1,8 C -2,3 C 16,1 km/h (3 Bft) 100,00 %
14.03.2016 11:47 2,9 C 72 % 1030,3 hPa 0,0 l/m 16,3 km/h (3 Bft) NO 50 0 min 0,000 mm 1,2 UV-I 236 W/m -1,6 C -4,2 C 20,9 km/h (4 Bft) 95,83 %
14.03.2016 11:48 2,9 C 72 % 1030,2 hPa 0,0 l/m 19,0 km/h (3 Bft) O-NO 74 0 min 0,000 mm 1,2 UV-I 241 W/m -1,6 C -5,4 C 20,9 km/h (4 Bft) 100,00 %
14.03.2016 11:49 2,9 C 72 % 1030,3 hPa 0,0 l/m 16,5 km/h (3 Bft) NO 44 0 min 0,000 mm 1,3 UV-I 250 W/m -1,6 C -4,3 C 20,9 km/h (4 Bft) 100,00 %
14.03.2016 11:50 2,9 C 71 % 1030,2 hPa 0,0 l/m 19,2 km/h (3 Bft) O-NO 60 0 min 0,000 mm 1,3 UV-I 260 W/m -1,8 C -5,5 C 24,1 km/h (4 Bft) 100,00 %
14.03.2016 11:51 3,0 C 72 % 1030,2 hPa 0,0 l/m 15,5 km/h (3 Bft) O-NO 66 0 min 0,000 mm 1,3 UV-I 268 W/m -1,5 C -3,6 C 19,3 km/h (3 Bft) 100,00 %
14.03.2016 11:52 3,0 C 72 % 1030,2 hPa 0,0 l/m 16,4 km/h (3 Bft) O-NO 74 0 min 0,000 mm 1,3 UV-I 272 W/m -1,5 C -4,1 C 20,9 km/h (4 Bft) 100,00 %
14.03.2016 11:53 3,0 C 72 % 1030,2 hPa 0,0 l/m 12,6 km/h (3 Bft) O-NO 65 0 min 0,000 mm 1,4 UV-I 279 W/m -1,5 C -1,9 C 17,7 km/h (3 Bft) 100,00 %
14.03.2016 11:54 3,1 C 72 % 1030,1 hPa 0,0 l/m 14,4 km/h (3 Bft) O-NO 63 0 min 0,000 mm 1,4 UV-I 286 W/m -1,4 C -2,9 C 17,7 km/h (3 Bft) 100,00 %
14.03.2016 11:55 3,1 C 73 % 1030,1 hPa 0,0 l/m 14,0 km/h (3 Bft) O 81 0 min 0,000 mm 1,5 UV-I 294 W/m -1,3 C -2,7 C 22,5 km/h (4 Bft) 92,86 %
14.03.2016 11:56 3,2 C 73 % 1030,0 hPa 0,0 l/m 17,8 km/h (3 Bft) O 99 0 min 0,000 mm 1,5 UV-I 301 W/m -1,2 C -4,5 C 24,1 km/h (4 Bft) 97,56 %
14.03.2016 11:57 3,2 C 71 % 1030,1 hPa 0,0 l/m 15,0 km/h (3 Bft) O 89 0 min 0,000 mm 1,5 UV-I 311 W/m -1,5 C -3,1 C 17,7 km/h (3 Bft) 100,00 %
14.03.2016 11:58 3,2 C 71 % 1030,0 hPa 0,0 l/m 17,2 km/h (3 Bft) O 87 0 min 0,000 mm 1,6 UV-I 327 W/m -1,5 C -4,2 C 22,5 km/h (4 Bft) 96,67 %
14.03.2016 11:59 3,3 C 72 % 1030,0 hPa 0,0 l/m 20,3 km/h (4 Bft) O 90 0 min 0,000 mm 1,6 UV-I 347 W/m -1,3 C -5,5 C 24,1 km/h (4 Bft) 95,65 %
14.03.2016 12:00 3,3 C 71 % 1030,0 hPa 0,0 l/m 16,9 km/h (3 Bft) O 95 1 min 0,101 mm 1,7 UV-I 362 W/m -1,4 C -4,0 C 20,9 km/h (4 Bft) 95,83 %
14.03.2016 12:01 3,3 C 71 % 1030,0 hPa 0,0 l/m 12,5 km/h (3 Bft) O-NO 68 1 min 0,000 mm 1,7 UV-I 374 W/m -1,4 C -1,5 C 16,1 km/h (3 Bft) 95,65 %
14.03.2016 12:02 3,3 C 71 % 1030,0 hPa 0,0 l/m 13,1 km/h (3 Bft) NO 54 1 min 0,000 mm 1,8 UV-I 394 W/m -1,4 C -1,9 C 17,7 km/h (3 Bft) 95,83 %
14.03.2016 12:03 3,3 C 70 % 1030,0 hPa 0,0 l/m 14,9 km/h (3 Bft) O-NO 78 1 min 0,000 mm 2,0 UV-I 398 W/m -1,6 C -2,9 C 19,3 km/h (3 Bft) 93,10 %
14.03.2016 12:04 3,3 C 70 % 1030,0 hPa 0,0 l/m 13,4 km/h (3 Bft) O-NO 69 1 min 0,000 mm 1,8 UV-I 385 W/m -1,6 C -2,1 C 22,5 km/h (4 Bft) 93,33 %
14.03.2016 12:05 3,4 C 71 % 1030,0 hPa 0,0 l/m 13,0 km/h (3 Bft) O-NO 76 1 min 0,000 mm 1,8 UV-I 387 W/m -1,3 C -1,7 C 20,9 km/h (4 Bft) 96,15 %
14.03.2016 12:06 3,4 C 70 % 1030,0 hPa 0,0 l/m 16,3 km/h (3 Bft) O-NO 67 1 min 0,000 mm 1,9 UV-I 452 W/m -1,5 C -3,5 C 20,9 km/h (4 Bft) 100,00 %
14.03.2016 12:07 3,4 C 70 % 1029,9 hPa 0,0 l/m 15,1 km/h (3 Bft) O-NO 58 1 min 0,000 mm 1,9 UV-I 465 W/m -1,5 C -2,9 C 19,3 km/h (3 Bft) 91,30 %
14.03.2016 12:08 3,4 C 70 % 1030,0 hPa 0,0 l/m 17,7 km/h (3 Bft) NO 44 1 min 0,000 mm 1,9 UV-I 419 W/m -1,5 C -4,2 C 22,5 km/h (4 Bft) 100,00 %
14.03.2016 12:09 3,4 C 70 % 1029,9 hPa 0,0 l/m 16,3 km/h (3 Bft) O-NO 62 1 min 0,000 mm 1,8 UV-I 392 W/m -1,5 C -3,5 C 24,1 km/h (4 Bft) 94,12 %
14.03.2016 12:10 3,4 C 69 % 1030,0 hPa 0,0 l/m 10,3 km/h (2 Bft) O-NO 75 1 min 0,000 mm 1,8 UV-I 364 W/m -1,7 C 0,1 C 16,1 km/h (3 Bft) 100,00 %
14.03.2016 12:11 3,4 C 69 % 1029,9 hPa 0,0 l/m 15,6 km/h (3 Bft) NO 46 0 min 0,000 mm 1,7 UV-I 349 W/m -1,7 C -3,2 C 20,9 km/h (4 Bft) 93,33 %
14.03.2016 12:12 3,4 C 69 % 1029,9 hPa 0,0 l/m 13,7 km/h (3 Bft) NO 49 0 min 0,000 mm 1,6 UV-I 348 W/m -1,7 C -2,1 C 19,3 km/h (3 Bft) 100,00 %
14.03.2016 12:13 3,4 C 69 % 1029,9 hPa 0,0 l/m 12,6 km/h (3 Bft) O-NO 59 0 min 0,000 mm 1,6 UV-I 338 W/m -1,7 C -1,5 C 20,9 km/h (4 Bft) 96,15 %
14.03.2016 12:14 3,4 C 70 % 1029,9 hPa 0,0 l/m 16,2 km/h (3 Bft) O-NO 59 0 min 0,000 mm 1,6 UV-I 334 W/m -1,5 C -3,5 C 22,5 km/h (4 Bft) 95,83 %
14.03.2016 12:15 3,4 C 70 % 1029,8 hPa 0,0 l/m 17,4 km/h (3 Bft) O 82 0 min 0,000 mm 1,6 UV-I 330 W/m -1,5 C -4,1 C 20,9 km/h (4 Bft) 100,00 %
14.03.2016 12:16 3,5 C 71 % 1029,9 hPa 0,0 l/m 16,5 km/h (3 Bft) O-NO 60 0 min 0,000 mm 1,6 UV-I 326 W/m -1,3 C -3,5 C 19,3 km/h (3 Bft) 94,44 %
14.03.2016 12:17 3,5 C 70 % 1029,9 hPa 0,0 l/m 19,5 km/h (3 Bft) O-NO 62 0 min 0,000 mm 1,6 UV-I 321 W/m -1,4 C -4,9 C 24,1 km/h (4 Bft) 95,83 %
14.03.2016 12:18 3,4 C 69 % 1029,8 hPa 0,0 l/m 17,0 km/h (3 Bft) N-NO 32 0 min 0,000 mm 1,6 UV-I 313 W/m -1,7 C -3,9 C 22,5 km/h (4 Bft) 96,15 %
14.03.2016 12:19 3,5 C 72 % 1029,8 hPa 0,0 l/m 18,6 km/h (3 Bft) N-NO 27 0 min 0,000 mm 1,5 UV-I 311 W/m -1,1 C -4,5 C 24,1 km/h (4 Bft) 93,33 %
14.03.2016 12:20 3,5 C 71 % 1029,8 hPa 0,0 l/m 17,9 km/h (3 Bft) NO 36 0 min 0,000 mm 1,6 UV-I 314 W/m -1,3 C -4,2 C 20,9 km/h (4 Bft) 96,15 %
14.03.2016 12:21 3,6 C 73 % 1029,8 hPa 0,0 l/m 15,4 km/h (3 Bft) NO 41 0 min 0,000 mm 1,6 UV-I 326 W/m -0,8 C -2,8 C 19,3 km/h (3 Bft) 100,00 %
14.03.2016 12:22 3,7 C 72 % 1029,8 hPa 0,0 l/m 11,9 km/h (2 Bft) O-NO 58 0 min 0,000 mm 1,6 UV-I 343 W/m -0,9 C -0,7 C 16,1 km/h (3 Bft) 94,12 %
14.03.2016 12:23 3,7 C 71 % 1029,7 hPa 0,0 l/m 10,7 km/h (2 Bft) NO 44 1 min 0,000 mm 1,7 UV-I 364 W/m -1,1 C 0,1 C 14,5 km/h (3 Bft) 96,30 %
14.03.2016 12:24 3,7 C 71 % 1029,7 hPa 0,0 l/m 13,8 km/h (3 Bft) NO 50 1 min 0,000 mm 1,9 UV-I 405 W/m -1,1 C -1,8 C 20,9 km/h (4 Bft) 100,00 %
14.03.2016 12:25 3,7 C 69 % 1029,8 hPa 0,0 l/m 16,5 km/h (3 Bft) O-NO 61 1 min 0,000 mm 1,8 UV-I 401 W/m -1,4 C -3,3 C 20,9 km/h (4 Bft) 96,67 %
14.03.2016 12:26 3,8 C 70 % 1029,7 hPa 0,0 l/m 16,8 km/h (3 Bft) O-NO 78 1 min 0,000 mm 1,8 UV-I 385 W/m -1,2 C -3,3 C 29,0 km/h (5 Bft) 100,00 %
14.03.2016 12:27 3,8 C 70 % 1029,7 hPa 0,0 l/m 21,2 km/h (4 Bft) O-NO 67 1 min 0,000 mm 1,8 UV-I 374 W/m -1,2 C -5,2 C 25,7 km/h (4 Bft) 96,30 %
14.03.2016 12:28 3,7 C 67 % 1029,7 hPa 0,0 l/m 17,1 km/h (3 Bft) N-NO 29 1 min 0,000 mm 1,8 UV-I 382 W/m -1,8 C -3,6 C 20,9 km/h (4 Bft) 96,55 %
14.03.2016 12:29 3,7 C 70 % 1029,7 hPa 0,0 l/m 17,6 km/h (3 Bft) O 81 1 min 0,000 mm 1,9 UV-I 403 W/m -1,3 C -3,8 C 25,7 km/h (4 Bft) 100,00 %
14.03.2016 12:30 3,7 C 69 % 1029,7 hPa 0,0 l/m 18,2 km/h (3 Bft) O 97 1 min 0,000 mm 1,8 UV-I 397 W/m -1,4 C -4,1 C 22,5 km/h (4 Bft) 95,65 %
14.03.2016 12:31 3,7 C 69 % 1029,7 hPa 0,0 l/m 13,2 km/h (3 Bft) O-NO 61 1 min 0,000 mm 1,8 UV-I 369 W/m -1,4 C -1,5 C 17,7 km/h (3 Bft) 100,00 %
14.03.2016 12:32 3,6 C 68 % 1029,7 hPa 0,0 l/m 10,9 km/h (2 Bft) NO 36 1 min 0,000 mm 1,7 UV-I 359 W/m -1,7 C -0,1 C 16,1 km/h (3 Bft) 100,00 %
14.03.2016 12:33 3,6 C 69 % 1029,7 hPa 0,0 l/m 11,8 km/h (2 Bft) N-NO 25 0 min 0,000 mm 1,7 UV-I 352 W/m -1,5 C -0,7 C 16,1 km/h (3 Bft) 98,67 %
14.03.2016 12:34 3,6 C 69 % 1029,7 hPa 0,0 l/m 17,8 km/h (3 Bft) NO 55 1 min 0,000 mm 1,7 UV-I 357 W/m -1,5 C -4,0 C 22,5 km/h (4 Bft) 100,00 %
14.03.2016 12:35 3,7 C 69 % 1029,7 hPa 0,0 l/m 13,0 km/h (3 Bft) O-NO 66 1 min 0,000 mm 1,7 UV-I 398 W/m -1,4 C -1,4 C 17,7 km/h (3 Bft) 100,00 %
14.03.2016 12:36 3,7 C 71 % 1029,7 hPa 0,0 l/m 13,1 km/h (3 Bft) O-NO 78 1 min 0,000 mm 1,6 UV-I 376 W/m -1,1 C -1,4 C 19,3 km/h (3 Bft) 100,00 %
14.03.2016 12:37 3,7 C 70 % 1029,7 hPa 0,0 l/m 16,1 km/h (3 Bft) O 82 0 min 0,000 mm 1,5 UV-I 334 W/m -1,3 C -3,1 C 22,5 km/h (4 Bft) 100,00 %
14.03.2016 12:38 3,7 C 68 % 1029,7 hPa 0,0 l/m 15,4 km/h (3 Bft) NO 42 0 min 0,000 mm 1,5 UV-I 327 W/m -1,6 C -2,7 C 22,5 km/h (4 Bft) 100,00 %
14.03.2016 12:39 3,7 C 69 % 1029,7 hPa 0,0 l/m 20,0 km/h (4 Bft) NO 42 0 min 0,000 mm 1,5 UV-I 315 W/m -1,4 C -4,9 C 25,7 km/h (4 Bft) 100,00 %
14.03.2016 12:40 3,8 C 70 % 1029,7 hPa 0,0 l/m 18,6 km/h (3 Bft) O-NO 76 0 min 0,000 mm 1,5 UV-I 310 W/m -1,2 C -4,1 C 24,1 km/h (4 Bft) 96,30 %
14.03.2016 12:41 3,8 C 68 % 1029,7 hPa 0,0 l/m 17,7 km/h (3 Bft) NO 35 0 min 0,000 mm 1,5 UV-I 302 W/m -1,6 C -3,7 C 22,5 km/h (4 Bft) 94,12 %
14.03.2016 12:42 3,7 C 68 % 1029,7 hPa 0,0 l/m 13,8 km/h (3 Bft) NO 39 0 min 0,000 mm 1,6 UV-I 297 W/m -1,6 C -1,8 C 19,3 km/h (3 Bft) 100,00 %
14.03.2016 12:43 3,7 C 68 % 1029,7 hPa 0,0 l/m 14,2 km/h (3 Bft) NO 41 0 min 0,000 mm 1,6 UV-I 295 W/m -1,6 C -2,1 C 17,7 km/h (3 Bft) 100,00 %
14.03.2016 12:44 3,6 C 68 % 1029,7 hPa 0,0 l/m 12,4 km/h (3 Bft) O-NO 57 0 min 0,000 mm 1,6 UV-I 307 W/m -1,7 C -1,1 C 16,1 km/h (3 Bft) 100,00 %
14.03.2016 12:45 3,6 C 68 % 1029,7 hPa 0,0 l/m 22,5 km/h (4 Bft) O-NO 68 1 min 0,000 mm 1,9 UV-I 372 W/m -1,7 C -6,0 C 27,4 km/h (4 Bft) 100,00 %
14.03.2016 12:46 3,6 C 68 % 1029,7 hPa 0,0 l/m 17,8 km/h (3 Bft) O-NO 69 1 min 0,000 mm 2,2 UV-I 428 W/m -1,7 C -4,0 C 25,7 km/h (4 Bft) 100,00 %
14.03.2016 12:47 3,6 C 68 % 1029,7 hPa 0,0 l/m 16,3 km/h (3 Bft) O-NO 67 1 min 0,000 mm 1,8 UV-I 434 W/m -1,7 C -3,3 C 20,9 km/h (4 Bft) 100,00 %
14.03.2016 12:48 3,7 C 68 % 1029,7 hPa 0,0 l/m 15,7 km/h (3 Bft) O 98 1 min 0,000 mm 1,6 UV-I 428 W/m -1,6 C -2,9 C 20,9 km/h (4 Bft) 100,00 %
14.03.2016 12:49 3,7 C 69 % 1029,7 hPa 0,0 l/m 13,4 km/h (3 Bft) O-NO 76 0 min 0,000 mm 1,7 UV-I 328 W/m -1,4 C -1,6 C 20,9 km/h (4 Bft) 100,00 %
14.03.2016 12:50 3,7 C 68 % 1029,7 hPa 0,0 l/m 22,6 km/h (4 Bft) O-NO 64 0 min 0,000 mm 1,7 UV-I 330 W/m -1,6 C -5,9 C 32,2 km/h (5 Bft) 100,00 %
14.03.2016 12:51 3,7 C 68 % 1029,6 hPa 0,0 l/m 19,4 km/h (3 Bft) O 81 0 min 0,000 mm 1,7 UV-I 323 W/m -1,6 C -4,6 C 24,1 km/h (4 Bft) 100,00 %
14.03.2016 12:52 3,6 C 69 % 1029,7 hPa 0,0 l/m 16,2 km/h (3 Bft) O-NO 59 0 min 0,000 mm 1,7 UV-I 307 W/m -1,5 C -3,2 C 20,9 km/h (4 Bft) 100,00 %
14.03.2016 12:53 3,6 C 68 % 1029,6 hPa 0,0 l/m 14,6 km/h (3 Bft) O-NO 60 0 min 0,000 mm 1,6 UV-I 296 W/m -1,7 C -2,4 C 19,3 km/h (3 Bft) 100,00 %
14.03.2016 12:54 3,6 C 69 % 1029,7 hPa 0,0 l/m 16,9 km/h (3 Bft) NO 48 0 min 0,000 mm 1,6 UV-I 280 W/m -1,5 C -3,6 C 22,5 km/h (4 Bft) 100,00 %
14.03.2016 12:55 3,6 C 68 % 1029,6 hPa 0,0 l/m 17,1 km/h (3 Bft) O 96 0 min 0,000 mm 1,6 UV-I 263 W/m -1,7 C -3,7 C 24,1 km/h (4 Bft) 100,00 %
14.03.2016 12:56 3,5 C 68 % 1029,6 hPa 0,0 l/m 12,6 km/h (3 Bft) O-NO 71 0 min 0,000 mm 1,6 UV-I 264 W/m -1,8 C -1,4 C 22,5 km/h (4 Bft) 100,00 %
14.03.2016 12:57 3,5 C 70 % 1029,6 hPa 0,0 l/m 16,4 km/h (3 Bft) NO 55 0 min 0,000 mm 1,6 UV-I 269 W/m -1,4 C -3,5 C 20,9 km/h (4 Bft) 97,73 %
14.03.2016 12:58 3,6 C 71 % 1029,5 hPa 0,0 l/m 16,1 km/h (3 Bft) NO 55 0 min 0,000 mm 1,5 UV-I 258 W/m -1,2 C -3,2 C 19,3 km/h (3 Bft) 100,00 %
14.03.2016 12:59 3,6 C 70 % 1029,6 hPa 0,0 l/m 15,9 km/h (3 Bft) O-NO 67 0 min 0,000 mm 1,5 UV-I 239 W/m -1,3 C -3,1 C 20,9 km/h (4 Bft) 100,00 %
14.03.2016 13:00 3,5 C 68 % 1029,6 hPa 0,0 l/m 12,6 km/h (3 Bft) NO 49 0 min 0,000 mm 1,5 UV-I 204 W/m -1,8 C -1,4 C 19,3 km/h (3 Bft) 92,86 %
14.03.2016 13:01 3,4 C 67 % 1029,5 hPa 0,0 l/m 10,5 km/h (2 Bft) O-NO 73 0 min 0,178 mm 1,6 UV-I 186 W/m -2,1 C -0,1 C 22,5 km/h (4 Bft) 97,62 %
14.03.2016 13:02 3,4 C 68 % 1029,5 hPa 0,0 l/m 14,6 km/h (3 Bft) O-NO 76 0 min 0,000 mm 1,6 UV-I 178 W/m -1,9 C -2,6 C 20,9 km/h (4 Bft) 100,00 %
14.03.2016 13:03 3,4 C 69 % 1029,5 hPa 0,0 l/m 21,0 km/h (4 Bft) O-NO 71 0 min 0,000 mm 1,9 UV-I 186 W/m -1,7 C -5,6 C 32,2 km/h (5 Bft) 100,00 %
14.03.2016 13:04 3,4 C 69 % 1029,5 hPa 0,0 l/m 18,8 km/h (3 Bft) O-SO 111 0 min 0,000 mm 2,3 UV-I 202 W/m -1,7 C -4,7 C 27,4 km/h (4 Bft) 100,00 %
14.03.2016 13:05 3,4 C 69 % 1029,5 hPa 0,0 l/m 16,8 km/h (3 Bft) O-SO 123 1 min 0,000 mm 2,3 UV-I 557 W/m -1,7 C -3,8 C 22,5 km/h (4 Bft) 100,00 %
14.03.2016 13:06 3,5 C 69 % 1029,5 hPa 0,0 l/m 18,1 km/h (3 Bft) O-NO 74 1 min 0,000 mm 2,4 UV-I 628 W/m -1,6 C -4,3 C 24,1 km/h (4 Bft) 100,00 %
14.03.2016 13:07 3,6 C 68 % 1029,4 hPa 0,0 l/m 18,1 km/h (3 Bft) O 93 1 min 0,000 mm 2,4 UV-I 616 W/m -1,7 C -4,2 C 22,5 km/h (4 Bft) 100,00 %
14.03.2016 13:08 3,7 C 68 % 1029,4 hPa 0,0 l/m 17,1 km/h (3 Bft) O-NO 72 1 min 0,000 mm 2,4 UV-I 626 W/m -1,6 C -3,6 C 20,9 km/h (4 Bft) 100,00 %
14.03.2016 13:09 3,7 C 68 % 1029,4 hPa 0,0 l/m 11,5 km/h (2 Bft) NO 49 1 min 0,000 mm 2,4 UV-I 621 W/m -1,6 C -0,4 C 17,7 km/h (3 Bft) 100,00 %
14.03.2016 13:10 3,8 C 70 % 1029,4 hPa 0,0 l/m 13,5 km/h (3 Bft) O-NO 78 1 min 0,000 mm 2,4 UV-I 621 W/m -1,2 C -1,5 C 17,7 km/h (3 Bft) 100,00 %
14.03.2016 13:11 3,9 C 67 % 1029,4 hPa 0,0 l/m 16,5 km/h (3 Bft) O-NO 65 1 min 0,000 mm 2,4 UV-I 623 W/m -1,7 C -3,0 C 19,3 km/h (3 Bft) 100,00 %
14.03.2016 13:12 3,9 C 69 % 1029,3 hPa 0,0 l/m 17,8 km/h (3 Bft) O 88 1 min 0,000 mm 2,4 UV-I 621 W/m -1,3 C -3,6 C 22,5 km/h (4 Bft) 100,00 %
14.03.2016 13:13 4,0 C 68 % 1029,3 hPa 0,0 l/m 16,2 km/h (3 Bft) NO 55 1 min 0,000 mm 2,4 UV-I 618 W/m -1,4 C -2,8 C 22,5 km/h (4 Bft) 100,00 %
14.03.2016 13:14 4,1 C 68 % 1029,3 hPa 0,0 l/m 18,0 km/h (3 Bft) O-NO 63 1 min 0,000 mm 2,4 UV-I 619 W/m -1,3 C -3,5 C 22,5 km/h (4 Bft) 100,00 %
14.03.2016 13:15 4,1 C 67 % 1029,3 hPa 0,0 l/m 17,7 km/h (3 Bft) O-NO 69 1 min 0,000 mm 2,4 UV-I 620 W/m -1,5 C -3,3 C 22,5 km/h (4 Bft) 100,00 %
14.03.2016 13:16 4,1 C 66 % 1029,3 hPa 0,0 l/m 16,3 km/h (3 Bft) O-NO 70 1 min 0,000 mm 2,4 UV-I 616 W/m -1,7 C -2,7 C 20,9 km/h (4 Bft) 100,00 %
14.03.2016 13:17 4,1 C 68 % 1029,3 hPa 0,0 l/m 21,8 km/h (4 Bft) O-NO 61 1 min 0,000 mm 2,4 UV-I 613 W/m -1,3 C -5,0 C 30,6 km/h (5 Bft) 100,00 %
14.03.2016 13:18 4,2 C 68 % 1029,3 hPa 0,0 l/m 20,2 km/h (4 Bft) O-NO 63 1 min 0,000 mm 2,3 UV-I 610 W/m -1,2 C -4,3 C 25,7 km/h (4 Bft) 100,00 %
14.03.2016 13:19 4,2 C 68 % 1029,3 hPa 0,0 l/m 16,6 km/h (3 Bft) O-NO 71 1 min 0,000 mm 2,3 UV-I 611 W/m -1,2 C -2,7 C 20,9 km/h (4 Bft) 100,00 %
14.03.2016 13:20 4,2 C 68 % 1029,3 hPa 0,0 l/m 12,8 km/h (3 Bft) O-NO 65 1 min 0,000 mm 2,3 UV-I 609 W/m -1,2 C -0,7 C 16,1 km/h (3 Bft) 91,67 %
14.03.2016 13:21 4,3 C 69 % 1029,3 hPa 0,0 l/m 18,2 km/h (3 Bft) O-NO 74 1 min 0,000 mm 2,3 UV-I 598 W/m -0,9 C -3,3 C 24,1 km/h (4 Bft) 100,00 %
14.03.2016 13:22 4,4 C 66 % 1029,3 hPa 0,0 l/m 14,7 km/h (3 Bft) O 79 1 min 0,000 mm 2,3 UV-I 603 W/m -1,4 C -1,5 C 24,1 km/h (4 Bft) 100,00 %
14.03.2016 13:23 4,3 C 67 % 1029,2 hPa 0,0 l/m 16,2 km/h (3 Bft) O 101 1 min 0,000 mm 2,3 UV-I 606 W/m -1,3 C -2,4 C 22,5 km/h (4 Bft) 92,86 %
14.03.2016 13:24 4,3 C 68 % 1029,2 hPa 0,0 l/m 13,8 km/h (3 Bft) O 95 1 min 0,000 mm 2,3 UV-I 606 W/m -1,1 C -1,1 C 20,9 km/h (4 Bft) 100,00 %
14.03.2016 13:25 4,3 C 67 % 1029,2 hPa 0,0 l/m 15,6 km/h (3 Bft) O-NO 62 1 min 0,000 mm 2,3 UV-I 602 W/m -1,3 C -2,1 C 19,3 km/h (3 Bft) 96,15 %
14.03.2016 13:26 4,3 C 66 % 1029,2 hPa 0,0 l/m 16,1 km/h (3 Bft) O-NO 61 1 min 0,000 mm 2,3 UV-I 599 W/m -1,5 C -2,3 C 25,7 km/h (4 Bft) 100,00 %
14.03.2016 13:27 4,3 C 65 % 1029,2 hPa 0,0 l/m 18,0 km/h (3 Bft) O-NO 69 1 min 0,000 mm 2,3 UV-I 598 W/m -1,7 C -3,2 C 20,9 km/h (4 Bft) 97,56 %
14.03.2016 13:28 4,2 C 64 % 1029,2 hPa 0,0 l/m 11,3 km/h (2 Bft) O 79 1 min 0,000 mm 2,3 UV-I 596 W/m -2,0 C 0,3 C 17,7 km/h (3 Bft) 100,00 %
14.03.2016 13:29 4,2 C 67 % 1029,1 hPa 0,0 l/m 13,6 km/h (3 Bft) O 97 1 min 0,000 mm 2,2 UV-I 592 W/m -1,4 C -1,1 C 19,3 km/h (3 Bft) 100,00 %
14.03.2016 13:30 4,3 C 67 % 1029,1 hPa 0,0 l/m 8,4 km/h (2 Bft) O-SO 113 1 min 0,000 mm 2,2 UV-I 593 W/m -1,3 C 2,5 C 14,5 km/h (3 Bft) 100,00 %
14.03.2016 13:31 4,3 C 68 % 1029,1 hPa 0,0 l/m 6,9 km/h (2 Bft) O 94 1 min 0,000 mm 2,2 UV-I 590 W/m -1,1 C 3,9 C 14,5 km/h (3 Bft) 95,65 %
14.03.2016 13:32 4,3 C 67 % 1029,1 hPa 0,0 l/m 6,3 km/h (2 Bft) S 182 1 min 0,000 mm 2,2 UV-I 590 W/m -1,3 C 4,3 C 8,0 km/h (2 Bft) 100,00 %
14.03.2016 13:33 4,4 C 67 % 1029,1 hPa 0,0 l/m 14,4 km/h (3 Bft) O-NO 71 1 min 0,000 mm 2,2 UV-I 586 W/m -1,2 C -1,3 C 22,5 km/h (4 Bft) 100,00 %
14.03.2016 13:34 4,4 C 68 % 1029,0 hPa 0,0 l/m 8,9 km/h (2 Bft) O-SO 115 1 min 0,000 mm 2,2 UV-I 590 W/m -1,0 C 2,2 C 12,9 km/h (3 Bft) 100,00 %
14.03.2016 13:35 4,5 C 67 % 1029,0 hPa 0,0 l/m 8,2 km/h (2 Bft) SO 144 1 min 0,000 mm 2,2 UV-I 586 W/m -1,1 C 2,9 C 12,9 km/h (3 Bft) 100,00 %
14.03.2016 13:36 4,7 C 69 % 1029,0 hPa 0,0 l/m 7,9 km/h (2 Bft) O 84 1 min 0,000 mm 2,2 UV-I 592 W/m -0,5 C 3,4 C 17,7 km/h (3 Bft) 100,00 %
14.03.2016 13:37 4,7 C 67 % 1029,0 hPa 0,0 l/m 15,7 km/h (3 Bft) O 80 1 min 0,000 mm 2,2 UV-I 586 W/m -0,9 C -1,6 C 22,5 km/h (4 Bft) 98,74 %
14.03.2016 13:38 4,7 C 67 % 1029,0 hPa 0,0 l/m 14,1 km/h (3 Bft) SO 129 1 min 0,000 mm 2,2 UV-I 580 W/m -0,9 C -0,8 C 22,5 km/h (4 Bft) 97,56 %
14.03.2016 13:39 4,7 C 65 % 1029,0 hPa 0,0 l/m 14,7 km/h (3 Bft) SO 130 1 min 0,000 mm 2,2 UV-I 578 W/m -1,3 C -1,1 C 20,9 km/h (4 Bft) 100,00 %
14.03.2016 13:40 4,7 C 65 % 1029,0 hPa 0,0 l/m 15,1 km/h (3 Bft) O 88 1 min 0,000 mm 2,2 UV-I 584 W/m -1,3 C -1,3 C 22,5 km/h (4 Bft) 96,15 %
14.03.2016 13:41 4,6 C 66 % 1029,0 hPa 0,0 l/m 17,2 km/h (3 Bft) O 90 1 min 0,000 mm 2,1 UV-I 580 W/m -1,2 C -2,5 C 20,9 km/h (4 Bft) 100,00 %
14.03.2016 13:42 4,7 C 66 % 1029,0 hPa 0,0 l/m 21,9 km/h (4 Bft) O-NO 78 1 min 0,000 mm 2,1 UV-I 578 W/m -1,1 C -4,3 C 25,7 km/h (4 Bft) 96,15 %
14.03.2016 13:43 4,7 C 66 % 1029,0 hPa 0,0 l/m 19,8 km/h (3 Bft) NO 42 1 min 0,000 mm 2,1 UV-I 581 W/m -1,1 C -3,5 C 24,1 km/h (4 Bft) 100,00 %
14.03.2016 13:44 4,7 C 66 % 1028,9 hPa 0,0 l/m 19,5 km/h (3 Bft) O 79 1 min 0,000 mm 2,1 UV-I 580 W/m -1,1 C -3,4 C 27,4 km/h (4 Bft) 91,30 %
14.03.2016 13:45 4,6 C 65 % 1029,0 hPa 0,0 l/m 16,0 km/h (3 Bft) O-NO 71 1 min 0,000 mm 2,1 UV-I 577 W/m -1,4 C -1,9 C 24,1 km/h (4 Bft) 100,00 %
14.03.2016 13:46 4,6 C 65 % 1028,9 hPa 0,0 l/m 12,8 km/h (3 Bft) O 88 1 min 0,000 mm 2,1 UV-I 572 W/m -1,4 C -0,2 C 17,7 km/h (3 Bft) 94,12 %
14.03.2016 13:47 4,6 C 66 % 1028,9 hPa 0,0 l/m 11,1 km/h (2 Bft) O-NO 70 1 min 0,000 mm 2,1 UV-I 570 W/m -1,2 C 0,9 C 16,1 km/h (3 Bft) 100,00 %
14.03.2016 13:48 4,6 C 67 % 1028,9 hPa 0,0 l/m 6,6 km/h (2 Bft) O-NO 69 1 min 0,000 mm 2,1 UV-I 571 W/m -1,0 C 4,4 C 14,5 km/h (3 Bft) 96,55 %
14.03.2016 13:49 4,6 C 67 % 1028,9 hPa 0,0 l/m 17,4 km/h (3 Bft) O-NO 69 1 min 0,000 mm 2,1 UV-I 573 W/m -1,0 C -2,6 C 20,9 km/h (4 Bft) 92,59 %
14.03.2016 13:50 4,6 C 66 % 1028,9 hPa 0,0 l/m 17,0 km/h (3 Bft) O-NO 68 1 min 0,000 mm 2,1 UV-I 566 W/m -1,2 C -2,4 C 20,9 km/h (4 Bft) 100,00 %
14.03.2016 13:51 4,6 C 66 % 1028,8 hPa 0,0 l/m 12,1 km/h (2 Bft) O-NO 70 1 min 0,000 mm 2,0 UV-I 562 W/m -1,2 C 0,2 C 17,7 km/h (3 Bft) 93,10 %
14.03.2016 13:52 4,6 C 66 % 1028,8 hPa 0,0 l/m 13,3 km/h (3 Bft) O-NO 74 1 min 0,000 mm 2,0 UV-I 561 W/m -1,2 C -0,5 C 16,1 km/h (3 Bft) 96,15 %
14.03.2016 13:53 4,7 C 68 % 1028,8 hPa 0,0 l/m 11,8 km/h (2 Bft) SO 129 1 min 0,000 mm 2,0 UV-I 563 W/m -0,7 C 0,5 C 17,7 km/h (3 Bft) 93,33 %
14.03.2016 13:54 4,8 C 68 % 1028,9 hPa 0,0 l/m 11,0 km/h (2 Bft) O 86 1 min 0,000 mm 2,0 UV-I 563 W/m -0,6 C 1,2 C 14,5 km/h (3 Bft) 100,00 %
14.03.2016 13:55 4,8 C 66 % 1028,9 hPa 0,0 l/m 16,6 km/h (3 Bft) NO 54 1 min 0,000 mm 2,0 UV-I 564 W/m -1,0 C -2,0 C 22,5 km/h (4 Bft) 96,30 %
14.03.2016 13:56 4,7 C 65 % 1028,9 hPa 0,0 l/m 12,7 km/h (3 Bft) NO 48 1 min 0,000 mm 2,0 UV-I 560 W/m -1,3 C -0,0 C 17,7 km/h (3 Bft) 95,65 %
14.03.2016 13:57 4,7 C 67 % 1028,8 hPa 0,0 l/m 17,8 km/h (3 Bft) O-NO 59 1 min 0,000 mm 2,0 UV-I 562 W/m -0,9 C -2,6 C 22,5 km/h (4 Bft) 100,00 %
14.03.2016 13:58 4,7 C 66 % 1028,8 hPa 0,0 l/m 12,3 km/h (3 Bft) SO 130 1 min 0,000 mm 2,0 UV-I 561 W/m -1,1 C 0,2 C 17,7 km/h (3 Bft) 100,00 %
14.03.2016 13:59 4,8 C 68 % 1028,8 hPa 0,0 l/m 3,8 km/h (1 Bft) SO 125 1 min 0,000 mm 2,0 UV-I 556 W/m -0,6 C 4,8 C 8,0 km/h (2 Bft) 96,15 %
14.03.2016 14:00 4,7 C 65 % 1028,8 hPa 0,0 l/m 8,3 km/h (2 Bft) O-NO 75 1 min 0,254 mm 2,0 UV-I 559 W/m -1,3 C 3,0 C 14,5 km/h (3 Bft) 91,67 %
14.03.2016 14:01 4,8 C 67 % 1028,8 hPa 0,0 l/m 10,2 km/h (2 Bft) O-SO 123 1 min 0,000 mm 2,0 UV-I 559 W/m -0,8 C 1,7 C 20,9 km/h (4 Bft) 96,15 %
14.03.2016 14:02 4,9 C 66 % 1028,7 hPa 0,0 l/m 17,9 km/h (3 Bft) S-SO 150 1 min 0,000 mm 1,9 UV-I 558 W/m -0,9 C -2,4 C 22,5 km/h (4 Bft) 96,30 %
14.03.2016 14:03 4,8 C 66 % 1028,6 hPa 0,0 l/m 11,7 km/h (2 Bft) NO 45 1 min 0,000 mm 1,9 UV-I 543 W/m -1,0 C 0,7 C 17,7 km/h (3 Bft) 100,00 %
14.03.2016 14:04 4,8 C 66 % 1028,7 hPa 0,0 l/m 10,0 km/h (2 Bft) O-SO 118 1 min 0,000 mm 1,9 UV-I 543 W/m -1,0 C 1,9 C 22,5 km/h (4 Bft) 96,67 %
14.03.2016 14:05 4,8 C 66 % 1028,6 hPa 0,0 l/m 11,9 km/h (2 Bft) O-NO 73 1 min 0,000 mm 1,9 UV-I 547 W/m -1,0 C 0,6 C 20,9 km/h (4 Bft) 100,00 %
14.03.2016 14:06 4,8 C 66 % 1028,6 hPa 0,0 l/m 17,5 km/h (3 Bft) O-NO 57 1 min 0,000 mm 1,9 UV-I 546 W/m -1,0 C -2,4 C 22,5 km/h (4 Bft) 100,00 %
14.03.2016 14:07 4,8 C 66 % 1028,6 hPa 0,0 l/m 12,4 km/h (3 Bft) O-SO 106 1 min 0,000 mm 1,9 UV-I 544 W/m -1,0 C 0,3 C 16,1 km/h (3 Bft) 100,00 %
14.03.2016 14:08 4,8 C 67 % 1028,6 hPa 0,0 l/m 11,0 km/h (2 Bft) O 86 1 min 0,000 mm 1,9 UV-I 545 W/m -0,8 C 1,2 C 16,1 km/h (3 Bft) 100,00 %
14.03.2016 14:09 4,9 C 67 % 1028,6 hPa 0,0 l/m 15,2 km/h (3 Bft) O-SO 109 1 min 0,000 mm 1,8 UV-I 543 W/m -0,7 C -1,1 C 20,9 km/h (4 Bft) 96,15 %
14.03.2016 14:10 4,9 C 64 % 1028,6 hPa 0,0 l/m 18,9 km/h (3 Bft) O 84 1 min 0,000 mm 1,8 UV-I 544 W/m -1,3 C -2,9 C 22,5 km/h (4 Bft) 100,00 %
14.03.2016 14:11 4,8 C 64 % 1028,5 hPa 0,0 l/m 18,0 km/h (3 Bft) O 89 1 min 0,000 mm 1,8 UV-I 541 W/m -1,4 C -2,6 C 24,1 km/h (4 Bft) 95,65 %
14.03.2016 14:12 4,8 C 65 % 1028,5 hPa 0,0 l/m 14,6 km/h (3 Bft) O-SO 107 1 min 0,000 mm 1,8 UV-I 538 W/m -1,2 C -1,0 C 22,5 km/h (4 Bft) 100,00 %
14.03.2016 14:13 4,7 C 64 % 1028,5 hPa 0,0 l/m 10,8 km/h (2 Bft) O-NO 69 1 min 0,000 mm 1,8 UV-I 536 W/m -1,5 C 1,2 C 16,1 km/h (3 Bft) 100,00 %
14.03.2016 14:14 4,7 C 65 % 1028,5 hPa 0,0 l/m 13,4 km/h (3 Bft) O-NO 71 1 min 0,000 mm 1,8 UV-I 534 W/m -1,3 C -0,4 C 16,1 km/h (3 Bft) 97,56 %
14.03.2016 14:15 4,8 C 65 % 1028,4 hPa 0,0 l/m 13,3 km/h (3 Bft) O-NO 61 1 min 0,000 mm 1,8 UV-I 531 W/m -1,2 C -0,2 C 20,9 km/h (4 Bft) 100,00 %
14.03.2016 14:16 4,8 C 66 % 1028,4 hPa 0,0 l/m 19,4 km/h (3 Bft) O-NO 64 1 min 0,000 mm 1,8 UV-I 531 W/m -1,0 C -3,2 C 25,7 km/h (4 Bft) 100,00 %
14.03.2016 14:17 4,8 C 64 % 1028,4 hPa 0,0 l/m 10,9 km/h (2 Bft) O-SO 107 1 min 0,000 mm 1,8 UV-I 528 W/m -1,4 C 1,2 C 22,5 km/h (4 Bft) 93,10 %
14.03.2016 14:18 4,7 C 65 % 1028,4 hPa 0,0 l/m 11,4 km/h (2 Bft) O-SO 111 1 min 0,000 mm 1,8 UV-I 526 W/m -1,3 C 0,8 C 17,7 km/h (3 Bft) 100,00 %
14.03.2016 14:19 4,7 C 65 % 1028,4 hPa 0,0 l/m 11,2 km/h (2 Bft) O-NO 77 1 min 0,000 mm 1,7 UV-I 530 W/m -1,3 C 0,9 C 16,1 km/h (3 Bft) 100,00 %
14.03.2016 14:20 4,7 C 66 % 1028,3 hPa 0,0 l/m 14,7 km/h (3 Bft) O-NO 76 1 min 0,000 mm 1,7 UV-I 527 W/m -1,1 C -1,1 C 19,3 km/h (3 Bft) 100,00 %
14.03.2016 14:21 4,8 C 65 % 1028,4 hPa 0,0 l/m 17,4 km/h (3 Bft) O 92 1 min 0,000 mm 1,7 UV-I 524 W/m -1,2 C -2,3 C 20,9 km/h (4 Bft) 100,00 %
14.03.2016 14:22 4,8 C 64 % 1028,4 hPa 0,0 l/m 15,3 km/h (3 Bft) O-NO 69 1 min 0,000 mm 1,7 UV-I 522 W/m -1,4 C -1,3 C 19,3 km/h (3 Bft) 100,00 %
14.03.2016 14:23 4,8 C 64 % 1028,3 hPa 0,0 l/m 8,8 km/h (2 Bft) NO 56 1 min 0,000 mm 1,7 UV-I 520 W/m -1,4 C 2,7 C 12,9 km/h (3 Bft) 100,00 %
14.03.2016 14:24 4,8 C 64 % 1028,3 hPa 0,0 l/m 15,4 km/h (3 Bft) O-NO 60 1 min 0,000 mm 1,7 UV-I 517 W/m -1,4 C -1,4 C 20,9 km/h (4 Bft) 100,00 %
14.03.2016 14:25 4,9 C 66 % 1028,3 hPa 0,0 l/m 10,7 km/h (2 Bft) O-NO 76 1 min 0,000 mm 1,7 UV-I 513 W/m -0,9 C 1,5 C 14,5 km/h (3 Bft) 100,00 %
14.03.2016 14:26 4,9 C 67 % 1028,3 hPa 0,0 l/m 12,8 km/h (3 Bft) O 84 1 min 0,000 mm 1,6 UV-I 512 W/m -0,7 C 0,2 C 17,7 km/h (3 Bft) 100,00 %
14.03.2016 14:27 5,0 C 66 % 1028,3 hPa 0,0 l/m 14,2 km/h (3 Bft) O-SO 103 1 min 0,000 mm 1,6 UV-I 507 W/m -0,8 C -0,5 C 20,9 km/h (4 Bft) 100,00 %
14.03.2016 14:28 5,1 C 66 % 1028,3 hPa 0,0 l/m 12,0 km/h (2 Bft) O-SO 122 1 min 0,000 mm 1,6 UV-I 509 W/m -0,7 C 0,9 C 16,1 km/h (3 Bft) 95,65 %
14.03.2016 14:29 5,1 C 66 % 1028,3 hPa 0,0 l/m 13,0 km/h (3 Bft) SO 136 1 min 0,000 mm 1,6 UV-I 506 W/m -0,7 C 0,3 C 16,1 km/h (3 Bft) 100,00 %
14.03.2016 14:30 5,1 C 66 % 1028,3 hPa 0,0 l/m 10,8 km/h (2 Bft) O 96 1 min 0,000 mm 1,6 UV-I 505 W/m -0,7 C 1,6 C 14,5 km/h (3 Bft) 100,00 %
14.03.2016 14:31 5,1 C 64 % 1028,3 hPa 0,0 l/m 8,2 km/h (2 Bft) SO 137 1 min 0,000 mm 1,6 UV-I 504 W/m -1,1 C 3,5 C 12,9 km/h (3 Bft) 100,00 %
14.03.2016 14:32 5,0 C 65 % 1028,2 hPa 0,0 l/m 7,9 km/h (2 Bft) SO 142 1 min 0,000 mm 1,6 UV-I 500 W/m -1,0 C 3,7 C 12,9 km/h (3 Bft) 100,00 %
14.03.2016 14:33 4,9 C 64 % 1028,3 hPa 0,0 l/m 6,0 km/h (2 Bft) O-SO 111 1 min 0,000 mm 1,5 UV-I 497 W/m -1,3 C 4,9 C 9,7 km/h (2 Bft) 96,15 %
14.03.2016 14:34 5,0 C 66 % 1028,3 hPa 0,0 l/m 11,2 km/h (2 Bft) O 97 1 min 0,000 mm 1,5 UV-I 496 W/m -0,8 C 1,3 C 17,7 km/h (3 Bft) 100,00 %
14.03.2016 14:35 4,9 C 65 % 1028,3 hPa 0,0 l/m 9,4 km/h (2 Bft) SO 126 1 min 0,000 mm 1,5 UV-I 493 W/m -1,1 C 2,4 C 14,5 km/h (3 Bft) 100,00 %
14.03.2016 14:36 5,1 C 66 % 1028,3 hPa 0,0 l/m 10,7 km/h (2 Bft) O-SO 104 1 min 0,000 mm 1,5 UV-I 493 W/m -0,7 C 1,7 C 14,5 km/h (3 Bft) 100,00 %
14.03.2016 14:37 5,1 C 64 % 1028,3 hPa 0,0 l/m 9,0 km/h (2 Bft) SO 145 1 min 0,000 mm 1,5 UV-I 491 W/m -1,1 C 2,9 C 14,5 km/h (3 Bft) 100,00 %
14.03.2016 14:38 5,1 C 66 % 1028,2 hPa 0,0 l/m 4,3 km/h (1 Bft) O 94 1 min 0,000 mm 1,5 UV-I 490 W/m -0,7 C 5,1 C 8,0 km/h (2 Bft) 100,00 %
14.03.2016 14:39 5,2 C 67 % 1028,2 hPa 0,0 l/m 7,1 km/h (2 Bft) NO 51 1 min 0,000 mm 1,5 UV-I 489 W/m -0,4 C 4,6 C 12,9 km/h (3 Bft) 100,00 %
14.03.2016 14:40 5,3 C 68 % 1028,2 hPa 0,0 l/m 13,8 km/h (3 Bft) O 90 1 min 0,000 mm 1,5 UV-I 484 W/m -0,1 C 0,1 C 17,7 km/h (3 Bft) 100,00 %
14.03.2016 14:41 5,3 C 65 % 1028,2 hPa 0,0 l/m 16,2 km/h (3 Bft) O-SO 107 1 min 0,000 mm 1,5 UV-I 483 W/m -0,7 C -1,1 C 19,3 km/h (3 Bft) 100,00 %
14.03.2016 14:42 5,3 C 66 % 1028,2 hPa 0,0 l/m 14,0 km/h (3 Bft) O-SO 115 1 min 0,000 mm 1,4 UV-I 483 W/m -0,5 C -0,0 C 16,1 km/h (3 Bft) 100,00 %
14.03.2016 14:43 5,3 C 64 % 1028,2 hPa 0,0 l/m 9,4 km/h (2 Bft) O 93 1 min 0,000 mm 1,4 UV-I 482 W/m -0,9 C 2,8 C 14,5 km/h (3 Bft) 100,00 %
14.03.2016 14:44 5,2 C 64 % 1028,2 hPa 0,0 l/m 17,4 km/h (3 Bft) O-NO 57 1 min 0,000 mm 1,4 UV-I 479 W/m -1,0 C -1,8 C 20,9 km/h (4 Bft) 100,00 %
14.03.2016 14:45 5,2 C 63 % 1028,2 hPa 0,0 l/m 14,6 km/h (3 Bft) NO 49 1 min 0,000 mm 1,4 UV-I 476 W/m -1,3 C -0,5 C 20,9 km/h (4 Bft) 96,15 %
14.03.2016 14:46 5,1 C 62 % 1028,2 hPa 0,0 l/m 8,6 km/h (2 Bft) O-NO 69 1 min 0,000 mm 1,4 UV-I 474 W/m -1,6 C 3,2 C 12,9 km/h (3 Bft) 100,00 %
14.03.2016 14:47 5,1 C 64 % 1028,1 hPa 0,0 l/m 12,2 km/h (2 Bft) O-NO 65 1 min 0,000 mm 1,4 UV-I 470 W/m -1,1 C 0,8 C 16,1 km/h (3 Bft) 100,00 %
14.03.2016 14:48 5,1 C 64 % 1028,1 hPa 0,0 l/m 9,7 km/h (2 Bft) O-SO 110 1 min 0,000 mm 1,4 UV-I 468 W/m -1,1 C 2,4 C 16,1 km/h (3 Bft) 100,00 %
14.03.2016 14:49 5,2 C 66 % 1028,1 hPa 0,0 l/m 11,0 km/h (2 Bft) SO 138 1 min 0,000 mm 1,3 UV-I 467 W/m -0,6 C 1,6 C 16,1 km/h (3 Bft) 100,00 %
14.03.2016 14:50 5,2 C 65 % 1028,1 hPa 0,0 l/m 12,2 km/h (2 Bft) O-SO 120 1 min 0,000 mm 1,3 UV-I 464 W/m -0,8 C 0,9 C 17,7 km/h (3 Bft) 100,00 %
14.03.2016 14:51 5,2 C 64 % 1028,1 hPa 0,0 l/m 11,1 km/h (2 Bft) O-NO 61 1 min 0,000 mm 1,3 UV-I 462 W/m -1,0 C 1,6 C 14,5 km/h (3 Bft) 100,00 %
14.03.2016 14:52 5,2 C 65 % 1028,1 hPa 0,0 l/m 9,8 km/h (2 Bft) O-NO 76 1 min 0,000 mm 1,3 UV-I 462 W/m -0,8 C 2,4 C 14,5 km/h (3 Bft) 92,59 %
14.03.2016 14:53 5,2 C 65 % 1028,0 hPa 0,0 l/m 11,4 km/h (2 Bft) O-SO 121 1 min 0,000 mm 1,3 UV-I 462 W/m -0,8 C 1,4 C 16,1 km/h (3 Bft) 100,00 %
14.03.2016 14:54 5,2 C 65 % 1028,1 hPa 0,0 l/m 11,9 km/h (2 Bft) O-SO 107 1 min 0,000 mm 1,3 UV-I 460 W/m -0,8 C 1,0 C 14,5 km/h (3 Bft) 100,00 %
14.03.2016 14:55 5,3 C 65 % 1028,0 hPa 0,0 l/m 14,1 km/h (3 Bft) SO 142 1 min 0,000 mm 1,3 UV-I 456 W/m -0,7 C -0,1 C 19,3 km/h (3 Bft) 100,00 %
14.03.2016 14:56 5,2 C 65 % 1028,0 hPa 0,0 l/m 12,2 km/h (2 Bft) O-SO 106 1 min 0,000 mm 1,3 UV-I 454 W/m -0,8 C 0,9 C 20,9 km/h (4 Bft) 100,00 %
14.03.2016 14:57 5,2 C 65 % 1028,0 hPa 0,0 l/m 7,1 km/h (2 Bft) O-NO 68 1 min 0,000 mm 1,3 UV-I 452 W/m -0,8 C 4,6 C 12,9 km/h (3 Bft) 100,00 %
14.03.2016 14:58 5,3 C 65 % 1027,9 hPa 0,0 l/m 6,7 km/h (2 Bft) O-SO 105 1 min 0,000 mm 1,3 UV-I 450 W/m -0,7 C 5,1 C 22,5 km/h (4 Bft) 100,00 %
14.03.2016 14:59 5,3 C 65 % 1028,0 hPa 0,0 l/m 12,6 km/h (3 Bft) O-NO 74 1 min 0,000 mm 1,3 UV-I 448 W/m -0,7 C 0,7 C 22,5 km/h (4 Bft) 96,30 %
14.03.2016 15:00 5,3 C 62 % 1027,9 hPa 0,0 l/m 15,9 km/h (3 Bft) O-NO 70 1 min 0,000 mm 1,2 UV-I 440 W/m -1,4 C -1,0 C 22,5 km/h (4 Bft) 100,00 %
14.03.2016 15:02 5,2 C 63 % 1027,9 hPa 0,0 l/m 15,6 km/h (3 Bft) O-NO 57 2 min 0,229 mm 1,2 UV-I 438 W/m -1,3 C -1,0 C 19,3 km/h (3 Bft) 97,73 %
14.03.2016 15:03 5,2 C 62 % 1027,8 hPa 0,0 l/m 10,6 km/h (2 Bft) O 84 1 min 0,000 mm 1,2 UV-I 441 W/m -1,5 C 1,9 C 14,5 km/h (3 Bft) 95,83 %
14.03.2016 15:04 5,2 C 63 % 1027,9 hPa 0,0 l/m 14,3 km/h (3 Bft) O-NO 70 1 min 0,000 mm 1,2 UV-I 439 W/m -1,3 C -0,3 C 19,3 km/h (3 Bft) 100,00 %
14.03.2016 15:05 5,2 C 64 % 1027,9 hPa 0,0 l/m 10,2 km/h (2 Bft) O-NO 78 1 min 0,000 mm 1,2 UV-I 437 W/m -1,0 C 2,2 C 16,1 km/h (3 Bft) 100,00 %
14.03.2016 15:06 5,2 C 63 % 1027,8 hPa 0,0 l/m 9,2 km/h (2 Bft) O-NO 78 1 min 0,000 mm 1,2 UV-I 434 W/m -1,3 C 2,9 C 12,9 km/h (3 Bft) 100,00 %
14.03.2016 15:07 5,1 C 63 % 1027,8 hPa 0,0 l/m 5,0 km/h (1 Bft) NO 55 1 min 0,000 mm 1,2 UV-I 431 W/m -1,4 C 5,1 C 8,0 km/h (2 Bft) 95,83 %
14.03.2016 15:08 5,1 C 64 % 1027,8 hPa 0,0 l/m 13,6 km/h (3 Bft) O-SO 115 1 min 0,000 mm 1,1 UV-I 429 W/m -1,1 C -0,1 C 19,3 km/h (3 Bft) 96,15 %
14.03.2016 15:09 5,2 C 65 % 1027,9 hPa 0,0 l/m 13,4 km/h (3 Bft) O 82 1 min 0,000 mm 1,1 UV-I 424 W/m -0,8 C 0,2 C 16,1 km/h (3 Bft) 100,00 %
14.03.2016 15:10 5,3 C 67 % 1027,8 hPa 0,0 l/m 15,6 km/h (3 Bft) O-SO 115 1 min 0,000 mm 1,1 UV-I 423 W/m -0,3 C -0,9 C 20,9 km/h (4 Bft) 100,00 %
14.03.2016 15:11 5,3 C 66 % 1027,8 hPa 0,0 l/m 15,7 km/h (3 Bft) O 93 1 min 0,000 mm 1,1 UV-I 422 W/m -0,5 C -0,9 C 19,3 km/h (3 Bft) 100,00 %
14.03.2016 15:12 5,3 C 63 % 1027,8 hPa 0,0 l/m 9,6 km/h (2 Bft) O 92 1 min 0,000 mm 1,1 UV-I 419 W/m -1,2 C 2,7 C 12,9 km/h (3 Bft) 100,00 %
14.03.2016 15:13 5,3 C 64 % 1027,7 hPa 0,0 l/m 7,0 km/h (2 Bft) O 90 1 min 0,000 mm 1,1 UV-I 416 W/m -0,9 C 4,8 C 11,3 km/h (2 Bft) 100,00 %
14.03.2016 15:14 5,2 C 63 % 1027,7 hPa 0,0 l/m 11,8 km/h (2 Bft) O-SO 108 1 min 0,000 mm 1,1 UV-I 413 W/m -1,3 C 1,1 C 16,1 km/h (3 Bft) 95,65 %
14.03.2016 15:15 5,2 C 65 % 1027,7 hPa 0,0 l/m 10,1 km/h (2 Bft) O 99 1 min 0,000 mm 1,1 UV-I 411 W/m -0,8 C 2,2 C 14,5 km/h (3 Bft) 100,00 %
14.03.2016 15:16 5,3 C 64 % 1027,7 hPa 0,0 l/m 12,4 km/h (3 Bft) O 98 1 min 0,000 mm 1,0 UV-I 409 W/m -0,9 C 0,9 C 17,7 km/h (3 Bft) 100,00 %
14.03.2016 15:17 5,3 C 64 % 1027,7 hPa 0,0 l/m 9,2 km/h (2 Bft) O-NO 62 1 min 0,000 mm 1,0 UV-I 406 W/m -0,9 C 3,0 C 12,9 km/h (3 Bft) 95,65 %
14.03.2016 15:18 5,3 C 63 % 1027,7 hPa 0,0 l/m 9,3 km/h (2 Bft) O-NO 71 1 min 0,000 mm 1,0 UV-I 404 W/m -1,2 C 2,9 C 14,5 km/h (3 Bft) 100,00 %
14.03.2016 15:19 5,3 C 64 % 1027,7 hPa 0,0 l/m 12,9 km/h (3 Bft) O-SO 120 1 min 0,000 mm 1,0 UV-I 402 W/m -0,9 C 0,6 C 19,3 km/h (3 Bft) 91,30 %
14.03.2016 15:20 5,3 C 63 % 1027,7 hPa 0,0 l/m 10,9 km/h (2 Bft) NO 45 1 min 0,000 mm 1,0 UV-I 399 W/m -1,2 C 1,8 C 16,1 km/h (3 Bft) 100,00 %
14.03.2016 15:21 5,3 C 65 % 1027,7 hPa 0,0 l/m 12,5 km/h (3 Bft) NO 49 1 min 0,000 mm 1,0 UV-I 395 W/m -0,7 C 0,8 C 17,7 km/h (3 Bft) 96,15 %
14.03.2016 15:22 5,3 C 65 % 1027,6 hPa 0,0 l/m 15,8 km/h (3 Bft) O 90 1 min 0,000 mm 1,0 UV-I 391 W/m -0,7 C -1,0 C 20,9 km/h (4 Bft) 92,59 %
14.03.2016 15:23 5,3 C 63 % 1027,6 hPa 0,0 l/m 17,4 km/h (3 Bft) O 80 1 min 0,000 mm 1,0 UV-I 389 W/m -1,2 C -1,7 C 19,3 km/h (3 Bft) 100,00 %
14.03.2016 15:24 5,2 C 62 % 1027,6 hPa 0,0 l/m 13,5 km/h (3 Bft) O-NO 73 1 min 0,000 mm 1,0 UV-I 387 W/m -1,5 C 0,1 C 17,7 km/h (3 Bft) 96,30 %
14.03.2016 15:25 5,2 C 63 % 1027,6 hPa 0,0 l/m 9,3 km/h (2 Bft) O 92 1 min 0,000 mm 0,9 UV-I 387 W/m -1,3 C 2,8 C 12,9 km/h (3 Bft) 96,15 %
14.03.2016 15:26 5,2 C 63 % 1027,6 hPa 0,0 l/m 8,7 km/h (2 Bft) O-SO 111 1 min 0,000 mm 0,9 UV-I 383 W/m -1,3 C 3,3 C 12,9 km/h (3 Bft) 95,83 %
14.03.2016 15:27 5,3 C 64 % 1027,6 hPa 0,0 l/m 8,9 km/h (2 Bft) SO 125 1 min 0,000 mm 0,9 UV-I 378 W/m -0,9 C 3,2 C 16,1 km/h (3 Bft) 100,00 %
14.03.2016 15:28 5,2 C 63 % 1027,5 hPa 0,0 l/m 7,0 km/h (2 Bft) SO 137 1 min 0,000 mm 0,9 UV-I 375 W/m -1,3 C 4,7 C 11,3 km/h (2 Bft) 93,33 %
14.03.2016 15:29 5,3 C 64 % 1027,5 hPa 0,0 l/m 7,7 km/h (2 Bft) S 190 1 min 0,000 mm 0,9 UV-I 374 W/m -0,9 C 4,2 C 12,9 km/h (3 Bft) 95,65 %
14.03.2016 15:30 5,3 C 65 % 1027,5 hPa 0,0 l/m 7,4 km/h (2 Bft) O-SO 103 1 min 0,000 mm 0,9 UV-I 373 W/m -0,7 C 4,4 C 14,5 km/h (3 Bft) 95,83 %
14.03.2016 15:31 5,3 C 65 % 1027,5 hPa 0,0 l/m 12,6 km/h (3 Bft) O 93 1 min 0,000 mm 0,9 UV-I 371 W/m -0,7 C 0,7 C 19,3 km/h (3 Bft) 100,00 %
14.03.2016 15:32 5,4 C 65 % 1027,5 hPa 0,0 l/m 12,3 km/h (3 Bft) O 80 1 min 0,000 mm 0,9 UV-I 367 W/m -0,6 C 1,0 C 17,7 km/h (3 Bft) 95,65 %
14.03.2016 15:33 5,4 C 64 % 1027,4 hPa 0,0 l/m 13,1 km/h (3 Bft) O-NO 73 1 min 0,000 mm 0,9 UV-I 366 W/m -0,9 C 0,6 C 16,1 km/h (3 Bft) 96,30 %
14.03.2016 15:34 5,4 C 63 % 1027,5 hPa 0,0 l/m 16,7 km/h (3 Bft) O 82 1 min 0,000 mm 0,8 UV-I 361 W/m -1,1 C -1,3 C 19,3 km/h (3 Bft) 100,00 %
14.03.2016 15:35 5,4 C 62 % 1027,4 hPa 0,0 l/m 13,4 km/h (3 Bft) O 98 1 min 0,000 mm 0,8 UV-I 359 W/m -1,3 C 0,4 C 17,7 km/h (3 Bft) 91,67 %
14.03.2016 15:36 5,4 C 63 % 1027,4 hPa 0,0 l/m 9,8 km/h (2 Bft) SO 136 1 min 0,000 mm 0,8 UV-I 358 W/m -1,1 C 2,7 C 12,9 km/h (3 Bft) 100,00 %
14.03.2016 15:37 5,3 C 63 % 1027,4 hPa 0,0 l/m 8,9 km/h (2 Bft) O 86 1 min 0,000 mm 0,8 UV-I 357 W/m -1,2 C 3,2 C 12,9 km/h (3 Bft) 96,30 %
14.03.2016 15:38 5,3 C 65 % 1027,4 hPa 0,0 l/m 9,7 km/h (2 Bft) S-SO 161 1 min 0,000 mm 0,8 UV-I 357 W/m -0,7 C 2,6 C 12,9 km/h (3 Bft) 96,15 %
14.03.2016 15:39 5,4 C 64 % 1027,4 hPa 0,0 l/m 19,9 km/h (4 Bft) O-SO 117 1 min 0,000 mm 0,8 UV-I 353 W/m -0,9 C -2,6 C 22,5 km/h (4 Bft) 100,00 %
14.03.2016 15:40 5,4 C 64 % 1027,4 hPa 0,0 l/m 14,6 km/h (3 Bft) O-SO 111 1 min 0,000 mm 0,8 UV-I 352 W/m -0,9 C -0,2 C 17,7 km/h (3 Bft) 95,65 %
14.03.2016 15:41 5,3 C 65 % 1027,4 hPa 0,0 l/m 10,3 km/h (2 Bft) O 85 1 min 0,000 mm 0,8 UV-I 349 W/m -0,7 C 2,2 C 17,7 km/h (3 Bft) 100,00 %
14.03.2016 15:42 5,4 C 65 % 1027,4 hPa 0,0 l/m 15,9 km/h (3 Bft) O-SO 106 1 min 0,000 mm 0,8 UV-I 344 W/m -0,6 C -0,9 C 20,9 km/h (4 Bft) 96,15 %
14.03.2016 15:43 5,3 C 63 % 1027,4 hPa 0,0 l/m 11,6 km/h (2 Bft) SO 128 1 min 0,000 mm 0,7 UV-I 341 W/m -1,2 C 1,3 C 17,7 km/h (3 Bft) 95,83 %
14.03.2016 15:44 5,3 C 64 % 1027,4 hPa 0,0 l/m 12,5 km/h (3 Bft) O 101 1 min 0,000 mm 0,7 UV-I 338 W/m -0,9 C 0,8 C 17,7 km/h (3 Bft) 95,65 %
14.03.2016 15:45 5,3 C 63 % 1027,4 hPa 0,0 l/m 10,9 km/h (2 Bft) O 90 1 min 0,000 mm 0,7 UV-I 336 W/m -1,2 C 1,8 C 14,5 km/h (3 Bft) 95,83 %
14.03.2016 15:46 5,5 C 65 % 1027,3 hPa 0,0 l/m 8,9 km/h (2 Bft) O-NO 74 1 min 0,000 mm 0,7 UV-I 334 W/m -0,5 C 3,4 C 12,9 km/h (3 Bft) 100,00 %
14.03.2016 15:47 5,6 C 62 % 1027,3 hPa 0,0 l/m 12,2 km/h (2 Bft) O-NO 75 1 min 0,000 mm 0,7 UV-I 331 W/m -1,1 C 1,3 C 14,5 km/h (3 Bft) 100,00 %
14.03.2016 15:48 5,6 C 64 % 1027,3 hPa 0,0 l/m 9,5 km/h (2 Bft) O-NO 65 1 min 0,000 mm 0,7 UV-I 329 W/m -0,7 C 3,1 C 14,5 km/h (3 Bft) 96,15 %
14.03.2016 15:49 5,5 C 62 % 1027,3 hPa 0,0 l/m 11,8 km/h (2 Bft) O 94 1 min 0,000 mm 0,7 UV-I 327 W/m -1,2 C 1,5 C 14,5 km/h (3 Bft) 100,00 %
14.03.2016 15:50 5,4 C 62 % 1027,3 hPa 0,0 l/m 10,9 km/h (2 Bft) O-NO 71 1 min 0,000 mm 0,7 UV-I 325 W/m -1,3 C 1,9 C 19,3 km/h (3 Bft) 100,00 %
14.03.2016 15:51 5,4 C 63 % 1027,3 hPa 0,0 l/m 11,0 km/h (2 Bft) O-NO 74 1 min 0,000 mm 0,7 UV-I 323 W/m -1,1 C 1,8 C 16,1 km/h (3 Bft) 100,00 %
14.03.2016 15:52 5,4 C 63 % 1027,2 hPa 0,0 l/m 14,8 km/h (3 Bft) O-NO 71 1 min 0,000 mm 0,7 UV-I 323 W/m -1,1 C -0,3 C 19,3 km/h (3 Bft) 100,00 %
14.03.2016 15:53 5,4 C 62 % 1027,2 hPa 0,0 l/m 11,1 km/h (2 Bft) O-NO 75 1 min 0,000 mm 0,7 UV-I 321 W/m -1,3 C 1,8 C 17,7 km/h (3 Bft) 100,00 %
14.03.2016 15:54 5,4 C 63 % 1027,1 hPa 0,0 l/m 11,4 km/h (2 Bft) NO 49 1 min 0,000 mm 0,6 UV-I 317 W/m -1,1 C 1,6 C 14,5 km/h (3 Bft) 96,43 %
14.03.2016 15:55 5,4 C 63 % 1027,2 hPa 0,0 l/m 13,6 km/h (3 Bft) O-SO 112 1 min 0,000 mm 0,6 UV-I 313 W/m -1,1 C 0,3 C 17,7 km/h (3 Bft) 100,00 %
14.03.2016 15:56 5,4 C 65 % 1027,2 hPa 0,0 l/m 11,0 km/h (2 Bft) S-SO 152 1 min 0,000 mm 0,6 UV-I 309 W/m -0,6 C 1,8 C 17,7 km/h (3 Bft) 98,62 %
14.03.2016 15:57 5,4 C 64 % 1027,2 hPa 0,0 l/m 12,9 km/h (3 Bft) O-SO 112 1 min 0,000 mm 0,6 UV-I 308 W/m -0,9 C 0,7 C 17,7 km/h (3 Bft) 97,37 %
14.03.2016 15:58 5,3 C 65 % 1027,2 hPa 0,0 l/m 11,9 km/h (2 Bft) SO 132 1 min 0,000 mm 0,6 UV-I 306 W/m -0,7 C 1,2 C 16,1 km/h (3 Bft) 100,00 %
14.03.2016 15:59 5,3 C 65 % 1027,2 hPa 0,0 l/m 6,7 km/h (2 Bft) O 97 1 min 0,000 mm 0,6 UV-I 302 W/m -0,7 C 5,1 C 9,7 km/h (2 Bft) 100,00 %
14.03.2016 16:00 5,3 C 65 % 1027,1 hPa 0,0 l/m 9,4 km/h (2 Bft) O-SO 113 1 min 0,000 mm 0,6 UV-I 300 W/m -0,7 C 2,8 C 16,1 km/h (3 Bft) 100,00 %
14.03.2016 16:02 5,4 C 65 % 1027,2 hPa 0,0 l/m 8,4 km/h (2 Bft) O 97 2 min 0,178 mm 0,6 UV-I 294 W/m -0,6 C 3,7 C 16,1 km/h (3 Bft) 100,00 %
14.03.2016 16:03 5,4 C 65 % 1027,1 hPa 0,0 l/m 13,9 km/h (3 Bft) O 101 1 min 0,000 mm 0,6 UV-I 292 W/m -0,6 C 0,1 C 16,1 km/h (3 Bft) 96,55 %
14.03.2016 16:04 5,3 C 64 % 1027,2 hPa 0,0 l/m 13,4 km/h (3 Bft) O 80 1 min 0,000 mm 0,6 UV-I 287 W/m -0,9 C 0,3 C 17,7 km/h (3 Bft) 96,30 %
14.03.2016 16:05 5,4 C 65 % 1027,1 hPa 0,0 l/m 9,9 km/h (2 Bft) O-NO 59 1 min 0,000 mm 0,5 UV-I 279 W/m -0,6 C 2,6 C 16,1 km/h (3 Bft) 96,55 %
14.03.2016 16:06 5,4 C 64 % 1027,2 hPa 0,0 l/m 13,2 km/h (3 Bft) NO 55 1 min 0,000 mm 0,5 UV-I 283 W/m -0,9 C 0,5 C 17,7 km/h (3 Bft) 100,00 %
14.03.2016 16:07 5,4 C 64 % 1027,2 hPa 0,0 l/m 10,2 km/h (2 Bft) NO 55 1 min 0,000 mm 0,5 UV-I 283 W/m -0,9 C 2,4 C 14,5 km/h (3 Bft) 100,00 %
14.03.2016 16:08 5,4 C 65 % 1027,1 hPa 0,0 l/m 14,8 km/h (3 Bft) O-NO 77 1 min 0,000 mm 0,5 UV-I 279 W/m -0,6 C -0,3 C 20,9 km/h (4 Bft) 100,00 %
14.03.2016 16:09 5,4 C 65 % 1027,1 hPa 0,0 l/m 14,1 km/h (3 Bft) O-NO 77 1 min 0,000 mm 0,5 UV-I 277 W/m -0,6 C 0,0 C 17,7 km/h (3 Bft) 100,00 %
14.03.2016 16:10 5,4 C 63 % 1027,1 hPa 0,0 l/m 12,9 km/h (3 Bft) O-NO 63 1 min 0,000 mm 0,5 UV-I 275 W/m -1,1 C 0,7 C 16,1 km/h (3 Bft) 100,00 %
14.03.2016 16:11 5,4 C 62 % 1027,1 hPa 0,0 l/m 9,7 km/h (2 Bft) NO 56 1 min 0,000 mm 0,5 UV-I 274 W/m -1,3 C 2,7 C 14,5 km/h (3 Bft) 100,00 %
14.03.2016 16:12 5,4 C 64 % 1027,1 hPa 0,0 l/m 9,2 km/h (2 Bft) O-SO 119 1 min 0,000 mm 0,5 UV-I 272 W/m -0,9 C 3,1 C 14,5 km/h (3 Bft) 100,00 %
14.03.2016 16:13 5,4 C 64 % 1027,1 hPa 0,0 l/m 10,3 km/h (2 Bft) O-SO 107 1 min 0,000 mm 0,5 UV-I 268 W/m -0,9 C 2,3 C 14,5 km/h (3 Bft) 100,00 %
14.03.2016 16:14 5,4 C 65 % 1027,0 hPa 0,0 l/m 12,6 km/h (3 Bft) O-NO 70 1 min 0,000 mm 0,5 UV-I 270 W/m -0,6 C 0,9 C 16,1 km/h (3 Bft) 96,55 %
14.03.2016 16:15 5,3 C 63 % 1027,1 hPa 0,0 l/m 9,7 km/h (2 Bft) NO 55 1 min 0,000 mm 0,5 UV-I 267 W/m -1,2 C 2,6 C 14,5 km/h (3 Bft) 100,00 %
14.03.2016 16:16 5,3 C 63 % 1027,1 hPa 0,0 l/m 12,8 km/h (3 Bft) O-NO 76 1 min 0,000 mm 0,5 UV-I 265 W/m -1,2 C 0,6 C 16,1 km/h (3 Bft) 100,00 %
14.03.2016 16:17 5,3 C 64 % 1027,1 hPa 0,0 l/m 11,9 km/h (2 Bft) O-SO 121 1 min 0,000 mm 0,2 UV-I 264 W/m -0,9 C 1,2 C 14,5 km/h (3 Bft) 100,00 %
14.03.2016 16:18 5,3 C 64 % 1027,1 hPa 0,0 l/m 14,6 km/h (3 Bft) O-SO 108 1 min 0,000 mm 0,0 UV-I 262 W/m -0,9 C -0,4 C 19,3 km/h (3 Bft) 100,00 %
14.03.2016 16:19 5,3 C 64 % 1027,1 hPa 0,0 l/m 15,9 km/h (3 Bft) O-SO 109 1 min 0,000 mm 0,0 UV-I 260 W/m -0,9 C -1,0 C 19,3 km/h (3 Bft) 100,00 %
14.03.2016 16:20 5,3 C 65 % 1027,1 hPa 0,0 l/m 14,4 km/h (3 Bft) O-SO 102 1 min 0,000 mm 0,0 UV-I 256 W/m -0,7 C -0,3 C 19,3 km/h (3 Bft) 95,65 %
14.03.2016 16:21 5,3 C 65 % 1027,1 hPa 0,0 l/m 15,4 km/h (3 Bft) O-SO 120 1 min 0,000 mm 0,0 UV-I 253 W/m -0,7 C -0,8 C 20,9 km/h (4 Bft) 100,00 %
14.03.2016 16:22 5,3 C 65 % 1027,1 hPa 0,0 l/m 12,9 km/h (3 Bft) O-SO 111 1 min 0,000 mm 0,0 UV-I 246 W/m -0,7 C 0,6 C 17,7 km/h (3 Bft) 100,00 %
14.03.2016 16:23 5,3 C 66 % 1027,1 hPa 0,0 l/m 10,8 km/h (2 Bft) O-SO 113 1 min 0,000 mm 0,0 UV-I 219 W/m -0,5 C 1,9 C 16,1 km/h (3 Bft) 100,00 %
14.03.2016 16:24 5,4 C 64 % 1027,1 hPa 0,0 l/m 12,7 km/h (3 Bft) O-SO 119 1 min 0,000 mm 0,0 UV-I 229 W/m -0,9 C 0,8 C 17,7 km/h (3 Bft) 100,00 %
14.03.2016 16:25 5,3 C 65 % 1027,1 hPa 0,0 l/m 11,1 km/h (2 Bft) O-SO 116 1 min 0,000 mm 0,0 UV-I 235 W/m -0,7 C 1,7 C 14,5 km/h (3 Bft) 100,00 %
14.03.2016 16:26 5,4 C 66 % 1027,1 hPa 0,0 l/m 8,1 km/h (2 Bft) O 91 1 min 0,000 mm 0,0 UV-I 225 W/m -0,4 C 3,9 C 12,9 km/h (3 Bft) 100,00 %
14.03.2016 16:27 5,4 C 66 % 1027,1 hPa 0,0 l/m 14,2 km/h (3 Bft) O-SO 109 1 min 0,000 mm 0,0 UV-I 215 W/m -0,4 C -0,0 C 22,5 km/h (4 Bft) 100,00 %
14.03.2016 16:28 5,4 C 65 % 1027,1 hPa 0,0 l/m 17,3 km/h (3 Bft) O-SO 103 1 min 0,000 mm 0,0 UV-I 217 W/m -0,6 C -1,5 C 22,5 km/h (4 Bft) 100,00 %
14.03.2016 16:29 5,4 C 65 % 1027,1 hPa 0,0 l/m 11,0 km/h (2 Bft) O-SO 113 1 min 0,000 mm 0,0 UV-I 217 W/m -0,6 C 1,8 C 17,7 km/h (3 Bft) 100,00 %
14.03.2016 16:30 5,4 C 63 % 1027,0 hPa 0,0 l/m 16,1 km/h (3 Bft) SO 126 1 min 0,000 mm 0,0 UV-I 214 W/m -1,1 C -1,0 C 22,5 km/h (4 Bft) 92,59 %
14.03.2016 16:31 5,3 C 64 % 1027,0 hPa 0,0 l/m 7,9 km/h (2 Bft) SO 126 1 min 0,000 mm 0,0 UV-I 196 W/m -0,9 C 4,0 C 12,9 km/h (3 Bft) 100,00 %
14.03.2016 16:32 5,3 C 64 % 1027,1 hPa 0,0 l/m 6,7 km/h (2 Bft) O 86 0 min 0,000 mm 0,0 UV-I 134 W/m -0,9 C 5,1 C 11,3 km/h (2 Bft) 100,00 %
14.03.2016 16:33 5,3 C 65 % 1027,1 hPa 0,0 l/m 8,0 km/h (2 Bft) SO 124 0 min 0,000 mm 0,0 UV-I 127 W/m -0,7 C 3,9 C 16,1 km/h (3 Bft) 100,00 %
14.03.2016 16:34 5,3 C 65 % 1027,1 hPa 0,0 l/m 8,0 km/h (2 Bft) O-NO 70 1 min 0,000 mm 0,0 UV-I 152 W/m -0,7 C 3,9 C 12,9 km/h (3 Bft) 100,00 %
14.03.2016 16:35 5,3 C 64 % 1027,1 hPa 0,0 l/m 7,6 km/h (2 Bft) NO 52 1 min 0,000 mm 0,0 UV-I 164 W/m -0,9 C 4,3 C 14,5 km/h (3 Bft) 100,00 %
14.03.2016 16:36 5,3 C 64 % 1027,1 hPa 0,0 l/m 10,3 km/h (2 Bft) O-NO 77 1 min 0,000 mm 0,0 UV-I 171 W/m -0,9 C 2,2 C 12,9 km/h (3 Bft) 100,00 %
14.03.2016 16:37 5,3 C 64 % 1027,2 hPa 0,0 l/m 8,3 km/h (2 Bft) O-NO 59 1 min 0,000 mm 0,0 UV-I 174 W/m -0,9 C 3,7 C 12,9 km/h (3 Bft) 100,00 %
14.03.2016 16:38 5,3 C 64 % 1027,1 hPa 0,0 l/m 7,1 km/h (2 Bft) O-NO 70 1 min 0,000 mm 0,0 UV-I 175 W/m -0,9 C 4,7 C 14,5 km/h (3 Bft) 100,00 %
14.03.2016 16:39 5,3 C 65 % 1027,1 hPa 0,0 l/m 7,0 km/h (2 Bft) O-SO 121 1 min 0,000 mm 0,0 UV-I 176 W/m -0,7 C 4,8 C 11,3 km/h (2 Bft) 100,00 %
14.03.2016 16:40 5,3 C 65 % 1027,1 hPa 0,0 l/m 10,9 km/h (2 Bft) O 86 1 min 0,000 mm 0,0 UV-I 175 W/m -0,7 C 1,8 C 12,9 km/h (3 Bft) 100,00 %
14.03.2016 16:41 5,2 C 64 % 1027,1 hPa 0,0 l/m 4,7 km/h (1 Bft) SO 142 1 min 0,000 mm 0,0 UV-I 172 W/m -1,0 C 5,2 C 8,0 km/h (2 Bft) 100,00 %
14.03.2016 16:42 5,2 C 65 % 1027,1 hPa 0,0 l/m 6,3 km/h (2 Bft) O-NO 57 1 min 0,000 mm 0,0 UV-I 165 W/m -0,8 C 5,2 C 9,7 km/h (2 Bft) 100,00 %
14.03.2016 16:43 5,2 C 65 % 1027,1 hPa 0,0 l/m 8,3 km/h (2 Bft) O-SO 107 1 min 0,000 mm 0,0 UV-I 157 W/m -0,8 C 3,6 C 14,5 km/h (3 Bft) 96,15 %
14.03.2016 16:44 5,2 C 64 % 1027,1 hPa 0,0 l/m 11,9 km/h (2 Bft) O-NO 65 1 min 0,000 mm 0,0 UV-I 152 W/m -1,0 C 1,0 C 16,1 km/h (3 Bft) 100,00 %
14.03.2016 16:45 5,2 C 63 % 1027,1 hPa 0,0 l/m 9,2 km/h (2 Bft) O-SO 105 1 min 0,000 mm 0,0 UV-I 150 W/m -1,3 C 2,9 C 11,3 km/h (2 Bft) 100,00 %
14.03.2016 16:46 5,1 C 63 % 1027,1 hPa 0,0 l/m 6,7 km/h (2 Bft) O 94 1 min 0,000 mm 0,0 UV-I 146 W/m -1,4 C 4,9 C 11,3 km/h (2 Bft) 100,00 %
14.03.2016 16:47 5,2 C 65 % 1027,1 hPa 0,0 l/m 5,2 km/h (1 Bft) SO 130 1 min 0,000 mm 0,0 UV-I 137 W/m -0,8 C 5,2 C 9,7 km/h (2 Bft) 100,00 %
14.03.2016 16:48 5,2 C 65 % 1027,2 hPa 0,0 l/m 7,9 km/h (2 Bft) NO 55 1 min 0,000 mm 0,0 UV-I 135 W/m -0,8 C 3,9 C 9,7 km/h (2 Bft) 100,00 %
14.03.2016 16:49 5,2 C 64 % 1027,2 hPa 0,0 l/m 7,1 km/h (2 Bft) NO 38 1 min 0,000 mm 0,0 UV-I 135 W/m -1,0 C 4,6 C 11,3 km/h (2 Bft) 100,00 %
14.03.2016 16:50 5,2 C 65 % 1027,2 hPa 0,0 l/m 6,6 km/h (2 Bft) O-SO 117 1 min 0,000 mm 0,0 UV-I 140 W/m -0,8 C 5,0 C 11,3 km/h (2 Bft) 95,65 %
14.03.2016 16:51 5,1 C 64 % 1027,2 hPa 0,0 l/m 5,1 km/h (1 Bft) O-SO 105 1 min 0,000 mm 0,0 UV-I 140 W/m -1,1 C 5,1 C 6,4 km/h (2 Bft) 100,00 %
14.03.2016 16:52 5,1 C 64 % 1027,2 hPa 0,0 l/m 3,5 km/h (1 Bft) O 101 1 min 0,000 mm 0,0 UV-I 139 W/m -1,1 C 5,1 C 4,8 km/h (1 Bft) 100,00 %
14.03.2016 16:53 5,1 C 65 % 1027,1 hPa 0,0 l/m 4,3 km/h (1 Bft) O-SO 104 1 min 0,000 mm 0,0 UV-I 138 W/m -0,9 C 5,1 C 9,7 km/h (2 Bft) 100,00 %
14.03.2016 16:54 5,2 C 65 % 1027,2 hPa 0,0 l/m 7,0 km/h (2 Bft) O-SO 103 1 min 0,000 mm 0,0 UV-I 134 W/m -0,8 C 4,7 C 9,7 km/h (2 Bft) 95,83 %
14.03.2016 16:55 5,1 C 64 % 1027,1 hPa 0,0 l/m 10,9 km/h (2 Bft) O 94 1 min 0,000 mm 0,0 UV-I 132 W/m -1,1 C 1,6 C 17,7 km/h (3 Bft) 100,00 %
14.03.2016 16:56 5,1 C 65 % 1027,2 hPa 0,0 l/m 10,3 km/h (2 Bft) SO 124 1 min 0,000 mm 0,0 UV-I 129 W/m -0,9 C 2,0 C 14,5 km/h (3 Bft) 100,00 %
14.03.2016 16:57 5,1 C 65 % 1027,2 hPa 0,0 l/m 5,3 km/h (1 Bft) SO 130 1 min 0,000 mm 0,0 UV-I 124 W/m -0,9 C 5,1 C 8,0 km/h (2 Bft) 100,00 %
14.03.2016 16:58 5,2 C 66 % 1027,2 hPa 0,0 l/m 10,7 km/h (2 Bft) O 90 1 min 0,000 mm 0,0 UV-I 121 W/m -0,6 C 1,8 C 14,5 km/h (3 Bft) 100,00 %
14.03.2016 16:59 5,1 C 64 % 1027,2 hPa 0,0 l/m 8,4 km/h (2 Bft) O 92 1 min 0,000 mm 0,0 UV-I 121 W/m -1,1 C 3,4 C 12,9 km/h (3 Bft) 100,00 %
14.03.2016 17:00 5,1 C 65 % 1027,1 hPa 0,0 l/m 10,0 km/h (2 Bft) O-NO 67 1 min 0,000 mm 0,0 UV-I 120 W/m -0,9 C 2,2 C 12,9 km/h (3 Bft) 96,15 %
14.03.2016 17:01 5,2 C 65 % 1027,2 hPa 0,0 l/m 7,9 km/h (2 Bft) O-SO 119 1 min 0,101 mm 0,0 UV-I 118 W/m -0,8 C 3,9 C 11,3 km/h (2 Bft) 100,00 %
14.03.2016 17:02 5,2 C 65 % 1027,1 hPa 0,0 l/m 6,7 km/h (2 Bft) SO 126 1 min 0,000 mm 0,0 UV-I 115 W/m -0,8 C 5,0 C 11,3 km/h (2 Bft) 100,00 %
14.03.2016 17:03 5,2 C 67 % 1027,1 hPa 0,0 l/m 10,5 km/h (2 Bft) O 86 1 min 0,000 mm 0,0 UV-I 114 W/m -0,4 C 1,9 C 12,9 km/h (3 Bft) 100,00 %
14.03.2016 17:04 5,2 C 66 % 1027,1 hPa 0,0 l/m 5,6 km/h (1 Bft) O 98 1 min 0,000 mm 0,0 UV-I 110 W/m -0,6 C 5,2 C 9,7 km/h (2 Bft) 100,00 %
14.03.2016 17:05 5,2 C 66 % 1027,1 hPa 0,0 l/m 7,0 km/h (2 Bft) O-SO 113 1 min 0,000 mm 0,0 UV-I 107 W/m -0,6 C 4,7 C 11,3 km/h (2 Bft) 100,00 %
14.03.2016 17:06 5,2 C 67 % 1027,1 hPa 0,0 l/m 5,7 km/h (1 Bft) O-SO 103 1 min 0,000 mm 0,0 UV-I 105 W/m -0,4 C 5,2 C 6,4 km/h (2 Bft) 100,00 %
14.03.2016 17:07 5,2 C 66 % 1027,1 hPa 0,0 l/m 4,0 km/h (1 Bft) SO 127 1 min 0,000 mm 0,0 UV-I 103 W/m -0,6 C 5,2 C 4,8 km/h (1 Bft) 96,30 %
14.03.2016 17:08 5,2 C 66 % 1027,1 hPa 0,0 l/m 5,4 km/h (1 Bft) O-SO 116 1 min 0,000 mm 0,0 UV-I 102 W/m -0,6 C 5,2 C 6,4 km/h (2 Bft) 95,65 %
14.03.2016 17:09 5,2 C 66 % 1027,1 hPa 0,0 l/m 6,8 km/h (2 Bft) O-SO 109 1 min 0,000 mm 0,0 UV-I 98 W/m -0,6 C 4,9 C 9,7 km/h (2 Bft) 100,00 %
14.03.2016 17:10 5,2 C 68 % 1027,1 hPa 0,0 l/m 11,8 km/h (2 Bft) O-SO 109 1 min 0,000 mm 0,0 UV-I 94 W/m -0,2 C 1,1 C 14,5 km/h (3 Bft) 95,65 %
14.03.2016 17:11 5,1 C 67 % 1027,1 hPa 0,0 l/m 8,4 km/h (2 Bft) SO 128 1 min 0,000 mm 0,0 UV-I 91 W/m -0,5 C 3,4 C 16,1 km/h (3 Bft) 100,00 %
14.03.2016 17:12 5,1 C 66 % 1027,1 hPa 0,0 l/m 5,5 km/h (1 Bft) O-SO 115 1 min 0,000 mm 0,0 UV-I 90 W/m -0,7 C 5,1 C 8,0 km/h (2 Bft) 93,33 %
14.03.2016 17:13 5,1 C 66 % 1027,1 hPa 0,0 l/m 9,5 km/h (2 Bft) O 99 1 min 0,000 mm 0,0 UV-I 87 W/m -0,7 C 2,5 C 11,3 km/h (2 Bft) 100,00 %
14.03.2016 17:14 5,1 C 66 % 1027,0 hPa 0,0 l/m 8,4 km/h (2 Bft) O 86 1 min 0,000 mm 0,0 UV-I 85 W/m -0,7 C 3,4 C 11,3 km/h (2 Bft) 95,83 %
14.03.2016 17:15 5,1 C 67 % 1027,1 hPa 0,0 l/m 6,1 km/h (2 Bft) O 95 1 min 0,000 mm 0,0 UV-I 83 W/m -0,5 C 5,1 C 8,0 km/h (2 Bft) 96,15 %
14.03.2016 17:16 5,1 C 67 % 1027,1 hPa 0,0 l/m 3,9 km/h (1 Bft) O 84 1 min 0,000 mm 0,0 UV-I 82 W/m -0,5 C 5,1 C 6,4 km/h (2 Bft) 100,00 %
14.03.2016 17:17 5,1 C 68 % 1027,1 hPa 0,0 l/m 4,2 km/h (1 Bft) O-SO 103 1 min 0,000 mm 0,0 UV-I 77 W/m -0,3 C 5,1 C 6,4 km/h (2 Bft) 95,65 %
14.03.2016 17:18 5,0 C 66 % 1027,1 hPa 0,0 l/m 10,9 km/h (2 Bft) O 93 1 min 0,000 mm 0,0 UV-I 75 W/m -0,8 C 1,5 C 16,1 km/h (3 Bft) 100,00 %
14.03.2016 17:19 4,9 C 66 % 1027,1 hPa 0,0 l/m 6,6 km/h (2 Bft) O-SO 121 1 min 0,000 mm 0,0 UV-I 71 W/m -0,9 C 4,7 C 11,3 km/h (2 Bft) 96,15 %
14.03.2016 17:20 4,9 C 67 % 1027,2 hPa 0,0 l/m 2,2 km/h (1 Bft) S-SO 159 0 min 0,000 mm 0,0 UV-I 67 W/m -0,7 C 4,9 C 6,4 km/h (2 Bft) 100,00 %
14.03.2016 17:21 4,9 C 66 % 1027,2 hPa 0,0 l/m 3,7 km/h (1 Bft) O-NO 74 0 min 0,000 mm 0,0 UV-I 63 W/m -0,9 C 4,9 C 6,4 km/h (2 Bft) 91,30 %
14.03.2016 17:22 4,9 C 66 % 1027,2 hPa 0,0 l/m 4,8 km/h (1 Bft) S-SO 152 0 min 0,000 mm 0,0 UV-I 60 W/m -0,9 C 4,9 C 8,0 km/h (2 Bft) 100,00 %
14.03.2016 17:23 4,9 C 66 % 1027,2 hPa 0,0 l/m 2,1 km/h (1 Bft) S-SO 156 0 min 0,000 mm 0,0 UV-I 60 W/m -0,9 C 4,9 C 3,2 km/h (1 Bft) 94,12 %
14.03.2016 17:24 4,8 C 65 % 1027,2 hPa 0,0 l/m 3,8 km/h (1 Bft) O-SO 110 0 min 0,000 mm 0,0 UV-I 60 W/m -1,2 C 4,8 C 4,8 km/h (1 Bft) 96,30 %
14.03.2016 17:25 4,8 C 66 % 1027,2 hPa 0,0 l/m 2,9 km/h (1 Bft) O-SO 110 0 min 0,000 mm 0,0 UV-I 57 W/m -1,0 C 4,8 C 4,8 km/h (1 Bft) 95,65 %
14.03.2016 17:26 4,8 C 67 % 1027,2 hPa 0,0 l/m 4,5 km/h (1 Bft) O-NO 74 0 min 0,000 mm 0,0 UV-I 56 W/m -0,8 C 4,8 C 6,4 km/h (2 Bft) 96,30 %
14.03.2016 17:27 4,8 C 67 % 1027,1 hPa 0,0 l/m 4,1 km/h (1 Bft) O-SO 115 0 min 0,000 mm 0,0 UV-I 53 W/m -0,8 C 4,8 C 6,4 km/h (2 Bft) 95,65 %
14.03.2016 17:28 4,8 C 67 % 1027,1 hPa 0,0 l/m 9,0 km/h (2 Bft) O 81 0 min 0,000 mm 0,0 UV-I 48 W/m -0,8 C 2,6 C 11,3 km/h (2 Bft) 95,83 %
14.03.2016 17:29 4,8 C 66 % 1027,1 hPa 0,0 l/m 7,3 km/h (2 Bft) O 94 0 min 0,000 mm 0,0 UV-I 42 W/m -1,0 C 4,0 C 9,7 km/h (2 Bft) 100,00 %
14.03.2016 17:30 4,7 C 67 % 1027,1 hPa 0,0 l/m 5,9 km/h (2 Bft) O 97 0 min 0,000 mm 0,0 UV-I 37 W/m -0,9 C 4,7 C 9,7 km/h (2 Bft) 96,15 %
14.03.2016 17:31 4,7 C 68 % 1027,1 hPa 0,0 l/m 7,5 km/h (2 Bft) O 94 0 min 0,000 mm 0,0 UV-I 33 W/m -0,7 C 3,7 C 12,9 km/h (3 Bft) 100,00 %
14.03.2016 17:32 4,7 C 68 % 1027,1 hPa 0,0 l/m 7,2 km/h (2 Bft) O 90 0 min 0,000 mm 0,0 UV-I 33 W/m -0,7 C 4,0 C 11,3 km/h (2 Bft) 91,67 %
14.03.2016 17:33 4,6 C 68 % 1027,1 hPa 0,0 l/m 6,6 km/h (2 Bft) O-SO 106 0 min 0,000 mm 0,0 UV-I 32 W/m -0,8 C 4,4 C 12,9 km/h (3 Bft) 100,00 %
14.03.2016 17:34 4,6 C 68 % 1027,1 hPa 0,0 l/m 7,2 km/h (2 Bft) O 90 0 min 0,000 mm 0,0 UV-I 30 W/m -0,8 C 3,9 C 12,9 km/h (3 Bft) 96,15 %
14.03.2016 17:35 4,5 C 68 % 1027,1 hPa 0,0 l/m 8,3 km/h (2 Bft) O-SO 105 0 min 0,000 mm 0,0 UV-I 30 W/m -0,9 C 2,8 C 11,3 km/h (2 Bft) 100,00 %
14.03.2016 17:36 4,4 C 68 % 1027,1 hPa 0,0 l/m 4,7 km/h (1 Bft) O-SO 105 0 min 0,000 mm 0,0 UV-I 30 W/m -1,0 C 4,4 C 6,4 km/h (2 Bft) 97,56 %
14.03.2016 17:37 4,4 C 69 % 1027,1 hPa 0,0 l/m 4,1 km/h (1 Bft) SO 142 0 min 0,000 mm 0,0 UV-I 28 W/m -0,8 C 4,4 C 8,0 km/h (2 Bft) 91,67 %
14.03.2016 17:38 4,4 C 67 % 1027,1 hPa 0,0 l/m 5,6 km/h (1 Bft) SO 128 0 min 0,000 mm 0,0 UV-I 27 W/m -1,2 C 4,4 C 8,0 km/h (2 Bft) 100,00 %
14.03.2016 17:39 4,4 C 68 % 1027,1 hPa 0,0 l/m 5,0 km/h (1 Bft) O-SO 106 0 min 0,000 mm 0,0 UV-I 26 W/m -1,0 C 4,4 C 6,4 km/h (2 Bft) 95,83 %
14.03.2016 17:40 4,4 C 68 % 1027,1 hPa 0,0 l/m 6,4 km/h (2 Bft) O-NO 69 0 min 0,000 mm 0,0 UV-I 26 W/m -1,0 C 4,4 C 9,7 km/h (2 Bft) 100,00 %
14.03.2016 17:41 4,4 C 69 % 1027,2 hPa 0,0 l/m 2,3 km/h (1 Bft) O-NO 69 0 min 0,000 mm 0,0 UV-I 25 W/m -0,8 C 4,4 C 4,8 km/h (1 Bft) 95,83 %
14.03.2016 17:42 4,4 C 68 % 1027,1 hPa 0,0 l/m 2,7 km/h (1 Bft) SO 145 0 min 0,000 mm 0,0 UV-I 24 W/m -1,0 C 4,4 C 4,8 km/h (1 Bft) 96,15 %
14.03.2016 17:43 4,4 C 68 % 1027,1 hPa 0,0 l/m 1,6 km/h (1 Bft) SO 145 0 min 0,000 mm 0,0 UV-I 23 W/m -1,0 C 4,4 C 1,6 km/h (1 Bft) 100,00 %
14.03.2016 17:44 4,4 C 68 % 1027,1 hPa 0,0 l/m 1,9 km/h (1 Bft) SO 145 0 min 0,000 mm 0,0 UV-I 23 W/m -1,0 C 4,4 C 3,2 km/h (1 Bft) 100,00 %
14.03.2016 17:45 4,3 C 68 % 1027,2 hPa 0,0 l/m 3,2 km/h (1 Bft) SO 135 0 min 0,000 mm 0,0 UV-I 23 W/m -1,1 C 4,3 C 9,7 km/h (2 Bft) 99,12 %
14.03.2016 17:50 4,3 C 69 % 1027,1 hPa 0,0 l/m 1,6 km/h (1 Bft) O 90 0 min 0,000 mm 0,0 UV-I 18 W/m -0,9 C 4,3 C 6,4 km/h (2 Bft) 96,49 %
14.03.2016 17:55 4,2 C 68 % 1027,1 hPa 0,0 l/m 3,2 km/h (1 Bft) SO 135 5 min 0,000 mm 0,0 UV-I 15 W/m -1,2 C 4,2 C 8,0 km/h (2 Bft) 97,37 %
14.03.2016 18:00 3,9 C 71 % 1027,1 hPa 0,0 l/m 3,2 km/h (1 Bft) SO 135 0 min 0,025 mm 0,0 UV-I 12 W/m -0,9 C 3,9 C 6,4 km/h (2 Bft) 98,25 %
14.03.2016 18:05 3,8 C 70 % 1027,1 hPa 0,0 l/m 1,6 km/h (1 Bft) SO 135 0 min 0,000 mm 0,0 UV-I 8 W/m -1,2 C 3,8 C 3,2 km/h (1 Bft) 96,49 %
14.03.2016 18:10 3,7 C 70 % 1027,1 hPa 0,0 l/m 1,6 km/h (1 Bft) SO 135 0 min 0,000 mm 0,0 UV-I 6 W/m -1,3 C 3,7 C 3,2 km/h (1 Bft) 98,25 %
14.03.2016 18:15 3,7 C 70 % 1027,1 hPa 0,0 l/m 3,2 km/h (1 Bft) SO 135 0 min 0,000 mm 0,0 UV-I 3 W/m -1,3 C 3,7 C 4,8 km/h (1 Bft) 97,37 %
14.03.2016 18:21 3,2 C 73 % 1027,1 hPa 0,0 l/m 3,2 km/h (1 Bft) SO 132 0 min 0,001 mm 0,0 UV-I 0 W/m -1,2 C 3,2 C 3,2 km/h (1 Bft) 100,00 %
14.03.2016 18:22 3,0 C 74 % 1027,1 hPa 0,0 l/m 3,4 km/h (1 Bft) SO 132 0 min 0,000 mm 0,0 UV-I 0 W/m -1,2 C 3,0 C 4,8 km/h (1 Bft) 100,00 %
14.03.2016 18:23 2,8 C 74 % 1027,2 hPa 0,0 l/m 3,8 km/h (1 Bft) SO 132 0 min 0,000 mm 0,0 UV-I 0 W/m -1,4 C 2,8 C 4,8 km/h (1 Bft) 100,00 %
14.03.2016 18:24 2,7 C 75 % 1027,2 hPa 0,0 l/m 3,4 km/h (1 Bft) SO 132 0 min 0,000 mm 0,0 UV-I 0 W/m -1,3 C 2,7 C 4,8 km/h (1 Bft) 98,63 %
14.03.2016 18:25 2,6 C 75 % 1027,2 hPa 0,0 l/m 3,3 km/h (1 Bft) SO 132 0 min 0,000 mm 0,0 UV-I 0 W/m -1,4 C 2,6 C 4,8 km/h (1 Bft) 97,37 %
14.03.2016 18:26 2,5 C 76 % 1027,1 hPa 0,0 l/m 3,1 km/h (1 Bft) SO 132 0 min 0,000 mm 0,0 UV-I 0 W/m -1,3 C 2,5 C 4,8 km/h (1 Bft) 100,00 %
14.03.2016 18:27 2,4 C 76 % 1027,2 hPa 0,0 l/m 3,3 km/h (1 Bft) SO 132 0 min 0,000 mm 0,0 UV-I 0 W/m -1,4 C 2,4 C 4,8 km/h (1 Bft) 100,00 %
14.03.2016 18:28 2,4 C 76 % 1027,2 hPa 0,0 l/m 2,8 km/h (1 Bft) SO 132 0 min 0,000 mm 0,0 UV-I 0 W/m -1,4 C 2,4 C 4,8 km/h (1 Bft) 100,00 %
14.03.2016 18:29 2,4 C 76 % 1027,2 hPa 0,0 l/m 3,1 km/h (1 Bft) SO 132 0 min 0,000 mm 0,0 UV-I 0 W/m -1,4 C 2,4 C 4,8 km/h (1 Bft) 96,88 %
14.03.2016 18:30 2,3 C 77 % 1027,1 hPa 0,0 l/m 3,2 km/h (1 Bft) SO 132 0 min 0,000 mm 0,0 UV-I 0 W/m -1,3 C 2,3 C 4,8 km/h (1 Bft) 100,00 %
14.03.2016 18:31 2,3 C 77 % 1027,1 hPa 0,0 l/m 3,9 km/h (1 Bft) SO 126 0 min 0,000 mm 0,0 UV-I 0 W/m -1,3 C 2,3 C 4,8 km/h (1 Bft) 100,00 %
14.03.2016 18:32 2,3 C 77 % 1027,1 hPa 0,0 l/m 3,9 km/h (1 Bft) SO 126 0 min 0,000 mm 0,0 UV-I 0 W/m -1,3 C 2,3 C 4,8 km/h (1 Bft) 100,00 %
14.03.2016 18:33 2,3 C 77 % 1027,1 hPa 0,0 l/m 3,9 km/h (1 Bft) SO 126 0 min 0,000 mm 0,0 UV-I 0 W/m -1,3 C 2,3 C 4,8 km/h (1 Bft) 100,00 %
14.03.2016 18:34 2,2 C 78 % 1027,1 hPa 0,0 l/m 3,8 km/h (1 Bft) SO 126 0 min 0,000 mm 0,0 UV-I 0 W/m -1,2 C 2,2 C 4,8 km/h (1 Bft) 100,00 %
14.03.2016 18:35 2,1 C 78 % 1027,1 hPa 0,0 l/m 4,0 km/h (1 Bft) SO 126 0 min 0,000 mm 0,0 UV-I 0 W/m -1,3 C 2,1 C 4,8 km/h (1 Bft) 95,65 %
14.03.2016 18:36 2,0 C 79 % 1027,1 hPa 0,0 l/m 3,3 km/h (1 Bft) SO 126 0 min 0,000 mm 0,0 UV-I 0 W/m -1,2 C 2,0 C 4,8 km/h (1 Bft) 100,00 %
14.03.2016 18:37 1,9 C 79 % 1027,1 hPa 0,0 l/m 3,2 km/h (1 Bft) SO 126 0 min 0,000 mm 0,0 UV-I 0 W/m -1,3 C 1,9 C 3,2 km/h (1 Bft) 95,65 %
14.03.2016 18:38 1,9 C 79 % 1027,2 hPa 0,0 l/m 2,6 km/h (1 Bft) SO 126 0 min 0,000 mm 0,0 UV-I 0 W/m -1,3 C 1,9 C 3,2 km/h (1 Bft) 100,00 %
14.03.2016 18:39 1,9 C 79 % 1027,1 hPa 0,0 l/m 3,0 km/h (1 Bft) SO 126 0 min 0,000 mm 0,0 UV-I 0 W/m -1,3 C 1,9 C 4,8 km/h (1 Bft) 96,15 %
14.03.2016 18:40 1,9 C 79 % 1027,2 hPa 0,0 l/m 3,4 km/h (1 Bft) SO 125 0 min 0,000 mm 0,0 UV-I 0 W/m -1,3 C 1,9 C 4,8 km/h (1 Bft) 100,00 %
14.03.2016 18:41 2,0 C 78 % 1027,1 hPa 0,0 l/m 3,0 km/h (1 Bft) O-SO 117 0 min 0,000 mm 0,0 UV-I 0 W/m -1,4 C 2,0 C 3,2 km/h (1 Bft) 100,00 %
14.03.2016 18:42 2,2 C 77 % 1027,1 hPa 0,0 l/m 2,7 km/h (1 Bft) O-SO 117 0 min 0,000 mm 0,0 UV-I 0 W/m -1,4 C 2,2 C 3,2 km/h (1 Bft) 100,00 %
14.03.2016 18:43 2,3 C 77 % 1027,1 hPa 0,0 l/m 2,3 km/h (1 Bft) O-SO 117 0 min 0,000 mm 0,0 UV-I 0 W/m -1,3 C 2,3 C 3,2 km/h (1 Bft) 100,00 %
14.03.2016 18:44 2,4 C 76 % 1027,1 hPa 0,0 l/m 1,5 km/h (1 Bft) O-SO 117 0 min 0,000 mm 0,0 UV-I 0 W/m -1,4 C 2,4 C 3,2 km/h (1 Bft) 100,00 %
14.03.2016 18:45 2,6 C 76 % 1027,1 hPa 0,0 l/m 2,0 km/h (1 Bft) O-SO 117 0 min 0,000 mm 0,0 UV-I 0 W/m -1,2 C 2,6 C 3,2 km/h (1 Bft) 95,65 %
14.03.2016 18:46 2,7 C 75 % 1027,1 hPa 0,0 l/m 1,9 km/h (1 Bft) O-SO 117 0 min 0,000 mm 0,0 UV-I 0 W/m -1,3 C 2,7 C 3,2 km/h (1 Bft) 95,83 %
14.03.2016 18:47 2,7 C 75 % 1027,1 hPa 0,0 l/m 1,7 km/h (1 Bft) O-SO 117 0 min 0,000 mm 0,0 UV-I 0 W/m -1,3 C 2,7 C 3,2 km/h (1 Bft) 100,00 %
14.03.2016 18:48 2,8 C 75 % 1027,2 hPa 0,0 l/m 1,1 km/h (1 Bft) O-SO 117 0 min 0,000 mm 0,0 UV-I 0 W/m -1,2 C 2,8 C 1,6 km/h (1 Bft) 100,00 %
14.03.2016 18:49 2,7 C 77 % 1027,1 hPa 0,0 l/m 0,3 km/h (0 Bft) O-SO 117 0 min 0,000 mm 0,0 UV-I 0 W/m -0,9 C 2,7 C 1,6 km/h (1 Bft) 100,00 %
14.03.2016 18:50 2,6 C 77 % 1027,1 hPa 0,0 l/m 0,0 km/h (0 Bft) O-SO 117 0 min 0,000 mm 0,0 UV-I 0 W/m -1,0 C 2,6 C 0,0 km/h (0 Bft) 95,83 %
14.03.2016 18:51 2,4 C 77 % 1027,1 hPa 0,0 l/m 0,0 km/h (0 Bft) O-SO 117 0 min 0,000 mm 0,0 UV-I 0 W/m -1,2 C 2,4 C 0,0 km/h (0 Bft) 100,00 %
14.03.2016 18:52 2,3 C 78 % 1027,1 hPa 0,0 l/m 0,0 km/h (0 Bft) O-SO 117 0 min 0,000 mm 0,0 UV-I 0 W/m -1,1 C 2,3 C 0,0 km/h (0 Bft) 100,00 %
14.03.2016 18:53 2,2 C 79 % 1027,1 hPa 0,0 l/m 0,0 km/h (0 Bft) O-SO 117 0 min 0,000 mm 0,0 UV-I 0 W/m -1,1 C 2,2 C 0,0 km/h (0 Bft) 100,00 %
14.03.2016 18:54 2,2 C 79 % 1027,1 hPa 0,0 l/m 0,0 km/h (0 Bft) O-SO 117 0 min 0,000 mm 0,0 UV-I 0 W/m -1,1 C 2,2 C 0,0 km/h (0 Bft) 100,00 %
14.03.2016 18:55 2,2 C 79 % 1027,1 hPa 0,0 l/m 0,0 km/h (0 Bft) O-SO 117 0 min 0,000 mm 0,0 UV-I 0 W/m -1,1 C 2,2 C 0,0 km/h (0 Bft) 100,00 %
14.03.2016 18:56 2,1 C 79 % 1027,1 hPa 0,0 l/m 0,0 km/h (0 Bft) O-SO 117 0 min 0,000 mm 0,0 UV-I 0 W/m -1,2 C 2,1 C 0,0 km/h (0 Bft) 95,65 %
14.03.2016 18:57 2,1 C 79 % 1027,1 hPa 0,0 l/m 0,0 km/h (0 Bft) O-SO 117 0 min 0,000 mm 0,0 UV-I 0 W/m -1,2 C 2,1 C 0,0 km/h (0 Bft) 100,00 %
14.03.2016 18:58 2,1 C 79 % 1027,1 hPa 0,0 l/m 0,0 km/h (0 Bft) O-SO 117 0 min 0,000 mm 0,0 UV-I 0 W/m -1,2 C 2,1 C 0,0 km/h (0 Bft) 100,00 %
14.03.2016 18:59 2,1 C 79 % 1027,0 hPa 0,0 l/m 0,0 km/h (0 Bft) O-SO 117 0 min 0,000 mm 0,0 UV-I 0 W/m -1,2 C 2,1 C 0,0 km/h (0 Bft) 95,83 %
14.03.2016 19:00 2,0 C 80 % 1027,0 hPa 0,0 l/m 0,0 km/h (0 Bft) O-SO 117 0 min 0,000 mm 0,0 UV-I 0 W/m -1,1 C 2,0 C 0,0 km/h (0 Bft) 100,00 %
14.03.2016 19:01 1,9 C 80 % 1027,1 hPa 0,0 l/m 0,0 km/h (0 Bft) O-SO 117 0 min 0,000 mm 0,0 UV-I 0 W/m -1,2 C 1,9 C 0,0 km/h (0 Bft) 100,00 %
14.03.2016 19:02 1,9 C 80 % 1027,1 hPa 0,0 l/m 0,0 km/h (0 Bft) O-SO 117 0 min 0,000 mm 0,0 UV-I 0 W/m -1,2 C 1,9 C 0,0 km/h (0 Bft) 100,00 %
14.03.2016 19:03 1,8 C 80 % 1027,1 hPa 0,0 l/m 0,0 km/h (0 Bft) O-SO 117 0 min 0,000 mm 0,0 UV-I 0 W/m -1,3 C 1,8 C 0,0 km/h (0 Bft) 95,83 %
14.03.2016 19:04 1,8 C 80 % 1027,1 hPa 0,0 l/m 0,0 km/h (0 Bft) O-SO 117 0 min 0,000 mm 0,0 UV-I 0 W/m -1,3 C 1,8 C 0,0 km/h (0 Bft) 100,00 %
14.03.2016 19:05 1,8 C 80 % 1027,1 hPa 0,0 l/m 0,0 km/h (0 Bft) O-SO 117 0 min 0,000 mm 0,0 UV-I 0 W/m -1,3 C 1,8 C 0,0 km/h (0 Bft) 100,00 %
14.03.2016 19:06 1,7 C 81 % 1027,1 hPa 0,0 l/m 0,0 km/h (0 Bft) O-SO 117 0 min 0,000 mm 0,0 UV-I 0 W/m -1,2 C 1,7 C 0,0 km/h (0 Bft) 100,00 %
14.03.2016 19:07 1,7 C 82 % 1027,1 hPa 0,0 l/m 0,0 km/h (0 Bft) O-SO 117 0 min 0,000 mm 0,0 UV-I 0 W/m -1,0 C 1,7 C 0,0 km/h (0 Bft) 100,00 %
14.03.2016 19:08 1,6 C 82 % 1027,1 hPa 0,0 l/m 0,0 km/h (0 Bft) O-SO 117 0 min 0,000 mm 0,0 UV-I 0 W/m -1,1 C 1,6 C 0,0 km/h (0 Bft) 100,00 %
14.03.2016 19:09 1,6 C 82 % 1027,1 hPa 0,0 l/m 0,0 km/h (0 Bft) O-SO 117 0 min 0,000 mm 0,0 UV-I 0 W/m -1,1 C 1,6 C 0,0 km/h (0 Bft) 100,00 %
14.03.2016 19:10 1,5 C 82 % 1027,1 hPa 0,0 l/m 0,0 km/h (0 Bft) O-SO 117 0 min 0,000 mm 0,0 UV-I 0 W/m -1,2 C 1,5 C 0,0 km/h (0 Bft) 100,00 %
14.03.2016 19:11 1,4 C 83 % 1027,1 hPa 0,0 l/m 0,0 km/h (0 Bft) O-SO 117 0 min 0,000 mm 0,0 UV-I 0 W/m -1,2 C 1,4 C 0,0 km/h (0 Bft) 100,00 %
14.03.2016 19:12 1,3 C 85 % 1027,1 hPa 0,0 l/m 0,0 km/h (0 Bft) O-SO 117 0 min 0,000 mm 0,0 UV-I 0 W/m -0,9 C 1,3 C 0,0 km/h (0 Bft) 100,00 %
14.03.2016 19:13 1,2 C 85 % 1027,1 hPa 0,0 l/m 0,0 km/h (0 Bft) O-SO 117 0 min 0,000 mm 0,0 UV-I 0 W/m -1,0 C 1,2 C 0,0 km/h (0 Bft) 95,65 %
14.03.2016 19:14 1,2 C 86 % 1027,1 hPa 0,0 l/m 0,0 km/h (0 Bft) O-SO 117 0 min 0,000 mm 0,0 UV-I 0 W/m -0,9 C 1,2 C 0,0 km/h (0 Bft) 100,00 %
14.03.2016 19:15 1,1 C 86 % 1027,1 hPa 0,0 l/m 0,0 km/h (0 Bft) O-SO 117 0 min 0,000 mm 0,0 UV-I 0 W/m -1,0 C 1,1 C 0,0 km/h (0 Bft) 100,00 %
14.03.2016 19:16 1,1 C 86 % 1027,1 hPa 0,0 l/m 0,0 km/h (0 Bft) O-SO 117 0 min 0,000 mm 0,0 UV-I 0 W/m -1,0 C 1,1 C 0,0 km/h (0 Bft) 100,00 %
14.03.2016 19:17 1,0 C 86 % 1027,1 hPa 0,0 l/m 0,0 km/h (0 Bft) O-SO 117 0 min 0,000 mm 0,0 UV-I 0 W/m -1,1 C 1,0 C 0,0 km/h (0 Bft) 100,00 %
14.03.2016 19:18 1,0 C 85 % 1027,1 hPa 0,0 l/m 0,0 km/h (0 Bft) O-SO 117 0 min 0,000 mm 0,0 UV-I 0 W/m -1,2 C 1,0 C 0,0 km/h (0 Bft) 100,00 %
14.03.2016 19:19 1,0 C 86 % 1027,1 hPa 0,0 l/m 0,0 km/h (0 Bft) O-SO 117 0 min 0,000 mm 0,0 UV-I 0 W/m -1,1 C 1,0 C 0,0 km/h (0 Bft) 95,65 %
14.03.2016 19:20 1,0 C 85 % 1027,0 hPa 0,0 l/m 0,3 km/h (0 Bft) O-SO 117 0 min 0,000 mm 0,0 UV-I 0 W/m -1,2 C 1,0 C 1,6 km/h (1 Bft) 100,00 %
14.03.2016 19:21 0,9 C 85 % 1027,0 hPa 0,0 l/m 1,1 km/h (1 Bft) O-SO 117 0 min 0,000 mm 0,0 UV-I 0 W/m -1,3 C 0,9 C 1,6 km/h (1 Bft) 100,00 %
14.03.2016 19:22 0,9 C 84 % 1027,0 hPa 0,0 l/m 1,1 km/h (1 Bft) O-SO 118 0 min 0,000 mm 0,0 UV-I 0 W/m -1,5 C 0,9 C 1,6 km/h (1 Bft) 100,00 %
14.03.2016 19:23 1,0 C 84 % 1027,0 hPa 0,0 l/m 2,2 km/h (1 Bft) SO 130 0 min 0,000 mm 0,0 UV-I 0 W/m -1,4 C 1,0 C 3,2 km/h (1 Bft) 100,00 %
14.03.2016 19:24 1,1 C 83 % 1027,0 hPa 0,0 l/m 2,1 km/h (1 Bft) SO 134 0 min 0,000 mm 0,0 UV-I 0 W/m -1,5 C 1,1 C 3,2 km/h (1 Bft) 100,00 %
14.03.2016 19:25 1,1 C 83 % 1026,9 hPa 0,0 l/m 2,0 km/h (1 Bft) SO 140 0 min 0,000 mm 0,0 UV-I 0 W/m -1,5 C 1,1 C 3,2 km/h (1 Bft) 95,65 %
14.03.2016 19:26 1,1 C 83 % 1026,9 hPa 0,0 l/m 2,3 km/h (1 Bft) SO 140 0 min 0,000 mm 0,0 UV-I 0 W/m -1,5 C 1,1 C 4,8 km/h (1 Bft) 96,30 %
14.03.2016 19:27 1,1 C 82 % 1027,0 hPa 0,0 l/m 1,0 km/h (0 Bft) SO 140 0 min 0,000 mm 0,0 UV-I 0 W/m -1,6 C 1,1 C 1,6 km/h (1 Bft) 100,00 %
14.03.2016 19:28 1,1 C 82 % 1027,0 hPa 0,0 l/m 0,9 km/h (0 Bft) SO 140 0 min 0,000 mm 0,0 UV-I 0 W/m -1,6 C 1,1 C 1,6 km/h (1 Bft) 95,83 %
14.03.2016 19:29 1,1 C 82 % 1026,9 hPa 0,0 l/m 1,3 km/h (1 Bft) SO 140 0 min 0,000 mm 0,0 UV-I 0 W/m -1,6 C 1,1 C 1,6 km/h (1 Bft) 100,00 %
14.03.2016 19:30 1,1 C 82 % 1026,9 hPa 0,0 l/m 1,1 km/h (1 Bft) SO 140 0 min 0,000 mm 0,0 UV-I 0 W/m -1,6 C 1,1 C 1,6 km/h (1 Bft) 91,67 %
14.03.2016 19:31 1,1 C 83 % 1026,9 hPa 0,0 l/m 2,4 km/h (1 Bft) SO 140 0 min 0,000 mm 0,0 UV-I 0 W/m -1,5 C 1,1 C 4,8 km/h (1 Bft) 95,65 %
14.03.2016 19:32 0,9 C 84 % 1026,9 hPa 0,0 l/m 3,2 km/h (1 Bft) SO 140 0 min 0,000 mm 0,0 UV-I 0 W/m -1,5 C 0,9 C 4,8 km/h (1 Bft) 95,83 %
14.03.2016 19:33 0,9 C 84 % 1026,8 hPa 0,0 l/m 3,3 km/h (1 Bft) SO 140 0 min 0,000 mm 0,0 UV-I 0 W/m -1,5 C 0,9 C 4,8 km/h (1 Bft) 96,15 %
14.03.2016 19:34 0,8 C 85 % 1026,9 hPa 0,0 l/m 3,3 km/h (1 Bft) SO 140 0 min 0,000 mm 0,0 UV-I 0 W/m -1,4 C 0,8 C 4,8 km/h (1 Bft) 100,00 %
14.03.2016 19:35 0,7 C 85 % 1026,9 hPa 0,0 l/m 3,6 km/h (1 Bft) SO 140 0 min 0,000 mm 0,0 UV-I 0 W/m -1,5 C 0,7 C 4,8 km/h (1 Bft) 100,00 %
14.03.2016 19:36 0,7 C 85 % 1026,8 hPa 0,0 l/m 3,5 km/h (1 Bft) SO 136 0 min 0,000 mm 0,0 UV-I 0 W/m -1,5 C 0,7 C 4,8 km/h (1 Bft) 96,30 %
14.03.2016 19:37 0,7 C 85 % 1026,8 hPa 0,0 l/m 3,1 km/h (1 Bft) SO 126 0 min 0,000 mm 0,0 UV-I 0 W/m -1,5 C 0,7 C 4,8 km/h (1 Bft) 91,67 %
14.03.2016 19:38 0,7 C 84 % 1026,8 hPa 0,0 l/m 2,7 km/h (1 Bft) SO 126 0 min 0,000 mm 0,0 UV-I 0 W/m -1,7 C 0,7 C 3,2 km/h (1 Bft) 100,00 %
14.03.2016 19:39 0,7 C 85 % 1026,8 hPa 0,0 l/m 2,0 km/h (1 Bft) SO 126 0 min 0,000 mm 0,0 UV-I 0 W/m -1,5 C 0,7 C 3,2 km/h (1 Bft) 83,33 %
14.03.2016 19:40 0,7 C 84 % 1026,8 hPa 0,0 l/m 2,7 km/h (1 Bft) SO 126 0 min 0,000 mm 0,0 UV-I 0 W/m -1,7 C 0,7 C 3,2 km/h (1 Bft) 100,00 %
14.03.2016 19:41 0,7 C 84 % 1026,8 hPa 0,0 l/m 2,5 km/h (1 Bft) SO 126 0 min 0,000 mm 0,0 UV-I 0 W/m -1,7 C 0,7 C 3,2 km/h (1 Bft) 95,83 %
14.03.2016 19:42 0,6 C 84 % 1026,8 hPa 0,0 l/m 3,0 km/h (1 Bft) SO 126 0 min 0,000 mm 0,0 UV-I 0 W/m -1,8 C 0,6 C 4,8 km/h (1 Bft) 96,15 %
14.03.2016 19:43 0,6 C 84 % 1026,8 hPa 0,0 l/m 2,3 km/h (1 Bft) SO 126 0 min 0,000 mm 0,0 UV-I 0 W/m -1,8 C 0,6 C 4,8 km/h (1 Bft) 100,00 %
14.03.2016 19:44 0,7 C 85 % 1026,9 hPa 0,0 l/m 0,6 km/h (0 Bft) SO 126 0 min 0,000 mm 0,0 UV-I 0 W/m -1,5 C 0,7 C 1,6 km/h (1 Bft) 95,65 %
14.03.2016 19:45 0,6 C 85 % 1026,8 hPa 0,0 l/m 0,1 km/h (0 Bft) SO 126 0 min 0,000 mm 0,0 UV-I 0 W/m -1,6 C 0,6 C 1,6 km/h (1 Bft) 100,00 %
14.03.2016 19:46 0,6 C 85 % 1026,8 hPa 0,0 l/m 0,2 km/h (0 Bft) SO 126 0 min 0,000 mm 0,0 UV-I 0 W/m -1,6 C 0,6 C 1,6 km/h (1 Bft) 91,30 %
14.03.2016 19:47 0,6 C 86 % 1026,8 hPa 0,0 l/m 0,1 km/h (0 Bft) SO 126 0 min 0,000 mm 0,0 UV-I 0 W/m -1,5 C 0,6 C 1,6 km/h (1 Bft) 100,00 %
14.03.2016 19:48 0,5 C 86 % 1026,8 hPa 0,0 l/m 0,9 km/h (0 Bft) SO 126 0 min 0,000 mm 0,0 UV-I 0 W/m -1,6 C 0,5 C 1,6 km/h (1 Bft) 95,65 %
14.03.2016 19:49 0,5 C 86 % 1026,8 hPa 0,0 l/m 1,8 km/h (1 Bft) SO 126 0 min 0,000 mm 0,0 UV-I 0 W/m -1,6 C 0,5 C 3,2 km/h (1 Bft) 100,00 %
14.03.2016 19:50 0,5 C 86 % 1026,8 hPa 0,0 l/m 1,4 km/h (1 Bft) SO 126 0 min 0,000 mm 0,0 UV-I 0 W/m -1,6 C 0,5 C 3,2 km/h (1 Bft) 95,65 %
14.03.2016 19:51 0,5 C 87 % 1026,7 hPa 0,0 l/m 1,5 km/h (1 Bft) SO 126 0 min 0,000 mm 0,0 UV-I 0 W/m -1,4 C 0,5 C 3,2 km/h (1 Bft) 95,83 %
14.03.2016 19:52 0,5 C 86 % 1026,8 hPa 0,0 l/m 2,9 km/h (1 Bft) SO 126 0 min 0,000 mm 0,0 UV-I 0 W/m -1,6 C 0,5 C 4,8 km/h (1 Bft) 100,00 %
14.03.2016 19:53 0,5 C 86 % 1026,7 hPa 0,0 l/m 2,7 km/h (1 Bft) SO 126 0 min 0,000 mm 0,0 UV-I 0 W/m -1,6 C 0,5 C 3,2 km/h (1 Bft) 96,15 %
14.03.2016 19:54 0,5 C 86 % 1026,7 hPa 0,0 l/m 1,4 km/h (1 Bft) SO 126 0 min 0,000 mm 0,0 UV-I 0 W/m -1,6 C 0,5 C 3,2 km/h (1 Bft) 93,33 %
14.03.2016 19:55 0,6 C 86 % 1026,8 hPa 0,0 l/m 0,8 km/h (0 Bft) SO 126 0 min 0,000 mm 0,0 UV-I 0 W/m -1,5 C 0,6 C 1,6 km/h (1 Bft) 96,15 %
14.03.2016 19:56 0,6 C 86 % 1026,7 hPa 0,0 l/m 0,0 km/h (0 Bft) SO 126 0 min 0,000 mm 0,0 UV-I 0 W/m -1,5 C 0,6 C 0,0 km/h (0 Bft) 100,00 %
14.03.2016 19:57 0,6 C 85 % 1026,7 hPa 0,0 l/m 0,0 km/h (0 Bft) SO 126 0 min 0,000 mm 0,0 UV-I 0 W/m -1,6 C 0,6 C 0,0 km/h (0 Bft) 95,65 %
14.03.2016 19:58 0,6 C 85 % 1026,7 hPa 0,0 l/m 0,0 km/h (0 Bft) SO 126 0 min 0,000 mm 0,0 UV-I 0 W/m -1,6 C 0,6 C 0,0 km/h (0 Bft) 100,00 %
14.03.2016 19:59 0,6 C 86 % 1026,7 hPa 0,0 l/m 0,0 km/h (0 Bft) SO 126 0 min 0,000 mm 0,0 UV-I 0 W/m -1,5 C 0,6 C 0,0 km/h (0 Bft) 92,59 %
14.03.2016 20:00 0,6 C 85 % 1026,7 hPa 0,0 l/m 0,0 km/h (0 Bft) SO 126 0 min 0,000 mm 0,0 UV-I 0 W/m -1,6 C 0,6 C 0,0 km/h (0 Bft) 95,83 %
14.03.2016 20:01 0,6 C 85 % 1026,6 hPa 0,0 l/m 0,5 km/h (0 Bft) SO 126 0 min 0,000 mm 0,0 UV-I 0 W/m -1,6 C 0,6 C 1,6 km/h (1 Bft) 100,00 %
14.03.2016 20:02 0,5 C 85 % 1026,6 hPa 0,0 l/m 2,0 km/h (1 Bft) SO 126 0 min 0,000 mm 0,0 UV-I 0 W/m -1,7 C 0,5 C 3,2 km/h (1 Bft) 100,00 %
14.03.2016 20:03 0,4 C 85 % 1026,6 hPa 0,0 l/m 1,9 km/h (1 Bft) SO 126 0 min 0,000 mm 0,0 UV-I 0 W/m -1,8 C 0,4 C 3,2 km/h (1 Bft) 100,00 %
14.03.2016 20:04 0,4 C 86 % 1026,7 hPa 0,0 l/m 1,7 km/h (1 Bft) SO 126 0 min 0,000 mm 0,0 UV-I 0 W/m -1,7 C 0,4 C 3,2 km/h (1 Bft) 100,00 %
14.03.2016 20:05 0,3 C 86 % 1026,7 hPa 0,0 l/m 1,6 km/h (1 Bft) SO 126 0 min 0,000 mm 0,0 UV-I 0 W/m -1,8 C 0,3 C 3,2 km/h (1 Bft) 100,00 %
14.03.2016 20:06 0,3 C 86 % 1026,6 hPa 0,0 l/m 1,7 km/h (1 Bft) SO 126 0 min 0,000 mm 0,0 UV-I 0 W/m -1,8 C 0,3 C 3,2 km/h (1 Bft) 95,83 %
14.03.2016 20:07 0,2 C 86 % 1026,6 hPa 0,0 l/m 1,9 km/h (1 Bft) SO 126 0 min 0,000 mm 0,0 UV-I 0 W/m -1,9 C 0,2 C 3,2 km/h (1 Bft) 100,00 %
14.03.2016 20:08 0,2 C 86 % 1026,6 hPa 0,0 l/m 1,9 km/h (1 Bft) SO 126 0 min 0,000 mm 0,0 UV-I 0 W/m -1,9 C 0,2 C 3,2 km/h (1 Bft) 96,30 %
14.03.2016 20:09 0,2 C 86 % 1026,7 hPa 0,0 l/m 0,9 km/h (0 Bft) SO 126 0 min 0,000 mm 0,0 UV-I 0 W/m -1,9 C 0,2 C 3,2 km/h (1 Bft) 100,00 %
14.03.2016 20:10 0,2 C 86 % 1026,6 hPa 0,0 l/m 0,5 km/h (0 Bft) SO 126 0 min 0,000 mm 0,0 UV-I 0 W/m -1,9 C 0,2 C 1,6 km/h (1 Bft) 92,86 %
14.03.2016 20:11 0,2 C 86 % 1026,7 hPa 0,0 l/m 0,6 km/h (0 Bft) SO 126 0 min 0,000 mm 0,0 UV-I 0 W/m -1,9 C 0,2 C 1,6 km/h (1 Bft) 100,00 %
14.03.2016 20:12 0,1 C 87 % 1026,6 hPa 0,0 l/m 0,2 km/h (0 Bft) SO 126 0 min 0,000 mm 0,0 UV-I 0 W/m -1,8 C 0,1 C 1,6 km/h (1 Bft) 100,00 %
14.03.2016 20:13 0,0 C 87 % 1026,6 hPa 0,0 l/m 0,5 km/h (0 Bft) SO 126 0 min 0,000 mm 0,0 UV-I 0 W/m -1,9 C 0,0 C 1,6 km/h (1 Bft) 100,00 %
14.03.2016 20:14 -0,1 C 87 % 1026,5 hPa 0,0 l/m 0,8 km/h (0 Bft) SO 126 0 min 0,000 mm 0,0 UV-I 0 W/m -2,0 C -0,1 C 1,6 km/h (1 Bft) 96,88 %
14.03.2016 20:15 -0,1 C 87 % 1026,5 hPa 0,0 l/m 0,8 km/h (0 Bft) SO 126 0 min 0,000 mm 0,0 UV-I 0 W/m -2,0 C -0,1 C 1,6 km/h (1 Bft) 100,00 %
14.03.2016 20:16 -0,1 C 88 % 1026,5 hPa 0,0 l/m 1,5 km/h (1 Bft) SO 126 0 min 0,000 mm 0,0 UV-I 0 W/m -1,8 C -0,1 C 3,2 km/h (1 Bft) 88,46 %
14.03.2016 20:17 0,1 C 87 % 1026,6 hPa 0,0 l/m 1,7 km/h (1 Bft) SO 126 0 min 0,000 mm 0,0 UV-I 0 W/m -1,8 C 0,1 C 3,2 km/h (1 Bft) 95,83 %
14.03.2016 20:18 0,1 C 87 % 1026,6 hPa 0,0 l/m 1,9 km/h (1 Bft) SO 126 0 min 0,000 mm 0,0 UV-I 0 W/m -1,8 C 0,1 C 3,2 km/h (1 Bft) 95,65 %
14.03.2016 20:19 0,2 C 86 % 1026,6 hPa 0,0 l/m 1,4 km/h (1 Bft) SO 126 0 min 0,000 mm 0,0 UV-I 0 W/m -1,9 C 0,2 C 1,6 km/h (1 Bft) 100,00 %
14.03.2016 20:20 0,2 C 86 % 1026,7 hPa 0,0 l/m 1,1 km/h (1 Bft) SO 126 0 min 0,000 mm 0,0 UV-I 0 W/m -1,9 C 0,2 C 1,6 km/h (1 Bft) 100,00 %
14.03.2016 20:21 0,2 C 86 % 1026,6 hPa 0,0 l/m 1,7 km/h (1 Bft) SO 126 0 min 0,000 mm 0,0 UV-I 0 W/m -1,9 C 0,2 C 3,2 km/h (1 Bft) 95,83 %
14.03.2016 20:22 0,2 C 86 % 1026,6 hPa 0,0 l/m 3,3 km/h (1 Bft) SO 126 0 min 0,000 mm 0,0 UV-I 0 W/m -1,9 C 0,2 C 4,8 km/h (1 Bft) 100,00 %
14.03.2016 20:23 0,1 C 86 % 1026,6 hPa 0,0 l/m 2,3 km/h (1 Bft) SO 126 0 min 0,000 mm 0,0 UV-I 0 W/m -2,0 C 0,1 C 3,2 km/h (1 Bft) 95,83 %
14.03.2016 20:24 0,0 C 87 % 1026,6 hPa 0,0 l/m 1,2 km/h (1 Bft) SO 126 0 min 0,000 mm 0,0 UV-I 0 W/m -1,9 C 0,0 C 1,6 km/h (1 Bft) 100,00 %
14.03.2016 20:25 0,1 C 87 % 1026,6 hPa 0,0 l/m 1,4 km/h (1 Bft) SO 126 0 min 0,000 mm 0,0 UV-I 0 W/m -1,8 C 0,1 C 1,6 km/h (1 Bft) 100,00 %
14.03.2016 20:26 0,1 C 87 % 1026,5 hPa 0,0 l/m 2,5 km/h (1 Bft) SO 126 0 min 0,000 mm 0,0 UV-I 0 W/m -1,8 C 0,1 C 3,2 km/h (1 Bft) 100,00 %
14.03.2016 20:27 0,1 C 87 % 1026,5 hPa 0,0 l/m 3,0 km/h (1 Bft) SO 126 0 min 0,000 mm 0,0 UV-I 0 W/m -1,8 C 0,1 C 3,2 km/h (1 Bft) 100,00 %
14.03.2016 20:28 0,1 C 87 % 1026,5 hPa 0,0 l/m 2,4 km/h (1 Bft) SO 126 0 min 0,000 mm 0,0 UV-I 0 W/m -1,8 C 0,1 C 3,2 km/h (1 Bft) 100,00 %
14.03.2016 20:29 0,1 C 87 % 1026,6 hPa 0,0 l/m 2,6 km/h (1 Bft) SO 127 0 min 0,000 mm 0,0 UV-I 0 W/m -1,8 C 0,1 C 3,2 km/h (1 Bft) 100,00 %
14.03.2016 20:30 0,0 C 87 % 1026,7 hPa 0,0 l/m 3,4 km/h (1 Bft) SO 127 0 min 0,000 mm 0,0 UV-I 0 W/m -1,9 C 0,0 C 4,8 km/h (1 Bft) 100,00 %
14.03.2016 20:31 -0,1 C 87 % 1026,6 hPa 0,0 l/m 3,2 km/h (1 Bft) SO 127 0 min 0,000 mm 0,0 UV-I 0 W/m -2,0 C -0,1 C 4,8 km/h (1 Bft) 100,00 %
14.03.2016 20:32 -0,1 C 87 % 1026,6 hPa 0,0 l/m 2,9 km/h (1 Bft) SO 128 0 min 0,000 mm 0,0 UV-I 0 W/m -2,0 C -0,1 C 3,2 km/h (1 Bft) 100,00 %
14.03.2016 20:33 -0,2 C 87 % 1026,6 hPa 0,0 l/m 3,2 km/h (1 Bft) SO 132 0 min 0,000 mm 0,0 UV-I 0 W/m -2,1 C -0,2 C 4,8 km/h (1 Bft) 100,00 %
14.03.2016 20:34 -0,2 C 87 % 1026,6 hPa 0,0 l/m 2,5 km/h (1 Bft) SO 132 0 min 0,000 mm 0,0 UV-I 0 W/m -2,1 C -0,2 C 3,2 km/h (1 Bft) 100,00 %
14.03.2016 20:35 -0,3 C 88 % 1026,6 hPa 0,0 l/m 0,8 km/h (0 Bft) SO 132 0 min 0,000 mm 0,0 UV-I 0 W/m -2,0 C -0,3 C 1,6 km/h (1 Bft) 91,30 %
14.03.2016 20:36 -0,3 C 88 % 1026,6 hPa 0,0 l/m 0,6 km/h (0 Bft) SO 132 0 min 0,000 mm 0,0 UV-I 0 W/m -2,0 C -0,3 C 1,6 km/h (1 Bft) 100,00 %
14.03.2016 20:37 -0,2 C 88 % 1026,7 hPa 0,0 l/m 0,5 km/h (0 Bft) SO 132 0 min 0,000 mm 0,0 UV-I 0 W/m -1,9 C -0,2 C 1,6 km/h (1 Bft) 100,00 %
14.03.2016 20:38 -0,2 C 88 % 1026,5 hPa 0,0 l/m 1,1 km/h (1 Bft) SO 132 0 min 0,000 mm 0,0 UV-I 0 W/m -1,9 C -0,2 C 1,6 km/h (1 Bft) 100,00 %
14.03.2016 20:39 -0,2 C 88 % 1026,5 hPa 0,0 l/m 0,5 km/h (0 Bft) SO 132 0 min 0,000 mm 0,0 UV-I 0 W/m -1,9 C -0,2 C 1,6 km/h (1 Bft) 100,00 %
14.03.2016 20:40 -0,2 C 88 % 1026,5 hPa 0,0 l/m 0,0 km/h (0 Bft) SO 132 0 min 0,000 mm 0,0 UV-I 0 W/m -1,9 C -0,2 C 0,0 km/h (0 Bft) 100,00 %
14.03.2016 20:41 -0,2 C 88 % 1026,4 hPa 0,0 l/m 0,0 km/h (0 Bft) SO 132 0 min 0,000 mm 0,0 UV-I 0 W/m -1,9 C -0,2 C 0,0 km/h (0 Bft) 100,00 %
14.03.2016 20:42 -0,1 C 88 % 1026,4 hPa 0,0 l/m 0,0 km/h (0 Bft) SO 132 0 min 0,000 mm 0,0 UV-I 0 W/m -1,8 C -0,1 C 0,0 km/h (0 Bft) 100,00 %
14.03.2016 20:43 -0,1 C 88 % 1026,5 hPa 0,0 l/m 0,0 km/h (0 Bft) SO 132 0 min 0,000 mm 0,0 UV-I 0 W/m -1,8 C -0,1 C 0,0 km/h (0 Bft) 100,00 %
14.03.2016 20:44 -0,2 C 88 % 1026,4 hPa 0,0 l/m 0,0 km/h (0 Bft) SO 132 0 min 0,000 mm 0,0 UV-I 0 W/m -1,9 C -0,2 C 0,0 km/h (0 Bft) 100,00 %
14.03.2016 20:45 -0,2 C 88 % 1026,4 hPa 0,0 l/m 0,0 km/h (0 Bft) SO 132 0 min 0,000 mm 0,0 UV-I 0 W/m -1,9 C -0,2 C 0,0 km/h (0 Bft) 95,65 %
14.03.2016 20:46 -0,2 C 88 % 1026,5 hPa 0,0 l/m 0,0 km/h (0 Bft) SO 132 0 min 0,000 mm 0,0 UV-I 0 W/m -1,9 C -0,2 C 0,0 km/h (0 Bft) 95,83 %
14.03.2016 20:47 -0,2 C 88 % 1026,4 hPa 0,0 l/m 0,0 km/h (0 Bft) SO 132 0 min 0,000 mm 0,0 UV-I 0 W/m -1,9 C -0,2 C 0,0 km/h (0 Bft) 100,00 %
14.03.2016 20:48 -0,2 C 88 % 1026,4 hPa 0,0 l/m 1,0 km/h (0 Bft) SO 132 0 min 0,000 mm 0,0 UV-I 0 W/m -1,9 C -0,2 C 3,2 km/h (1 Bft) 95,83 %
14.03.2016 20:49 -0,2 C 88 % 1026,4 hPa 0,0 l/m 1,9 km/h (1 Bft) SO 132 0 min 0,000 mm 0,0 UV-I 0 W/m -1,9 C -0,2 C 3,2 km/h (1 Bft) 100,00 %
14.03.2016 20:50 -0,2 C 88 % 1026,4 hPa 0,0 l/m 2,0 km/h (1 Bft) SO 132 0 min 0,000 mm 0,0 UV-I 0 W/m -1,9 C -0,2 C 3,2 km/h (1 Bft) 100,00 %
14.03.2016 20:51 -0,2 C 89 % 1026,3 hPa 0,0 l/m 1,4 km/h (1 Bft) SO 132 0 min 0,000 mm 0,0 UV-I 0 W/m -1,8 C -0,2 C 3,2 km/h (1 Bft) 100,00 %
14.03.2016 20:52 -0,2 C 89 % 1026,3 hPa 0,0 l/m 0,1 km/h (0 Bft) SO 132 0 min 0,000 mm 0,0 UV-I 0 W/m -1,8 C -0,2 C 1,6 km/h (1 Bft) 100,00 %
14.03.2016 20:53 -0,2 C 88 % 1026,3 hPa 0,0 l/m 0,9 km/h (0 Bft) SO 132 0 min 0,000 mm 0,0 UV-I 0 W/m -1,9 C -0,2 C 1,6 km/h (1 Bft) 96,30 %
14.03.2016 20:54 -0,3 C 88 % 1026,3 hPa 0,0 l/m 0,2 km/h (0 Bft) SO 132 0 min 0,000 mm 0,0 UV-I 0 W/m -2,0 C -0,3 C 1,6 km/h (1 Bft) 100,00 %
14.03.2016 20:55 -0,4 C 88 % 1026,3 hPa 0,0 l/m 0,5 km/h (0 Bft) SO 132 0 min 0,000 mm 0,0 UV-I 0 W/m -2,1 C -0,4 C 1,6 km/h (1 Bft) 100,00 %
14.03.2016 20:56 -0,6 C 88 % 1026,3 hPa 0,0 l/m 0,3 km/h (0 Bft) SO 132 0 min 0,000 mm 0,0 UV-I 0 W/m -2,3 C -0,6 C 1,6 km/h (1 Bft) 100,00 %
14.03.2016 20:57 -0,6 C 89 % 1026,3 hPa 0,0 l/m 0,2 km/h (0 Bft) SO 132 0 min 0,000 mm 0,0 UV-I 0 W/m -2,2 C -0,6 C 1,6 km/h (1 Bft) 96,67 %
14.03.2016 20:58 -0,6 C 90 % 1026,2 hPa 0,0 l/m 0,0 km/h (0 Bft) SO 132 0 min 0,000 mm 0,0 UV-I 0 W/m -2,0 C -0,6 C 0,0 km/h (0 Bft) 100,00 %
14.03.2016 20:59 -0,6 C 90 % 1026,2 hPa 0,0 l/m 0,0 km/h (0 Bft) SO 132 0 min 0,000 mm 0,0 UV-I 0 W/m -2,0 C -0,6 C 0,0 km/h (0 Bft) 100,00 %
14.03.2016 21:00 -0,6 C 90 % 1026,3 hPa 0,0 l/m 0,0 km/h (0 Bft) SO 132 0 min 0,000 mm 0,0 UV-I 0 W/m -2,0 C -0,6 C 0,0 km/h (0 Bft) 100,00 %
14.03.2016 21:01 -0,6 C 90 % 1026,3 hPa 0,0 l/m 0,0 km/h (0 Bft) SO 132 0 min 0,000 mm 0,0 UV-I 0 W/m -2,0 C -0,6 C 0,0 km/h (0 Bft) 95,83 %
14.03.2016 21:02 -0,6 C 90 % 1026,2 hPa 0,0 l/m 0,0 km/h (0 Bft) SO 132 0 min 0,000 mm 0,0 UV-I 0 W/m -2,0 C -0,6 C 0,0 km/h (0 Bft) 100,00 %
14.03.2016 21:03 -0,5 C 90 % 1026,3 hPa 0,0 l/m 0,0 km/h (0 Bft) SO 132 0 min 0,000 mm 0,0 UV-I 0 W/m -1,9 C -0,5 C 0,0 km/h (0 Bft) 100,00 %
14.03.2016 21:04 -0,4 C 90 % 1026,3 hPa 0,0 l/m 0,0 km/h (0 Bft) SO 132 0 min 0,000 mm 0,0 UV-I 0 W/m -1,8 C -0,4 C 0,0 km/h (0 Bft) 100,00 %
14.03.2016 21:05 -0,4 C 89 % 1026,3 hPa 0,0 l/m 0,1 km/h (0 Bft) SO 132 0 min 0,000 mm 0,0 UV-I 0 W/m -2,0 C -0,4 C 1,6 km/h (1 Bft) 100,00 %
14.03.2016 21:06 -0,5 C 89 % 1026,2 hPa 0,0 l/m 0,1 km/h (0 Bft) SO 132 0 min 0,000 mm 0,0 UV-I 0 W/m -2,1 C -0,5 C 1,6 km/h (1 Bft) 100,00 %
14.03.2016 21:07 -0,4 C 89 % 1026,2 hPa 0,0 l/m 0,4 km/h (0 Bft) SO 132 0 min 0,000 mm 0,0 UV-I 0 W/m -2,0 C -0,4 C 1,6 km/h (1 Bft) 100,00 %
14.03.2016 21:08 -0,4 C 89 % 1026,1 hPa 0,0 l/m 1,4 km/h (1 Bft) SO 132 0 min 0,000 mm 0,0 UV-I 0 W/m -2,0 C -0,4 C 3,2 km/h (1 Bft) 96,67 %
14.03.2016 21:09 -0,4 C 89 % 1026,2 hPa 0,0 l/m 2,9 km/h (1 Bft) SO 132 0 min 0,000 mm 0,0 UV-I 0 W/m -2,0 C -0,4 C 3,2 km/h (1 Bft) 100,00 %
14.03.2016 21:10 -0,5 C 89 % 1026,2 hPa 0,0 l/m 2,6 km/h (1 Bft) SO 132 0 min 0,000 mm 0,0 UV-I 0 W/m -2,1 C -0,5 C 3,2 km/h (1 Bft) 100,00 %
14.03.2016 21:11 -0,6 C 90 % 1026,2 hPa 0,0 l/m 1,4 km/h (1 Bft) SO 132 0 min 0,000 mm 0,0 UV-I 0 W/m -2,0 C -0,6 C 3,2 km/h (1 Bft) 96,55 %
14.03.2016 21:12 -0,6 C 90 % 1026,2 hPa 0,0 l/m 0,0 km/h (0 Bft) SO 132 0 min 0,000 mm 0,0 UV-I 0 W/m -2,0 C -0,6 C 0,0 km/h (0 Bft) 95,65 %
14.03.2016 21:13 -0,6 C 90 % 1026,2 hPa 0,0 l/m 0,0 km/h (0 Bft) SO 132 0 min 0,000 mm 0,0 UV-I 0 W/m -2,0 C -0,6 C 0,0 km/h (0 Bft) 100,00 %
14.03.2016 21:14 -0,6 C 90 % 1026,2 hPa 0,0 l/m 0,0 km/h (0 Bft) SO 132 0 min 0,000 mm 0,0 UV-I 0 W/m -2,0 C -0,6 C 0,0 km/h (0 Bft) 100,00 %
14.03.2016 21:15 -0,6 C 90 % 1026,3 hPa 0,0 l/m 0,0 km/h (0 Bft) SO 132 0 min 0,000 mm 0,0 UV-I 0 W/m -2,0 C -0,6 C 0,0 km/h (0 Bft) 100,00 %
14.03.2016 21:16 -0,5 C 90 % 1026,3 hPa 0,0 l/m 0,0 km/h (0 Bft) SO 132 0 min 0,000 mm 0,0 UV-I 0 W/m -1,9 C -0,5 C 0,0 km/h (0 Bft) 100,00 %
14.03.2016 21:17 -0,4 C 90 % 1026,3 hPa 0,0 l/m 0,0 km/h (0 Bft) SO 132 0 min 0,000 mm 0,0 UV-I 0 W/m -1,8 C -0,4 C 0,0 km/h (0 Bft) 100,00 %
14.03.2016 21:18 -0,4 C 90 % 1026,3 hPa 0,0 l/m 0,0 km/h (0 Bft) SO 132 0 min 0,000 mm 0,0 UV-I 0 W/m -1,8 C -0,4 C 0,0 km/h (0 Bft) 95,83 %
14.03.2016 21:19 -0,4 C 90 % 1026,2 hPa 0,0 l/m 0,0 km/h (0 Bft) SO 132 0 min 0,000 mm 0,0 UV-I 0 W/m -1,8 C -0,4 C 0,0 km/h (0 Bft) 100,00 %
14.03.2016 21:20 -0,4 C 90 % 1026,3 hPa 0,0 l/m 0,0 km/h (0 Bft) SO 132 0 min 0,000 mm 0,0 UV-I 0 W/m -1,8 C -0,4 C 0,0 km/h (0 Bft) 100,00 %
14.03.2016 21:21 -0,4 C 90 % 1026,2 hPa 0,0 l/m 0,3 km/h (0 Bft) SO 132 0 min 0,000 mm 0,0 UV-I 0 W/m -1,8 C -0,4 C 1,6 km/h (1 Bft) 100,00 %
14.03.2016 21:22 -0,4 C 90 % 1026,2 hPa 0,0 l/m 0,2 km/h (0 Bft) SO 132 0 min 0,000 mm 0,0 UV-I 0 W/m -1,8 C -0,4 C 1,6 km/h (1 Bft) 100,00 %
14.03.2016 21:23 -0,4 C 90 % 1026,2 hPa 0,0 l/m 0,0 km/h (0 Bft) SO 132 0 min 0,000 mm 0,0 UV-I 0 W/m -1,8 C -0,4 C 0,0 km/h (0 Bft) 100,00 %
14.03.2016 21:24 -0,5 C 90 % 1026,3 hPa 0,0 l/m 0,0 km/h (0 Bft) SO 132 0 min 0,000 mm 0,0 UV-I 0 W/m -1,9 C -0,5 C 0,0 km/h (0 Bft) 100,00 %
14.03.2016 21:25 -0,5 C 89 % 1026,3 hPa 0,0 l/m 0,0 km/h (0 Bft) SO 132 0 min 0,000 mm 0,0 UV-I 0 W/m -2,1 C -0,5 C 0,0 km/h (0 Bft) 100,00 %
14.03.2016 21:26 -0,6 C 89 % 1026,3 hPa 0,0 l/m 0,0 km/h (0 Bft) SO 132 0 min 0,000 mm 0,0 UV-I 0 W/m -2,2 C -0,6 C 0,0 km/h (0 Bft) 100,00 %
14.03.2016 21:27 -0,6 C 90 % 1026,3 hPa 0,0 l/m 0,0 km/h (0 Bft) SO 132 0 min 0,000 mm 0,0 UV-I 0 W/m -2,0 C -0,6 C 0,0 km/h (0 Bft) 100,00 %
14.03.2016 21:28 -0,6 C 90 % 1026,2 hPa 0,0 l/m 0,4 km/h (0 Bft) SO 132 0 min 0,000 mm 0,0 UV-I 0 W/m -2,0 C -0,6 C 1,6 km/h (1 Bft) 95,83 %
14.03.2016 21:29 -0,7 C 89 % 1026,3 hPa 0,0 l/m 2,9 km/h (1 Bft) SO 132 0 min 0,000 mm 0,0 UV-I 0 W/m -2,3 C -0,7 C 3,2 km/h (1 Bft) 100,00 %
14.03.2016 21:30 -0,7 C 89 % 1026,2 hPa 0,0 l/m 4,2 km/h (1 Bft) SO 132 0 min 0,000 mm 0,0 UV-I 0 W/m -2,3 C -0,7 C 4,8 km/h (1 Bft) 95,83 %
14.03.2016 21:31 -0,8 C 89 % 1026,3 hPa 0,0 l/m 4,3 km/h (1 Bft) SO 132 0 min 0,000 mm 0,0 UV-I 0 W/m -2,4 C -0,8 C 4,8 km/h (1 Bft) 100,00 %
14.03.2016 21:32 -0,8 C 89 % 1026,2 hPa 0,0 l/m 3,7 km/h (1 Bft) SO 132 0 min 0,000 mm 0,0 UV-I 0 W/m -2,4 C -0,8 C 4,8 km/h (1 Bft) 100,00 %
14.03.2016 21:33 -0,9 C 89 % 1026,2 hPa 0,0 l/m 3,3 km/h (1 Bft) SO 132 0 min 0,000 mm 0,0 UV-I 0 W/m -2,5 C -0,9 C 4,8 km/h (1 Bft) 100,00 %
14.03.2016 21:34 -0,9 C 90 % 1026,2 hPa 0,0 l/m 3,2 km/h (1 Bft) SO 132 0 min 0,000 mm 0,0 UV-I 0 W/m -2,3 C -0,9 C 4,8 km/h (1 Bft) 100,00 %
14.03.2016 21:35 -0,9 C 90 % 1026,2 hPa 0,0 l/m 3,2 km/h (1 Bft) SO 132 0 min 0,000 mm 0,0 UV-I 0 W/m -2,3 C -0,9 C 3,2 km/h (1 Bft) 95,83 %
14.03.2016 21:36 -0,8 C 90 % 1026,3 hPa 0,0 l/m 0,8 km/h (0 Bft) SO 132 0 min 0,000 mm 0,0 UV-I 0 W/m -2,2 C -0,8 C 3,2 km/h (1 Bft) 100,00 %
14.03.2016 21:37 -0,8 C 90 % 1026,2 hPa 0,0 l/m 1,0 km/h (0 Bft) SO 132 0 min 0,000 mm 0,0 UV-I 0 W/m -2,2 C -0,8 C 1,6 km/h (1 Bft) 95,83 %
14.03.2016 21:38 -0,8 C 90 % 1026,2 hPa 0,0 l/m 1,9 km/h (1 Bft) SO 132 0 min 0,000 mm 0,0 UV-I 0 W/m -2,2 C -0,8 C 3,2 km/h (1 Bft) 100,00 %
14.03.2016 21:39 -0,8 C 90 % 1026,2 hPa 0,0 l/m 1,3 km/h (1 Bft) SO 132 0 min 0,000 mm 0,0 UV-I 0 W/m -2,2 C -0,8 C 1,6 km/h (1 Bft) 91,67 %
14.03.2016 21:40 -0,8 C 90 % 1026,2 hPa 0,0 l/m 1,0 km/h (0 Bft) SO 132 0 min 0,000 mm 0,0 UV-I 0 W/m -2,2 C -0,8 C 1,6 km/h (1 Bft) 90,91 %
14.03.2016 21:41 -0,8 C 89 % 1026,2 hPa 0,0 l/m 0,5 km/h (0 Bft) SO 132 0 min 0,000 mm 0,0 UV-I 0 W/m -2,4 C -0,8 C 1,6 km/h (1 Bft) 86,67 %
14.03.2016 21:42 -0,8 C 89 % 1026,2 hPa 0,0 l/m 1,9 km/h (1 Bft) SO 132 0 min 0,000 mm 0,0 UV-I 0 W/m -2,4 C -0,8 C 3,2 km/h (1 Bft) 98,59 %
14.03.2016 21:43 -0,8 C 89 % 1026,1 hPa 0,0 l/m 2,4 km/h (1 Bft) SO 132 0 min 0,000 mm 0,0 UV-I 0 W/m -2,4 C -0,8 C 3,2 km/h (1 Bft) 98,21 %
14.03.2016 21:44 -0,9 C 89 % 1026,2 hPa 0,0 l/m 2,4 km/h (1 Bft) SO 132 0 min 0,000 mm 0,0 UV-I 0 W/m -2,5 C -0,9 C 3,2 km/h (1 Bft) 100,00 %
14.03.2016 21:45 -0,9 C 89 % 1026,2 hPa 0,0 l/m 0,9 km/h (0 Bft) SO 132 0 min 0,000 mm 0,0 UV-I 0 W/m -2,5 C -0,9 C 1,6 km/h (1 Bft) 95,83 %
14.03.2016 21:46 -0,9 C 90 % 1026,2 hPa 0,0 l/m 0,3 km/h (0 Bft) SO 132 0 min 0,000 mm 0,0 UV-I 0 W/m -2,3 C -0,9 C 1,6 km/h (1 Bft) 95,65 %
14.03.2016 21:47 -0,9 C 89 % 1026,2 hPa 0,0 l/m 0,1 km/h (0 Bft) SO 132 0 min 0,000 mm 0,0 UV-I 0 W/m -2,5 C -0,9 C 1,6 km/h (1 Bft) 100,00 %
14.03.2016 21:48 -0,9 C 89 % 1026,3 hPa 0,0 l/m 0,0 km/h (0 Bft) SO 132 0 min 0,000 mm 0,0 UV-I 0 W/m -2,5 C -0,9 C 0,0 km/h (0 Bft) 96,15 %
14.03.2016 21:49 -0,9 C 89 % 1026,3 hPa 0,0 l/m 0,1 km/h (0 Bft) SO 132 0 min 0,000 mm 0,0 UV-I 0 W/m -2,5 C -0,9 C 1,6 km/h (1 Bft) 100,00 %
14.03.2016 21:50 -0,9 C 89 % 1026,2 hPa 0,0 l/m 0,2 km/h (0 Bft) SO 132 0 min 0,000 mm 0,0 UV-I 0 W/m -2,5 C -0,9 C 1,6 km/h (1 Bft) 95,65 %
14.03.2016 21:51 -0,9 C 90 % 1026,2 hPa 0,0 l/m 1,8 km/h (1 Bft) SO 132 0 min 0,000 mm 0,0 UV-I 0 W/m -2,3 C -0,9 C 3,2 km/h (1 Bft) 100,00 %
14.03.2016 21:52 -1,0 C 90 % 1026,2 hPa 0,0 l/m 0,2 km/h (0 Bft) SO 132 0 min 0,000 mm 0,0 UV-I 0 W/m -2,4 C -1,0 C 1,6 km/h (1 Bft) 96,30 %
14.03.2016 21:53 -1,0 C 90 % 1026,2 hPa 0,0 l/m 0,1 km/h (0 Bft) SO 132 0 min 0,000 mm 0,0 UV-I 0 W/m -2,4 C -1,0 C 1,6 km/h (1 Bft) 95,65 %
14.03.2016 21:54 -0,9 C 90 % 1026,2 hPa 0,0 l/m 0,1 km/h (0 Bft) SO 132 0 min 0,000 mm 0,0 UV-I 0 W/m -2,3 C -0,9 C 1,6 km/h (1 Bft) 100,00 %
14.03.2016 21:55 -1,0 C 90 % 1026,2 hPa 0,0 l/m 0,9 km/h (0 Bft) SO 132 0 min 0,000 mm 0,0 UV-I 0 W/m -2,4 C -1,0 C 1,6 km/h (1 Bft) 96,15 %
14.03.2016 21:56 -1,0 C 90 % 1026,2 hPa 0,0 l/m 0,2 km/h (0 Bft) SO 132 0 min 0,000 mm 0,0 UV-I 0 W/m -2,4 C -1,0 C 1,6 km/h (1 Bft) 100,00 %
14.03.2016 21:57 -1,1 C 90 % 1026,2 hPa 0,0 l/m 0,9 km/h (0 Bft) SO 132 0 min 0,000 mm 0,0 UV-I 0 W/m -2,5 C -1,1 C 1,6 km/h (1 Bft) 95,65 %
14.03.2016 21:58 -1,1 C 90 % 1026,2 hPa 0,0 l/m 0,6 km/h (0 Bft) SO 132 0 min 0,000 mm 0,0 UV-I 0 W/m -2,5 C -1,1 C 1,6 km/h (1 Bft) 100,00 %
14.03.2016 21:59 -1,1 C 90 % 1026,2 hPa 0,0 l/m 1,2 km/h (1 Bft) SO 132 0 min 0,000 mm 0,0 UV-I 0 W/m -2,5 C -1,1 C 1,6 km/h (1 Bft) 91,30 %
14.03.2016 22:00 -1,1 C 90 % 1026,2 hPa 0,0 l/m 1,3 km/h (1 Bft) SO 132 0 min 0,000 mm 0,0 UV-I 0 W/m -2,5 C -1,1 C 1,6 km/h (1 Bft) 96,30 %
14.03.2016 22:01 -1,1 C 90 % 1026,2 hPa 0,0 l/m 0,9 km/h (0 Bft) SO 132 0 min 0,000 mm 0,0 UV-I 0 W/m -2,5 C -1,1 C 1,6 km/h (1 Bft) 100,00 %
14.03.2016 22:02 -1,1 C 90 % 1026,2 hPa 0,0 l/m 0,5 km/h (0 Bft) SO 132 0 min 0,000 mm 0,0 UV-I 0 W/m -2,5 C -1,1 C 1,6 km/h (1 Bft) 96,30 %
14.03.2016 22:03 -1,1 C 90 % 1026,2 hPa 0,0 l/m 0,5 km/h (0 Bft) SO 132 0 min 0,000 mm 0,0 UV-I 0 W/m -2,5 C -1,1 C 1,6 km/h (1 Bft) 100,00 %
14.03.2016 22:04 -1,1 C 90 % 1026,2 hPa 0,0 l/m 0,5 km/h (0 Bft) SO 132 0 min 0,000 mm 0,0 UV-I 0 W/m -2,5 C -1,1 C 1,6 km/h (1 Bft) 96,30 %
14.03.2016 22:05 -1,0 C 90 % 1026,2 hPa 0,0 l/m 0,0 km/h (0 Bft) SO 132 0 min 0,000 mm 0,0 UV-I 0 W/m -2,4 C -1,0 C 0,0 km/h (0 Bft) 100,00 %
14.03.2016 22:06 -1,0 C 90 % 1026,1 hPa 0,0 l/m 0,1 km/h (0 Bft) SO 132 0 min 0,000 mm 0,0 UV-I 0 W/m -2,4 C -1,0 C 1,6 km/h (1 Bft) 96,30 %
14.03.2016 22:07 -1,0 C 90 % 1026,1 hPa 0,0 l/m 0,9 km/h (0 Bft) SO 132 0 min 0,000 mm 0,0 UV-I 0 W/m -2,4 C -1,0 C 1,6 km/h (1 Bft) 95,65 %
14.03.2016 22:08 -1,0 C 89 % 1026,2 hPa 0,0 l/m 0,8 km/h (0 Bft) SO 132 0 min 0,000 mm 0,0 UV-I 0 W/m -2,6 C -1,0 C 1,6 km/h (1 Bft) 96,30 %
14.03.2016 22:09 -1,1 C 89 % 1026,1 hPa 0,0 l/m 1,0 km/h (0 Bft) SO 132 0 min 0,000 mm 0,0 UV-I 0 W/m -2,7 C -1,1 C 1,6 km/h (1 Bft) 100,00 %
14.03.2016 22:10 -1,0 C 90 % 1026,1 hPa 0,0 l/m 1,1 km/h (1 Bft) SO 132 0 min 0,000 mm 0,0 UV-I 0 W/m -2,4 C -1,0 C 1,6 km/h (1 Bft) 100,00 %
14.03.2016 22:11 -1,0 C 90 % 1026,2 hPa 0,0 l/m 1,4 km/h (1 Bft) SO 132 0 min 0,000 mm 0,0 UV-I 0 W/m -2,4 C -1,0 C 1,6 km/h (1 Bft) 100,00 %
14.03.2016 22:12 -1,1 C 90 % 1026,1 hPa 0,0 l/m 1,5 km/h (1 Bft) SO 132 0 min 0,000 mm 0,0 UV-I 0 W/m -2,5 C -1,1 C 1,6 km/h (1 Bft) 96,15 %
14.03.2016 22:13 -1,1 C 90 % 1026,1 hPa 0,0 l/m 1,6 km/h (1 Bft) SO 132 0 min 0,000 mm 0,0 UV-I 0 W/m -2,5 C -1,1 C 1,6 km/h (1 Bft) 95,83 %
14.03.2016 22:14 -1,1 C 90 % 1026,2 hPa 0,0 l/m 1,9 km/h (1 Bft) SO 132 0 min 0,000 mm 0,0 UV-I 0 W/m -2,5 C -1,1 C 3,2 km/h (1 Bft) 95,65 %
14.03.2016 22:15 -1,1 C 90 % 1026,2 hPa 0,0 l/m 2,6 km/h (1 Bft) SO 132 0 min 0,000 mm 0,0 UV-I 0 W/m -2,5 C -1,1 C 3,2 km/h (1 Bft) 100,00 %
14.03.2016 22:16 -1,1 C 90 % 1026,1 hPa 0,0 l/m 2,6 km/h (1 Bft) SO 132 0 min 0,000 mm 0,0 UV-I 0 W/m -2,5 C -1,1 C 3,2 km/h (1 Bft) 100,00 %
14.03.2016 22:17 -1,1 C 90 % 1026,1 hPa 0,0 l/m 2,5 km/h (1 Bft) SO 132 0 min 0,000 mm 0,0 UV-I 0 W/m -2,5 C -1,1 C 3,2 km/h (1 Bft) 100,00 %
14.03.2016 22:18 -1,2 C 90 % 1026,1 hPa 0,0 l/m 2,4 km/h (1 Bft) SO 132 0 min 0,000 mm 0,0 UV-I 0 W/m -2,6 C -1,2 C 3,2 km/h (1 Bft) 100,00 %
14.03.2016 22:19 -1,2 C 90 % 1026,1 hPa 0,0 l/m 2,5 km/h (1 Bft) SO 132 0 min 0,000 mm 0,0 UV-I 0 W/m -2,6 C -1,2 C 3,2 km/h (1 Bft) 100,00 %
14.03.2016 22:20 -1,2 C 90 % 1026,1 hPa 0,0 l/m 2,4 km/h (1 Bft) SO 132 0 min 0,000 mm 0,0 UV-I 0 W/m -2,6 C -1,2 C 3,2 km/h (1 Bft) 92,86 %
14.03.2016 22:21 -1,2 C 90 % 1026,1 hPa 0,0 l/m 2,2 km/h (1 Bft) SO 132 0 min 0,000 mm 0,0 UV-I 0 W/m -2,6 C -1,2 C 3,2 km/h (1 Bft) 100,00 %
14.03.2016 22:22 -1,2 C 90 % 1026,1 hPa 0,0 l/m 1,8 km/h (1 Bft) SO 132 0 min 0,000 mm 0,0 UV-I 0 W/m -2,6 C -1,2 C 3,2 km/h (1 Bft) 96,15 %
14.03.2016 22:23 -1,3 C 90 % 1026,1 hPa 0,0 l/m 1,6 km/h (1 Bft) SO 132 0 min 0,000 mm 0,0 UV-I 0 W/m -2,7 C -1,3 C 3,2 km/h (1 Bft) 100,00 %
14.03.2016 22:24 -1,3 C 90 % 1026,1 hPa 0,0 l/m 0,7 km/h (0 Bft) SO 132 0 min 0,000 mm 0,0 UV-I 0 W/m -2,7 C -1,3 C 1,6 km/h (1 Bft) 100,00 %
14.03.2016 22:25 -1,3 C 90 % 1026,0 hPa 0,0 l/m 0,4 km/h (0 Bft) SO 132 0 min 0,000 mm 0,0 UV-I 0 W/m -2,7 C -1,3 C 1,6 km/h (1 Bft) 100,00 %
14.03.2016 22:26 -1,3 C 90 % 1026,0 hPa 0,0 l/m 0,4 km/h (0 Bft) SO 132 0 min 0,000 mm 0,0 UV-I 0 W/m -2,7 C -1,3 C 1,6 km/h (1 Bft) 100,00 %
14.03.2016 22:27 -1,2 C 90 % 1026,0 hPa 0,0 l/m 0,6 km/h (0 Bft) SO 132 0 min 0,000 mm 0,0 UV-I 0 W/m -2,6 C -1,2 C 1,6 km/h (1 Bft) 100,00 %
14.03.2016 22:28 -1,1 C 90 % 1026,0 hPa 0,0 l/m 0,5 km/h (0 Bft) SO 132 0 min 0,000 mm 0,0 UV-I 0 W/m -2,5 C -1,1 C 1,6 km/h (1 Bft) 100,00 %
14.03.2016 22:29 -1,0 C 90 % 1026,0 hPa 0,0 l/m 0,3 km/h (0 Bft) SO 132 0 min 0,000 mm 0,0 UV-I 0 W/m -2,4 C -1,0 C 1,6 km/h (1 Bft) 100,00 %
14.03.2016 22:30 -0,9 C 90 % 1026,0 hPa 0,0 l/m 1,0 km/h (0 Bft) SO 132 0 min 0,000 mm 0,0 UV-I 0 W/m -2,3 C -0,9 C 1,6 km/h (1 Bft) 96,15 %
14.03.2016 22:31 -0,9 C 89 % 1026,0 hPa 0,0 l/m 1,4 km/h (1 Bft) SO 132 0 min 0,000 mm 0,0 UV-I 0 W/m -2,5 C -0,9 C 1,6 km/h (1 Bft) 100,00 %
14.03.2016 22:32 -0,9 C 89 % 1026,0 hPa 0,0 l/m 1,8 km/h (1 Bft) SO 132 0 min 0,000 mm 0,0 UV-I 0 W/m -2,5 C -0,9 C 3,2 km/h (1 Bft) 100,00 %
14.03.2016 22:33 -0,9 C 89 % 1026,0 hPa 0,0 l/m 2,1 km/h (1 Bft) SO 132 0 min 0,000 mm 0,0 UV-I 0 W/m -2,5 C -0,9 C 3,2 km/h (1 Bft) 100,00 %
14.03.2016 22:34 -1,0 C 89 % 1026,0 hPa 0,0 l/m 2,7 km/h (1 Bft) SO 132 0 min 0,000 mm 0,0 UV-I 0 W/m -2,6 C -1,0 C 3,2 km/h (1 Bft) 100,00 %
14.03.2016 22:35 -1,0 C 89 % 1026,0 hPa 0,0 l/m 2,6 km/h (1 Bft) SO 132 0 min 0,000 mm 0,0 UV-I 0 W/m -2,6 C -1,0 C 3,2 km/h (1 Bft) 100,00 %
14.03.2016 22:36 -1,1 C 89 % 1026,0 hPa 0,0 l/m 2,1 km/h (1 Bft) SO 132 0 min 0,000 mm 0,0 UV-I 0 W/m -2,7 C -1,1 C 3,2 km/h (1 Bft) 100,00 %
14.03.2016 22:37 -1,1 C 90 % 1025,9 hPa 0,0 l/m 0,6 km/h (0 Bft) SO 132 0 min 0,000 mm 0,0 UV-I 0 W/m -2,5 C -1,1 C 1,6 km/h (1 Bft) 100,00 %
14.03.2016 22:38 -1,1 C 89 % 1026,0 hPa 0,0 l/m 0,3 km/h (0 Bft) SO 132 0 min 0,000 mm 0,0 UV-I 0 W/m -2,7 C -1,1 C 1,6 km/h (1 Bft) 100,00 %
14.03.2016 22:39 -1,2 C 89 % 1026,0 hPa 0,0 l/m 0,5 km/h (0 Bft) SO 132 0 min 0,000 mm 0,0 UV-I 0 W/m -2,8 C -1,2 C 1,6 km/h (1 Bft) 100,00 %
14.03.2016 22:40 -1,2 C 89 % 1026,0 hPa 0,0 l/m 0,5 km/h (0 Bft) SO 132 0 min 0,000 mm 0,0 UV-I 0 W/m -2,8 C -1,2 C 1,6 km/h (1 Bft) 100,00 %
14.03.2016 22:41 -1,3 C 89 % 1026,0 hPa 0,0 l/m 0,1 km/h (0 Bft) SO 132 0 min 0,000 mm 0,0 UV-I 0 W/m -2,9 C -1,3 C 1,6 km/h (1 Bft) 96,55 %
14.03.2016 22:42 -1,3 C 89 % 1026,0 hPa 0,0 l/m 0,4 km/h (0 Bft) SO 132 0 min 0,000 mm 0,0 UV-I 0 W/m -2,9 C -1,3 C 1,6 km/h (1 Bft) 100,00 %
14.03.2016 22:43 -1,4 C 90 % 1026,0 hPa 0,0 l/m 1,3 km/h (1 Bft) SO 132 0 min 0,000 mm 0,0 UV-I 0 W/m -2,8 C -1,4 C 1,6 km/h (1 Bft) 100,00 %
14.03.2016 22:44 -1,4 C 90 % 1026,0 hPa 0,0 l/m 0,8 km/h (0 Bft) SO 132 0 min 0,000 mm 0,0 UV-I 0 W/m -2,8 C -1,4 C 1,6 km/h (1 Bft) 100,00 %
14.03.2016 22:45 -1,4 C 90 % 1026,0 hPa 0,0 l/m 0,6 km/h (0 Bft) SO 132 0 min 0,000 mm 0,0 UV-I 0 W/m -2,8 C -1,4 C 1,6 km/h (1 Bft) 100,00 %
14.03.2016 22:46 -1,4 C 90 % 1025,9 hPa 0,0 l/m 1,1 km/h (1 Bft) SO 132 0 min 0,000 mm 0,0 UV-I 0 W/m -2,8 C -1,4 C 1,6 km/h (1 Bft) 100,00 %
14.03.2016 22:47 -1,4 C 90 % 1025,9 hPa 0,0 l/m 1,0 km/h (0 Bft) SO 132 0 min 0,000 mm 0,0 UV-I 0 W/m -2,8 C -1,4 C 1,6 km/h (1 Bft) 91,67 %
14.03.2016 22:48 -1,4 C 91 % 1025,9 hPa 0,0 l/m 1,3 km/h (1 Bft) SO 132 0 min 0,000 mm 0,0 UV-I 0 W/m -2,7 C -1,4 C 1,6 km/h (1 Bft) 100,00 %
14.03.2016 22:49 -1,4 C 91 % 1025,8 hPa 0,0 l/m 1,7 km/h (1 Bft) SO 132 0 min 0,000 mm 0,0 UV-I 0 W/m -2,7 C -1,4 C 3,2 km/h (1 Bft) 100,00 %
14.03.2016 22:50 -1,4 C 91 % 1025,8 hPa 0,0 l/m 1,7 km/h (1 Bft) SO 132 0 min 0,000 mm 0,0 UV-I 0 W/m -2,7 C -1,4 C 3,2 km/h (1 Bft) 100,00 %
14.03.2016 22:51 -1,4 C 90 % 1025,8 hPa 0,0 l/m 1,2 km/h (1 Bft) SO 132 0 min 0,000 mm 0,0 UV-I 0 W/m -2,8 C -1,4 C 1,6 km/h (1 Bft) 96,15 %
14.03.2016 22:52 -1,5 C 90 % 1025,9 hPa 0,0 l/m 2,0 km/h (1 Bft) SO 132 0 min 0,000 mm 0,0 UV-I 0 W/m -2,9 C -1,5 C 3,2 km/h (1 Bft) 96,30 %
14.03.2016 22:53 -1,5 C 91 % 1025,8 hPa 0,0 l/m 2,1 km/h (1 Bft) SO 132 0 min 0,000 mm 0,0 UV-I 0 W/m -2,8 C -1,5 C 3,2 km/h (1 Bft) 100,00 %
14.03.2016 22:54 -1,5 C 91 % 1025,8 hPa 0,0 l/m 1,9 km/h (1 Bft) SO 132 0 min 0,000 mm 0,0 UV-I 0 W/m -2,8 C -1,5 C 3,2 km/h (1 Bft) 100,00 %
14.03.2016 22:55 -1,6 C 91 % 1025,8 hPa 0,0 l/m 1,6 km/h (1 Bft) SO 132 0 min 0,000 mm 0,0 UV-I 0 W/m -2,9 C -1,6 C 3,2 km/h (1 Bft) 100,00 %
14.03.2016 22:56 -1,6 C 91 % 1025,8 hPa 0,0 l/m 1,7 km/h (1 Bft) SO 132 0 min 0,000 mm 0,0 UV-I 0 W/m -2,9 C -1,6 C 3,2 km/h (1 Bft) 100,00 %
14.03.2016 22:57 -1,6 C 91 % 1025,8 hPa 0,0 l/m 1,5 km/h (1 Bft) SO 132 0 min 0,000 mm 0,0 UV-I 0 W/m -2,9 C -1,6 C 1,6 km/h (1 Bft) 100,00 %
14.03.2016 22:58 -1,6 C 91 % 1025,8 hPa 0,0 l/m 1,5 km/h (1 Bft) SO 132 0 min 0,000 mm 0,0 UV-I 0 W/m -2,9 C -1,6 C 1,6 km/h (1 Bft) 100,00 %
14.03.2016 22:59 -1,5 C 92 % 1025,7 hPa 0,0 l/m 1,7 km/h (1 Bft) SO 132 0 min 0,000 mm 0,0 UV-I 0 W/m -2,6 C -1,5 C 3,2 km/h (1 Bft) 100,00 %
14.03.2016 23:00 -1,5 C 92 % 1025,7 hPa 0,0 l/m 1,9 km/h (1 Bft) SO 132 0 min 0,000 mm 0,0 UV-I 0 W/m -2,6 C -1,5 C 3,2 km/h (1 Bft) 100,00 %
14.03.2016 23:01 -1,5 C 92 % 1025,7 hPa 0,0 l/m 2,1 km/h (1 Bft) SO 132 0 min 0,000 mm 0,0 UV-I 0 W/m -2,6 C -1,5 C 3,2 km/h (1 Bft) 100,00 %
14.03.2016 23:02 -1,4 C 92 % 1025,7 hPa 0,0 l/m 2,4 km/h (1 Bft) SO 132 0 min 0,000 mm 0,0 UV-I 0 W/m -2,5 C -1,4 C 3,2 km/h (1 Bft) 100,00 %
14.03.2016 23:03 -1,4 C 92 % 1025,7 hPa 0,0 l/m 2,6 km/h (1 Bft) SO 132 0 min 0,000 mm 0,0 UV-I 0 W/m -2,5 C -1,4 C 3,2 km/h (1 Bft) 100,00 %
14.03.2016 23:04 -1,4 C 92 % 1025,7 hPa 0,0 l/m 2,1 km/h (1 Bft) SO 132 0 min 0,000 mm 0,0 UV-I 0 W/m -2,5 C -1,4 C 3,2 km/h (1 Bft) 100,00 %
14.03.2016 23:05 -1,4 C 92 % 1025,7 hPa 0,0 l/m 1,9 km/h (1 Bft) SO 132 0 min 0,000 mm 0,0 UV-I 0 W/m -2,5 C -1,4 C 3,2 km/h (1 Bft) 100,00 %
14.03.2016 23:06 -1,4 C 92 % 1025,7 hPa 0,0 l/m 2,0 km/h (1 Bft) SO 132 0 min 0,000 mm 0,0 UV-I 0 W/m -2,5 C -1,4 C 3,2 km/h (1 Bft) 100,00 %
14.03.2016 23:07 -1,3 C 92 % 1025,7 hPa 0,0 l/m 1,9 km/h (1 Bft) SO 132 0 min 0,000 mm 0,0 UV-I 0 W/m -2,4 C -1,3 C 3,2 km/h (1 Bft) 100,00 %
14.03.2016 23:08 -1,3 C 92 % 1025,7 hPa 0,0 l/m 1,5 km/h (1 Bft) SO 132 0 min 0,000 mm 0,0 UV-I 0 W/m -2,4 C -1,3 C 1,6 km/h (1 Bft) 100,00 %
14.03.2016 23:09 -1,3 C 92 % 1025,8 hPa 0,0 l/m 0,3 km/h (0 Bft) SO 132 0 min 0,000 mm 0,0 UV-I 0 W/m -2,4 C -1,3 C 1,6 km/h (1 Bft) 96,55 %
14.03.2016 23:10 -1,3 C 92 % 1025,8 hPa 0,0 l/m 0,0 km/h (0 Bft) SO 132 0 min 0,000 mm 0,0 UV-I 0 W/m -2,4 C -1,3 C 0,0 km/h (0 Bft) 100,00 %
14.03.2016 23:11 -1,3 C 92 % 1025,8 hPa 0,0 l/m 0,0 km/h (0 Bft) SO 132 0 min 0,000 mm 0,0 UV-I 0 W/m -2,4 C -1,3 C 0,0 km/h (0 Bft) 100,00 %
14.03.2016 23:12 -1,2 C 92 % 1025,8 hPa 0,0 l/m 0,0 km/h (0 Bft) SO 132 0 min 0,000 mm 0,0 UV-I 0 W/m -2,3 C -1,2 C 0,0 km/h (0 Bft) 95,65 %
14.03.2016 23:13 -1,2 C 92 % 1025,8 hPa 0,0 l/m 0,1 km/h (0 Bft) SO 132 0 min 0,000 mm 0,0 UV-I 0 W/m -2,3 C -1,2 C 1,6 km/h (1 Bft) 95,83 %
14.03.2016 23:14 -1,2 C 92 % 1025,8 hPa 0,0 l/m 0,0 km/h (0 Bft) SO 132 0 min 0,000 mm 0,0 UV-I 0 W/m -2,3 C -1,2 C 0,0 km/h (0 Bft) 100,00 %
14.03.2016 23:15 -1,2 C 91 % 1025,8 hPa 0,0 l/m 0,0 km/h (0 Bft) SO 132 0 min 0,000 mm 0,0 UV-I 0 W/m -2,5 C -1,2 C 0,0 km/h (0 Bft) 100,00 %
14.03.2016 23:16 -1,2 C 91 % 1025,8 hPa 0,0 l/m 0,0 km/h (0 Bft) SO 132 0 min 0,000 mm 0,0 UV-I 0 W/m -2,5 C -1,2 C 0,0 km/h (0 Bft) 100,00 %
14.03.2016 23:17 -1,2 C 91 % 1025,8 hPa 0,0 l/m 0,0 km/h (0 Bft) SO 132 0 min 0,000 mm 0,0 UV-I 0 W/m -2,5 C -1,2 C 0,0 km/h (0 Bft) 92,86 %
14.03.2016 23:18 -1,2 C 91 % 1025,8 hPa 0,0 l/m 0,0 km/h (0 Bft) SO 132 0 min 0,000 mm 0,0 UV-I 0 W/m -2,5 C -1,2 C 0,0 km/h (0 Bft) 100,00 %
14.03.2016 23:19 -1,2 C 91 % 1025,8 hPa 0,0 l/m 0,0 km/h (0 Bft) SO 132 0 min 0,000 mm 0,0 UV-I 0 W/m -2,5 C -1,2 C 0,0 km/h (0 Bft) 100,00 %
14.03.2016 23:20 -1,2 C 91 % 1025,8 hPa 0,0 l/m 0,0 km/h (0 Bft) SO 132 0 min 0,000 mm 0,0 UV-I 0 W/m -2,5 C -1,2 C 0,0 km/h (0 Bft) 100,00 %
14.03.2016 23:21 -1,2 C 91 % 1025,8 hPa 0,0 l/m 0,0 km/h (0 Bft) SO 132 0 min 0,000 mm 0,0 UV-I 0 W/m -2,5 C -1,2 C 0,0 km/h (0 Bft) 100,00 %
14.03.2016 23:22 -1,2 C 91 % 1025,8 hPa 0,0 l/m 0,0 km/h (0 Bft) SO 132 0 min 0,000 mm 0,0 UV-I 0 W/m -2,5 C -1,2 C 0,0 km/h (0 Bft) 100,00 %
14.03.2016 23:23 -1,2 C 91 % 1025,8 hPa 0,0 l/m 0,0 km/h (0 Bft) SO 132 0 min 0,000 mm 0,0 UV-I 0 W/m -2,5 C -1,2 C 0,0 km/h (0 Bft) 100,00 %
14.03.2016 23:24 -1,2 C 91 % 1025,8 hPa 0,0 l/m 0,0 km/h (0 Bft) SO 132 0 min 0,000 mm 0,0 UV-I 0 W/m -2,5 C -1,2 C 0,0 km/h (0 Bft) 100,00 %
14.03.2016 23:25 -1,1 C 91 % 1025,7 hPa 0,0 l/m 0,0 km/h (0 Bft) SO 132 0 min 0,000 mm 0,0 UV-I 0 W/m -2,4 C -1,1 C 0,0 km/h (0 Bft) 95,65 %
14.03.2016 23:26 -1,1 C 91 % 1025,7 hPa 0,0 l/m 0,0 km/h (0 Bft) SO 132 0 min 0,000 mm 0,0 UV-I 0 W/m -2,4 C -1,1 C 0,0 km/h (0 Bft) 100,00 %
14.03.2016 23:27 -1,1 C 91 % 1025,8 hPa 0,0 l/m 0,0 km/h (0 Bft) SO 132 0 min 0,000 mm 0,0 UV-I 0 W/m -2,4 C -1,1 C 0,0 km/h (0 Bft) 95,65 %
14.03.2016 23:28 -1,1 C 91 % 1025,8 hPa 0,0 l/m 0,0 km/h (0 Bft) SO 132 0 min 0,000 mm 0,0 UV-I 0 W/m -2,4 C -1,1 C 0,0 km/h (0 Bft) 95,83 %
14.03.2016 23:29 -1,1 C 92 % 1025,7 hPa 0,0 l/m 0,0 km/h (0 Bft) SO 132 0 min 0,000 mm 0,0 UV-I 0 W/m -2,2 C -1,1 C 0,0 km/h (0 Bft) 100,00 %
14.03.2016 23:30 -1,1 C 92 % 1025,8 hPa 0,0 l/m 0,0 km/h (0 Bft) SO 132 0 min 0,000 mm 0,0 UV-I 0 W/m -2,2 C -1,1 C 0,0 km/h (0 Bft) 97,37 %
14.03.2016 23:31 -1,1 C 92 % 1025,7 hPa 0,0 l/m 0,0 km/h (0 Bft) SO 132 0 min 0,000 mm 0,0 UV-I 0 W/m -2,2 C -1,1 C 0,0 km/h (0 Bft) 100,00 %
14.03.2016 23:32 -1,1 C 92 % 1025,7 hPa 0,0 l/m 0,0 km/h (0 Bft) SO 132 0 min 0,000 mm 0,0 UV-I 0 W/m -2,2 C -1,1 C 0,0 km/h (0 Bft) 100,00 %
14.03.2016 23:33 -1,1 C 92 % 1025,7 hPa 0,0 l/m 0,0 km/h (0 Bft) SO 132 0 min 0,000 mm 0,0 UV-I 0 W/m -2,2 C -1,1 C 0,0 km/h (0 Bft) 100,00 %
14.03.2016 23:34 -1,1 C 92 % 1025,7 hPa 0,0 l/m 0,0 km/h (0 Bft) SO 132 0 min 0,000 mm 0,0 UV-I 0 W/m -2,2 C -1,1 C 0,0 km/h (0 Bft) 100,00 %
14.03.2016 23:35 -1,1 C 92 % 1025,7 hPa 0,0 l/m 0,0 km/h (0 Bft) SO 132 0 min 0,000 mm 0,0 UV-I 0 W/m -2,2 C -1,1 C 0,0 km/h (0 Bft) 100,00 %
14.03.2016 23:36 -1,1 C 92 % 1025,7 hPa 0,0 l/m 0,0 km/h (0 Bft) SO 132 0 min 0,000 mm 0,0 UV-I 0 W/m -2,2 C -1,1 C 0,0 km/h (0 Bft) 100,00 %
14.03.2016 23:37 -1,0 C 92 % 1025,7 hPa 0,0 l/m 0,0 km/h (0 Bft) SO 132 0 min 0,000 mm 0,0 UV-I 0 W/m -2,1 C -1,0 C 0,0 km/h (0 Bft) 100,00 %
14.03.2016 23:38 -1,0 C 92 % 1025,7 hPa 0,0 l/m 0,0 km/h (0 Bft) SO 132 0 min 0,000 mm 0,0 UV-I 0 W/m -2,1 C -1,0 C 0,0 km/h (0 Bft) 100,00 %
14.03.2016 23:39 -1,0 C 91 % 1025,7 hPa 0,0 l/m 0,0 km/h (0 Bft) SO 132 0 min 0,000 mm 0,0 UV-I 0 W/m -2,3 C -1,0 C 0,0 km/h (0 Bft) 95,83 %
14.03.2016 23:40 -1,0 C 91 % 1025,7 hPa 0,0 l/m 0,0 km/h (0 Bft) SO 132 0 min 0,000 mm 0,0 UV-I 0 W/m -2,3 C -1,0 C 0,0 km/h (0 Bft) 100,00 %
14.03.2016 23:41 -1,0 C 91 % 1025,7 hPa 0,0 l/m 0,0 km/h (0 Bft) SO 132 0 min 0,000 mm 0,0 UV-I 0 W/m -2,3 C -1,0 C 0,0 km/h (0 Bft) 100,00 %
14.03.2016 23:42 -1,1 C 91 % 1025,7 hPa 0,0 l/m 0,0 km/h (0 Bft) SO 132 0 min 0,000 mm 0,0 UV-I 0 W/m -2,4 C -1,1 C 0,0 km/h (0 Bft) 100,00 %
14.03.2016 23:43 -1,1 C 91 % 1025,7 hPa 0,0 l/m 0,0 km/h (0 Bft) SO 132 0 min 0,000 mm 0,0 UV-I 0 W/m -2,4 C -1,1 C 0,0 km/h (0 Bft) 93,33 %
14.03.2016 23:44 -1,1 C 91 % 1025,6 hPa 0,0 l/m 0,0 km/h (0 Bft) SO 132 0 min 0,000 mm 0,0 UV-I 0 W/m -2,4 C -1,1 C 0,0 km/h (0 Bft) 100,00 %
14.03.2016 23:45 -1,2 C 91 % 1025,6 hPa 0,0 l/m 0,0 km/h (0 Bft) SO 132 0 min 0,000 mm 0,0 UV-I 0 W/m -2,5 C -1,2 C 0,0 km/h (0 Bft) 95,83 %
14.03.2016 23:46 -1,2 C 91 % 1025,7 hPa 0,0 l/m 0,0 km/h (0 Bft) SO 132 0 min 0,000 mm 0,0 UV-I 0 W/m -2,5 C -1,2 C 0,0 km/h (0 Bft) 96,15 %
14.03.2016 23:47 -1,2 C 91 % 1025,6 hPa 0,0 l/m 0,1 km/h (0 Bft) SO 132 0 min 0,000 mm 0,0 UV-I 0 W/m -2,5 C -1,2 C 1,6 km/h (1 Bft) 100,00 %
14.03.2016 23:48 -1,2 C 91 % 1025,6 hPa 0,0 l/m 1,0 km/h (0 Bft) SO 132 0 min 0,000 mm 0,0 UV-I 0 W/m -2,5 C -1,2 C 1,6 km/h (1 Bft) 95,65 %
14.03.2016 23:49 -1,3 C 91 % 1025,7 hPa 0,0 l/m 0,9 km/h (0 Bft) SO 132 0 min 0,000 mm 0,0 UV-I 0 W/m -2,6 C -1,3 C 1,6 km/h (1 Bft) 100,00 %
14.03.2016 23:50 -1,3 C 91 % 1025,7 hPa 0,0 l/m 0,9 km/h (0 Bft) SO 132 0 min 0,000 mm 0,0 UV-I 0 W/m -2,6 C -1,3 C 1,6 km/h (1 Bft) 91,67 %
14.03.2016 23:51 -1,3 C 91 % 1025,7 hPa 0,0 l/m 0,0 km/h (0 Bft) SO 132 0 min 0,000 mm 0,0 UV-I 0 W/m -2,6 C -1,3 C 0,0 km/h (0 Bft) 100,00 %
14.03.2016 23:52 -1,4 C 91 % 1025,6 hPa 0,0 l/m 0,0 km/h (0 Bft) SO 132 0 min 0,000 mm 0,0 UV-I 0 W/m -2,7 C -1,4 C 0,0 km/h (0 Bft) 96,15 %
14.03.2016 23:53 -1,4 C 92 % 1025,6 hPa 0,0 l/m 0,0 km/h (0 Bft) SO 132 0 min 0,000 mm 0,0 UV-I 0 W/m -2,5 C -1,4 C 0,0 km/h (0 Bft) 95,83 %
14.03.2016 23:54 -1,4 C 92 % 1025,6 hPa 0,0 l/m 0,0 km/h (0 Bft) SO 132 0 min 0,000 mm 0,0 UV-I 0 W/m -2,5 C -1,4 C 0,0 km/h (0 Bft) 100,00 %
14.03.2016 23:55 -1,4 C 92 % 1025,6 hPa 0,0 l/m 0,0 km/h (0 Bft) SO 132 0 min 0,000 mm 0,0 UV-I 0 W/m -2,5 C -1,4 C 0,0 km/h (0 Bft) 100,00 %
14.03.2016 23:56 -1,3 C 92 % 1025,6 hPa 0,0 l/m 0,0 km/h (0 Bft) SO 132 0 min 0,000 mm 0,0 UV-I 0 W/m -2,4 C -1,3 C 0,0 km/h (0 Bft) 96,30 %
14.03.2016 23:57 -1,3 C 92 % 1025,6 hPa 0,0 l/m 0,0 km/h (0 Bft) SO 132 0 min 0,000 mm 0,0 UV-I 0 W/m -2,4 C -1,3 C 0,0 km/h (0 Bft) 96,15 %
14.03.2016 23:58 -1,3 C 92 % 1025,5 hPa 0,0 l/m 0,0 km/h (0 Bft) SO 132 0 min 0,000 mm 0,0 UV-I 0 W/m -2,4 C -1,3 C 0,0 km/h (0 Bft) 95,83 %
14.03.2016 23:59 -1,3 C 92 % 1025,5 hPa 0,0 l/m 0,0 km/h (0 Bft) SO 132 0 min 0,000 mm 0,0 UV-I 0 W/m -2,4 C -1,3 C 0,0 km/h (0 Bft) 96,15 %
_ Min-Zeit 22:55 14:46 23:58 - 18:50 - - - - - - 22:52 06:53 18:50 19:39
Minimum _ -1,6 C 62 % 1025,5 hPa - 0,0 km/h (0 Bft) - - - - - - -2,9 C -7,4 C 0,0 km/h (0 Bft) 83,33 %
_ Max-Zeit 15:47 00:00 07:55 00:07 12:50 - - 17:55 14:00 13:06 13:06 00:00 16:41 12:50 00:00
Maximum _ 5,6 C 96 % 1031,0 hPa 0,2 l/m 22,6 km/h
O-NO (4 Bft)
- - 5 min 0,254 mm 2,4 UV-I 628 W/m 2,2 C 5,2 C 32,2 km/h
O (5 Bft)
100,00 %
Durchschnitt _ 2,3 C 80 % 1028,6 hPa #0,2 l/m 9,0 km/h (2 Bft) O-NO - #4:46 h #1,372 mm 1,3 UV-I 227 W/m -0,8 C -0,7 C 12,5 km/h (3 Bft) 98,55 %